Provisional Data: Ninemile Run near Walton, PA


Please select a monitoring station.
Please select start date.
Please select start date.

Toggle Unit: C/F Toggle Unit: C/F
Sample Time Temperature (C) Temperature (F) Specific Conductivity (mS/cm) pH   Turbidity (NTU+) DO (mg/L)
4/13/2022 12:00:00 AM 0 32 0 6.9 7.1 11.12
4/13/2022 12:15:00 AM 0 32 0 6.9 6.99 11.15
4/13/2022 12:30:00 AM 0 32 0 6.89 6.82 11.17
4/13/2022 12:45:00 AM 0 32 0 6.9 7.1 11.21
4/13/2022 1:00:00 AM 0 32 0 6.89 7.9 11.23
4/13/2022 1:15:00 AM 0 32 0 6.89 6.47 11.26
4/13/2022 1:30:00 AM 0 32 0 6.89 6.79 11.29
4/13/2022 1:45:00 AM 0 32 0 6.89 7.03 11.32
4/13/2022 2:00:00 AM 0 32 0 6.89 6.68 11.32
4/13/2022 2:15:00 AM 0 32 0 6.89 6.92 11.35
4/13/2022 2:30:00 AM 0 32 0 6.88 6.81 11.38
4/13/2022 2:45:00 AM 0 32 0 6.88 6.87 11.41
4/13/2022 3:00:00 AM 0 32 0 6.88 6.71 11.4
4/13/2022 3:15:00 AM 0 32 0 6.89 6.78 11.44
4/13/2022 3:30:00 AM 0 32 0 6.88 6.82 11.44
4/13/2022 3:45:00 AM 0 32 0 6.88 6.58 11.47
4/13/2022 4:00:00 AM 0 32 0 6.88 6.88 11.47
4/13/2022 4:15:00 AM 0 32 0 6.88 6.67 11.48
4/13/2022 4:30:00 AM 0 32 0 6.88 6.79 11.48
4/13/2022 4:45:00 AM 0 32 0 6.88 6.72 11.49
4/13/2022 5:00:00 AM 0 32 0 6.88 7.12 11.51
4/13/2022 5:15:00 AM 0 32 0 6.88 6.72 11.52
4/13/2022 5:30:00 AM 0 32 0 6.88 6.68 11.51
4/13/2022 5:45:00 AM 0 32 0 6.88 6.69 11.51
4/13/2022 6:00:00 AM 0 32 0 6.88 6.63 11.52
4/13/2022 6:15:00 AM 0 32 0 6.88 6.85 11.52
4/13/2022 6:30:00 AM 0 32 0 6.88 6.73 11.49
4/13/2022 6:45:00 AM 0 32 0 6.88 6.76 11.52
4/13/2022 7:00:00 AM 0 32 0 6.89 6.63 11.51
4/13/2022 7:15:00 AM 0 32 0 6.88 7.01 11.54
4/13/2022 7:30:00 AM 0 32 0 6.91 6.85 11.58
4/13/2022 7:45:00 AM 0 32 0 6.93 6.9 11.62
4/13/2022 8:00:00 AM 0 32 0 6.94 7.03 11.65
4/13/2022 8:15:00 AM 0 32 0 6.94 6.98 11.67
4/13/2022 8:30:00 AM 0 32 0 6.97 6.6 11.69
4/13/2022 8:45:00 AM 0 32 0 6.99 6.25 11.71
4/13/2022 9:00:00 AM 0 32 0 6.99 6.92 11.71
4/13/2022 9:15:00 AM 0 32 0 6.99 6.28 11.71
4/13/2022 9:30:00 AM 0 32 0 7.01 6.34 11.68
4/13/2022 9:45:00 AM 0 32 0 7.02 6.2 11.67
4/13/2022 10:00:00 AM 0 32 0 7.02 6.21 11.63
4/13/2022 10:15:00 AM 0 32 0 7.03 7.36 11.59
4/13/2022 10:30:00 AM 0 32 0 7.03 6.36 11.59
4/13/2022 10:45:00 AM 0 32 0 7.04 6.29 11.57
4/13/2022 11:00:00 AM 0 32 0 7.04 6.36 11.52
4/13/2022 11:15:00 AM 0 32 0 7.06 6.35 11.46
4/13/2022 11:30:00 AM 0 32 0 7.07 6.71 11.42
4/13/2022 11:45:00 AM 0 32 0 7.08 7.22 11.33
4/13/2022 12:00:00 PM 0 32 0 7.09 6.72 11.26
4/13/2022 12:15:00 PM 0 32 0 7.08 6.39 11.18
4/13/2022 12:30:00 PM 0 32 0 7.09 6.36 11.13
4/13/2022 12:45:00 PM 0 32 0 7.09 6.29 11.06
4/13/2022 1:00:00 PM 0 32 0 7.1 6.46 11
4/13/2022 1:15:00 PM 0 32 0 7.09 6.48 10.94
4/13/2022 1:30:00 PM 0 32 0 7.08 6.08 10.87
4/13/2022 1:45:00 PM 0 32 0 7.07 6.73 10.82
4/13/2022 2:00:00 PM 0 32 0 7.07 6.43 10.84
4/13/2022 2:15:00 PM 0 32 0 7.08 6.55 10.81
4/13/2022 2:30:00 PM 0 32 0 7.09 6.65 10.79
4/13/2022 2:45:00 PM 0 32 0 7.1 6.81 10.77
4/13/2022 3:00:00 PM 0 32 0 7.09 6.56 10.72
4/13/2022 3:15:00 PM 0 32 0 7.09 6.63 10.69
4/13/2022 3:30:00 PM 0 32 0 7.09 6.15 10.68
4/13/2022 3:45:00 PM 0 32 0 7.09 6.62 10.66
4/13/2022 4:00:00 PM 0 32 0 7.09 6.54 10.63
4/13/2022 4:15:00 PM 0 32 0 7.09 6.13 10.61
4/13/2022 4:30:00 PM 0 32 0 7.09 6.36 10.6
4/13/2022 4:45:00 PM 0 32 0 7.08 7.2 10.58
4/13/2022 5:00:00 PM 0 32 0 7.07 6.34 10.58
4/13/2022 5:15:00 PM 0 32 0 7.09 6.6 10.58
4/13/2022 5:30:00 PM 0 32 0 7.09 6.89 10.58
4/13/2022 5:45:00 PM 0 32 0 7.08 6.4 10.55
4/13/2022 6:00:00 PM 0 32 0 7.03 7.1 10.44
4/13/2022 6:15:00 PM 0 32 0 7.01 6.8 10.41
4/13/2022 6:30:00 PM 0 32 0 7 6.73 10.36
4/13/2022 6:45:00 PM 0 32 0 6.98 6.87 10.35
4/13/2022 7:00:00 PM 0 32 0 6.97 6.89 10.36
4/13/2022 7:15:00 PM 0 32 0 6.95 6.62 10.37
4/13/2022 7:30:00 PM 0 32 0 6.94 6.81 10.35
4/13/2022 7:45:00 PM 0 32 0 6.93 6.33 10.34
4/13/2022 8:00:00 PM 0 32 0 6.9 6.94 10.33
4/13/2022 8:15:00 PM 0 32 0 6.89 6.69 10.33
4/13/2022 8:30:00 PM 0 32 0 6.87 7.32 10.34
4/13/2022 8:45:00 PM 0 32 0 6.88 7.28 10.35
4/13/2022 9:00:00 PM 0 32 0 6.86 7.24 10.37
4/13/2022 9:15:00 PM 0 32 0 6.87 7.55 10.4
4/13/2022 9:30:00 PM 0 32 0 6.86 7.18 10.41
4/13/2022 9:45:00 PM 0 32 0 6.86 7.11 10.44
4/13/2022 10:00:00 PM 0 32 0 6.85 7.38 10.46
4/13/2022 10:15:00 PM 0 32 0 6.85 7.12 10.46
4/13/2022 10:30:00 PM 0 32 0 6.85 6.72 10.49
4/13/2022 10:45:00 PM 0 32 0 6.85 7.5 10.51
4/13/2022 11:00:00 PM 0 32 0 6.84 6.96 10.53
4/13/2022 11:15:00 PM 0 32 0 6.84 7.21 10.56
4/13/2022 11:30:00 PM 0 32 0 6.85 6.97 10.58
4/13/2022 11:45:00 PM 0 32 0 6.84 6.96 10.61
4/14/2022 12:00:00 AM 0 32 0 6.85 7.21 10.63
4/14/2022 12:15:00 AM 0 32 0 6.85 7.38 10.65
4/14/2022 12:30:00 AM 0 32 0 6.84 7.49 10.65
4/14/2022 12:45:00 AM 0 32 0 6.85 7.28 10.68
4/14/2022 1:00:00 AM 0 32 0 6.85 7.39 10.71
4/14/2022 1:15:00 AM 0 32 0 6.87 7.26 10.73
4/14/2022 1:30:00 AM 0 32 0 6.85 7.08 10.73
4/14/2022 1:45:00 AM 0 32 0 6.85 6.81 10.76
4/14/2022 2:00:00 AM 0 32 0 6.85 7.29 10.76
4/14/2022 2:15:00 AM 0 32 0 6.85 7.08 10.79
4/14/2022 2:30:00 AM 0 32 0 6.84 6.94 10.81
4/14/2022 2:45:00 AM 0 32 0 6.84 6.52 10.81
4/14/2022 3:00:00 AM 0 32 0 6.84 6.71 10.84
4/14/2022 3:15:00 AM 0 32 0 6.84 6.92 10.84
4/14/2022 3:30:00 AM 0 32 0 6.83 6.71 10.87
4/14/2022 3:45:00 AM 0 32 0 6.84 6.71 10.87
4/14/2022 4:00:00 AM 0 32 0 6.83 6.78 10.88
4/14/2022 4:15:00 AM 0 32 0 6.84 6.88 10.88
4/14/2022 4:30:00 AM 0 32 0 6.82 7.19 10.91
4/14/2022 4:45:00 AM 0 32 0 6.82 6.82 10.92
4/14/2022 5:00:00 AM 0 32 0 6.83 7.01 10.93
4/14/2022 5:15:00 AM 0 32 0 6.83 7.27 10.93
4/14/2022 5:30:00 AM 0 32 0 6.83 7.16 10.94
4/14/2022 5:45:00 AM 0 32 0 6.83 6.75 10.96
4/14/2022 6:00:00 AM 0 32 0 6.84 6.89 10.97
4/14/2022 6:15:00 AM 0 32 0 6.84 6.95 10.98
4/14/2022 6:30:00 AM 0 32 0 6.83 6.8 10.98
4/14/2022 6:45:00 AM 0 32 0 6.84 6.95 11
4/14/2022 7:00:00 AM 0 32 0 6.84 6.61 11.05
4/14/2022 7:15:00 AM 0 32 0 6.84 6.49 11.07
4/14/2022 7:30:00 AM 0 32 0 6.86 6.89 11.1
4/14/2022 7:45:00 AM 0 32 0 6.87 6.95 11.16
4/14/2022 8:00:00 AM 0 32 0 6.89 6.9 11.2
4/14/2022 8:15:00 AM 0 32 0 6.91 6.59 11.24
4/14/2022 8:30:00 AM 0 32 0 6.93 6.5 11.26
4/14/2022 8:45:00 AM 0 32 0 6.95 6.94 11.27
4/14/2022 9:00:00 AM 0 32 0 6.97 6.58 11.27
4/14/2022 9:15:00 AM 0 32 0 7.01 6.94 11.27
4/14/2022 9:30:00 AM 0 32 0 7.02 6.51 11.25
4/14/2022 9:45:00 AM 0 32 0 7.03 6.81 11.23
4/14/2022 10:00:00 AM 0 32 0 7.04 7.41 11.19
4/14/2022 10:15:00 AM 0 32 0 7.05 6.46 11.17
4/14/2022 10:30:00 AM 0 32 0 7.05 7.65 11.13
4/14/2022 10:45:00 AM 0 32 0 7.04 7.21 11.06
4/14/2022 11:00:00 AM 0 32 0 7.06 6.9 11.05
4/14/2022 11:15:00 AM 0 32 0 7.05 6.4 11
4/14/2022 11:30:00 AM 0 32 0 7.06 6.71 10.96
4/14/2022 11:45:00 AM 0 32 0 7.05 6.78 10.93
4/14/2022 12:00:00 PM 0 32 0 7.06 6.81 10.92
4/14/2022 12:15:00 PM 0 32 0 7.06 7.06 10.88
4/14/2022 12:30:00 PM 0 32 0 7.06 6.9 10.87
4/14/2022 12:45:00 PM 0 32 0 7.06 6.4 10.86
4/14/2022 1:00:00 PM 0 32 0 7.07 7.33 10.89
4/14/2022 1:15:00 PM 0 32 0 7.06 7.12 10.87
4/14/2022 1:30:00 PM 0 32 0 7.07 6.64 10.86
4/14/2022 1:45:00 PM 0 32 0 7.07 6.83 10.89
4/14/2022 2:00:00 PM 0 32 0 7.08 7.47 10.88
4/14/2022 2:15:00 PM 0 32 0 7.1 6.96 10.9
4/14/2022 2:30:00 PM 0 32 0 7.09 6.96 10.89
4/14/2022 2:45:00 PM 0 32 0 7.11 7.5 10.9
4/14/2022 3:00:00 PM 0 32 0 7.1 7.66 10.89
4/14/2022 3:15:00 PM 0 32 0 7.11 7.5 10.91
4/14/2022 3:30:00 PM 0 32 0 7.11 7.43 10.91
4/14/2022 3:45:00 PM 0 32 0 7.11 7.43 10.9
4/14/2022 4:00:00 PM 0 32 0 7.12 7.16 10.88
4/14/2022 4:15:00 PM 0 32 0 7.11 7.69 10.86
4/14/2022 4:30:00 PM 0 32 0 7.1 7.66 10.82
4/14/2022 4:45:00 PM 0 32 0 7.09 7.27 10.79
4/14/2022 5:00:00 PM 0 32 0 7.1 7.27 10.77
4/14/2022 5:15:00 PM 0 32 0 7.09 7.51 10.73
4/14/2022 5:30:00 PM 0 32 0 7.07 7.62 10.74
4/14/2022 5:45:00 PM 0 32 0 7.09 6.96 10.73
4/14/2022 6:00:00 PM 0 32 0 7.06 7.61 10.73
4/14/2022 6:15:00 PM 0 32 0 7.06 6.79 10.73
4/14/2022 6:30:00 PM 0 32 0 7.04 7.4 10.72
4/14/2022 6:45:00 PM 0 32 0 7.04 6.79 10.73
4/14/2022 7:00:00 PM 0 32 0 7.01 6.93 10.71
4/14/2022 7:15:00 PM 0 32 0 7 6.69 10.73
4/14/2022 7:30:00 PM 0 32 0 6.98 6.6 10.73
4/14/2022 7:45:00 PM 0 32 0 6.98 7.08 10.74
4/14/2022 8:00:00 PM 0 32 0 6.95 6.56 10.74
4/14/2022 8:15:00 PM 0 32 0 6.94 6.95 10.77
4/14/2022 8:30:00 PM 0 32 0 6.93 8.11 10.78
4/14/2022 8:45:00 PM 0 32 0 6.91 7.1 10.82
4/14/2022 9:00:00 PM 0 32 0 6.92 7.5 10.85
4/14/2022 9:15:00 PM 0 32 0 6.92 7.32 10.9
4/14/2022 9:30:00 PM 0 32 0 6.91 7.28 10.95
4/14/2022 9:45:00 PM 0 32 0 6.91 7.01 10.98
4/14/2022 10:00:00 PM 0 32 0 6.9 8.25 11.03
4/14/2022 10:15:00 PM 0 32 0 6.91 6.95 11.06
4/14/2022 10:30:00 PM 0 32 0 6.91 6.93 11.09
4/14/2022 10:45:00 PM 0 32 0 6.91 6.68 11.15
4/14/2022 11:00:00 PM 0 32 0 6.9 7.48 11.19
4/14/2022 11:15:00 PM 0 32 0 6.91 6.81 11.22
4/14/2022 11:30:00 PM 0 32 0 6.91 7.86 11.25
4/14/2022 11:45:00 PM 0 32 0 6.9 8.66 11.3
4/15/2022 12:00:00 AM 0 32 0 6.9 7.87 11.34
4/15/2022 12:15:00 AM 0 32 0 6.9 6.98 11.37
4/15/2022 12:30:00 AM 0 32 0 6.9 6.74 11.4
4/15/2022 12:45:00 AM 0 32 0 6.91 6.57 11.43
4/15/2022 1:00:00 AM 0 32 0 6.91 6.94 11.46
4/15/2022 1:15:00 AM 0 32 0 6.9 6.82 11.49
4/15/2022 1:30:00 AM 0 32 0 6.91 6.74 11.49
4/15/2022 1:45:00 AM 0 32 0 6.89 6.83 11.53
4/15/2022 2:00:00 AM 0 32 0 6.89 6.75 11.56
4/15/2022 2:15:00 AM 0 32 0 6.89 6.51 11.59
4/15/2022 2:30:00 AM 0 32 0 6.89 6.52 11.62
4/15/2022 2:45:00 AM 0 32 0 6.89 7.03 11.63
4/15/2022 3:00:00 AM 0 32 0 6.89 7.84 11.65
4/15/2022 3:15:00 AM 0 32 0 6.88 6.84 11.69
4/15/2022 3:30:00 AM 0 32 0 6.89 8.02 11.69
4/15/2022 3:45:00 AM 0 32 0 6.89 6.61 11.72
4/15/2022 4:00:00 AM 0 32 0 6.89 7.99 11.72
4/15/2022 4:15:00 AM 0 32 0 6.89 6.92 11.76
4/15/2022 4:30:00 AM 0 32 0 6.87 6.86 11.78
4/15/2022 4:45:00 AM 0 32 0 6.89 7.15 11.79
4/15/2022 5:00:00 AM 0 32 0 6.88 7.29 11.82
4/15/2022 5:15:00 AM 0 32 0 6.89 7.47 11.82
4/15/2022 5:30:00 AM 0 32 0 6.88 7.32 11.84
4/15/2022 5:45:00 AM 0 32 0 6.89 6.83 11.85
4/15/2022 6:00:00 AM 0 32 0 6.89 7.03 11.88
4/15/2022 6:15:00 AM 0 32 0 6.89 6.76 11.88
4/15/2022 6:30:00 AM 0 32 0 6.88 6.98 11.92
4/15/2022 6:45:00 AM 0 32 0 6.88 6.38 11.93
4/15/2022 7:00:00 AM 0 32 0 6.9 6.5 11.99
4/15/2022 7:15:00 AM 0 32 0 6.9 6.51 12.02
4/15/2022 7:30:00 AM 0 32 0 6.92 6.35 12.06
4/15/2022 7:45:00 AM 0 32 0 6.91 6.37 12.1
4/15/2022 8:00:00 AM 0 32 0 6.94 6.16 12.15
4/15/2022 8:15:00 AM 0 32 0 6.95 7.66 12.16
4/15/2022 8:30:00 AM 0 32 0 6.96 6.45 12.21
4/15/2022 8:45:00 AM 0 32 0 6.97 6.51 12.21
4/15/2022 9:00:00 AM 0 32 0 6.98 6.13 12.21
4/15/2022 9:15:00 AM 0 32 0 6.99 6.89 12.18
4/15/2022 9:30:00 AM 0 32 0 7.01 6.26 12.19
4/15/2022 9:45:00 AM 0 32 0 7.01 6.24 12.16
4/15/2022 10:00:00 AM 0 32 0 7.03 7.04 12.12
4/15/2022 10:15:00 AM 0 32 0 7.04 7.18 12.11
4/15/2022 10:30:00 AM 0 32 0 7.05 6.46 12.04
4/15/2022 10:45:00 AM 0 32 0 7.05 6.26 12.01
4/15/2022 11:00:00 AM 0 32 0 7.04 6.27 11.93
4/15/2022 11:15:00 AM 0 32 0 7.07 6.11 11.88
4/15/2022 11:30:00 AM 0 32 0 7.07 6.62 11.8
4/15/2022 11:45:00 AM 0 32 0 7.08 6.54 11.74
4/15/2022 12:00:00 PM 0 32 0 7.08 6.01 11.64
4/15/2022 12:15:00 PM 0 32 0 7.05 6.76 11.58
4/15/2022 12:30:00 PM 0 32 0 7.09 6.21 11.54
4/15/2022 12:45:00 PM 0 32 0 7.09 5.91 11.49
4/15/2022 1:00:00 PM 0 32 0 7.09 6.38 11.46
4/15/2022 1:15:00 PM 0 32 0 7.09 6.52 11.41
4/15/2022 1:30:00 PM 0 32 0 7.09 6.09 11.39
4/15/2022 1:45:00 PM 0 32 0 7.1 6.24 11.35
4/15/2022 2:00:00 PM 0 32 0 7.1 6.45 11.3
4/15/2022 2:15:00 PM 0 32 0 7.1 6.7 11.27
4/15/2022 2:30:00 PM 0 32 0 7.11 6.34 11.25
4/15/2022 2:45:00 PM 0 32 0 7.1 7.16 11.2
4/15/2022 3:00:00 PM 0 32 0 7.07 6.07 11.15
4/15/2022 3:15:00 PM 0 32 0 7.09 6.45 11.12
4/15/2022 3:30:00 PM 0 32 0 7.1 7.81 11.11
4/15/2022 3:45:00 PM 0 32 0 7.1 6.83 11.08
4/15/2022 4:00:00 PM 0 32 0 7.07 6.58 11.05
4/15/2022 4:15:00 PM 0 32 0 7.07 6.37 11.03
4/15/2022 4:30:00 PM 0 32 0 7.09 6.19 11.05
4/15/2022 4:45:00 PM 0 32 0 7.09 6.47 11.07
4/15/2022 5:00:00 PM 0 32 0 7.08 6.35 11.05
4/15/2022 5:15:00 PM 0 32 0 7.09 7.69 11.04
4/15/2022 5:30:00 PM 0 32 0 7.07 6.56 11.04
4/15/2022 5:45:00 PM 0 32 0 7.08 7.26 11.02
4/15/2022 6:00:00 PM 0 32 0 7.08 6.15 11.01
4/15/2022 6:15:00 PM 0 32 0 7.06 6.4 11.02
4/15/2022 6:30:00 PM 0 32 0 7.07 6.78 11
4/15/2022 6:45:00 PM 0 32 0 7.05 6.35 10.98
4/15/2022 7:00:00 PM 0 32 0 7.03 6.57 10.96
4/15/2022 7:15:00 PM 0 32 0 7.02 6.3 10.92
4/15/2022 7:30:00 PM 0 32 0 7 6.39 10.91
4/15/2022 7:45:00 PM 0 32 0 6.99 6.68 10.89
4/15/2022 8:00:00 PM 0 32 0 6.97 6.62 10.86
4/15/2022 8:15:00 PM 0 32 0 6.97 6.74 10.86
4/15/2022 8:30:00 PM 0 32 0 6.96 6.81 10.87
4/15/2022 8:45:00 PM 0 32 0 6.96 7.69 10.89
4/15/2022 9:00:00 PM 0 32 0 6.96 6.71 10.89
4/15/2022 9:15:00 PM 0 32 0 6.94 7.12 10.91
4/15/2022 9:30:00 PM 0 32 0 6.94 7.34 10.9
4/15/2022 9:45:00 PM 0 32 0 6.91 7.04 10.92
4/15/2022 10:00:00 PM 0 32 0 6.93 6.56 10.95
4/15/2022 10:15:00 PM 0 32 0 6.92 6.55 10.95
4/15/2022 10:30:00 PM 0 32 0 6.91 7.16 10.98
4/15/2022 10:45:00 PM 0 32 0 6.91 6.87 11.01
4/15/2022 11:00:00 PM 0 32 0 6.91 6.63 11.01
4/15/2022 11:15:00 PM 0 32 0 6.9 6.82 11.03
4/15/2022 11:30:00 PM 0 32 0 6.91 6.9 11.02
4/15/2022 11:45:00 PM 0 32 0 6.91 7.17 11.07
4/16/2022 12:00:00 AM 0 32 0 6.91 7.09 11.06
4/16/2022 12:15:00 AM 0 32 0 6.91 6.55 11.08
4/16/2022 12:30:00 AM 0 32 0 6.92 6.45 11.1
4/16/2022 12:45:00 AM 0 32 0 6.92 6.78 11.09
4/16/2022 1:00:00 AM 0 32 0 6.93 6.75 11.09
4/16/2022 1:15:00 AM 0 32 0 6.92 6.93 11.09
4/16/2022 1:30:00 AM 0 32 0 6.92 6.98 11.13
4/16/2022 1:45:00 AM 0 32 0 6.92 6.76 11.13
4/16/2022 2:00:00 AM 0 32 0 6.92 6.78 11.13
4/16/2022 2:15:00 AM 0 32 0 6.91 6.54 11.16
4/16/2022 2:30:00 AM 0 32 0 6.91 6.86 11.16
4/16/2022 2:45:00 AM 0 32 0 6.9 6.71 11.16
4/16/2022 3:00:00 AM 0 32 0 6.9 6.36 11.16
4/16/2022 3:15:00 AM 0 32 0 6.9 6.95 11.18
4/16/2022 3:30:00 AM 0 32 0 6.89 6.16 11.19
4/16/2022 3:45:00 AM 0 32 0 6.91 7.06 11.19
4/16/2022 4:00:00 AM 0 32 0 6.9 6.57 11.19
4/16/2022 4:15:00 AM 0 32 0 6.91 7.11 11.19
4/16/2022 4:30:00 AM 0 32 0 6.9 7.64 11.22
4/16/2022 4:45:00 AM 0 32 0 6.92 6.57 11.22
4/16/2022 5:00:00 AM 0 32 0 6.89 6.8 11.22
4/16/2022 5:15:00 AM 0 32 0 6.9 6.98 11.22
4/16/2022 5:30:00 AM 0 32 0 6.9 6.93 11.25
4/16/2022 5:45:00 AM 0 32 0 6.89 7.12 11.25
4/16/2022 6:00:00 AM 0 32 0 6.92 7 11.25
4/16/2022 6:15:00 AM 0 32 0 6.9 6.57 11.25
4/16/2022 6:30:00 AM 0 32 0 6.91 6.85 11.26
4/16/2022 6:45:00 AM 0 32 0 6.92 6.33 11.26
4/16/2022 7:00:00 AM 0 32 0 6.92 6.28 11.28
4/16/2022 7:15:00 AM 0 32 0 6.92 6.04 11.3
4/16/2022 7:30:00 AM 0 32 0 6.93 6.33 11.32
4/16/2022 7:45:00 AM 0 32 0 6.93 6.63 11.34
4/16/2022 8:00:00 AM 0 32 0 6.94 6.59 11.37
4/16/2022 8:15:00 AM 0 32 0 6.96 6.23 11.41
4/16/2022 8:30:00 AM 0 32 0 6.97 6.9 11.42
4/16/2022 8:45:00 AM 0 32 0 6.99 6.48 11.48
4/16/2022 9:00:00 AM 0 32 0 7.01 6.14 11.51
4/16/2022 9:15:00 AM 0 32 0 7.03 6.4 11.53
4/16/2022 9:30:00 AM 0 32 0 7.04 6.45 11.55
4/16/2022 9:45:00 AM 0 32 0 7.05 6.27 11.56
4/16/2022 10:00:00 AM 0 32 0 7.07 6.33 11.53
4/16/2022 10:15:00 AM 0 32 0 7.07 6.59 11.5
4/16/2022 10:30:00 AM 0 32 0 7.05 6.42 11.45
4/16/2022 10:45:00 AM 0 32 0 7.04 6.42 11.42
4/16/2022 11:00:00 AM 0 32 0 7.03 6.42 11.38
4/16/2022 11:15:00 AM 0 32 0 7.03 6.3 11.35
4/16/2022 11:30:00 AM 0 32 0 7.02 6.31 11.34
4/16/2022 11:45:00 AM 0 32 0 7 6.56 11.31
4/16/2022 12:00:00 PM 0 32 0 7 6.28 11.34
4/16/2022 12:15:00 PM 0 32 0 7 6.78 11.36
4/16/2022 12:30:00 PM 0 32 0 7.01 6.87 11.37
4/16/2022 12:45:00 PM 0 32 0 7 6.78 11.36
4/16/2022 1:00:00 PM 0 32 0 6.99 6.72 11.36
4/16/2022 1:15:00 PM 0 32 0 6.99 7.08 11.38
4/16/2022 1:30:00 PM 0 32 0 6.99 7.15 11.34
4/16/2022 1:45:00 PM 0 32 0 6.98 7.33 11.36
4/16/2022 2:00:00 PM 0 32 0 6.98 7.44 11.39
4/16/2022 2:15:00 PM 0 32 0 6.99 8.05 11.44
4/16/2022 2:30:00 PM 0 32 0 7 7.79 11.49
4/16/2022 2:45:00 PM 0 32 0 7.02 8.98 11.5
4/16/2022 3:00:00 PM 0 32 0 7 8.86 11.47
4/16/2022 3:15:00 PM 0 32 0 6.98 9.76 11.47
4/16/2022 3:30:00 PM 0 32 0 7 8.72 11.48
4/16/2022 3:45:00 PM 0 32 0 7.01 9.32 11.5
4/16/2022 4:00:00 PM 0 32 0 7.01 8.93 11.5
4/16/2022 4:15:00 PM 0 32 0 7.02 10.82 11.53
4/16/2022 4:30:00 PM 0 32 0 7.03 8.52 11.5
4/16/2022 4:45:00 PM 0 32 0 7.02 8.18 11.48
4/16/2022 5:00:00 PM 0 32 0 7.02 8.03 11.51
4/16/2022 5:15:00 PM 0 32 0 7.04 7.93 11.51
4/16/2022 5:30:00 PM 0 32 0 7.04 7.96 11.51
4/16/2022 5:45:00 PM 0 32 0 7.05 8.17 11.51
4/16/2022 6:00:00 PM 0 32 0 7.04 8.06 11.5
4/16/2022 6:15:00 PM 0 32 0 7.04 8.04 11.5
4/16/2022 6:30:00 PM 0 32 0 7.04 7.61 11.49
4/16/2022 6:45:00 PM 0 32 0 7.03 7.49 11.47
4/16/2022 7:00:00 PM 0 32 0 7.01 7.26 11.41
4/16/2022 7:15:00 PM 0 32 0 7 7.58 11.4
4/16/2022 7:30:00 PM 0 32 0 6.99 7 11.35
4/16/2022 7:45:00 PM 0 32 0 6.97 6.79 11.34
4/16/2022 8:00:00 PM 0 32 0 6.95 7.47 11.3
4/16/2022 8:15:00 PM 0 32 0 6.95 7.28 11.31
4/16/2022 8:30:00 PM 0 32 0 6.93 7.44 11.31
4/16/2022 8:45:00 PM 0 32 0 6.93 7.34 11.3
4/16/2022 9:00:00 PM 0 32 0 6.93 7.22 11.32
4/16/2022 9:15:00 PM 0 32 0 6.93 7.08 11.35
4/16/2022 9:30:00 PM 0 32 0 6.93 7.53 11.38
4/16/2022 9:45:00 PM 0 32 0 6.92 7.47 11.37
4/16/2022 10:00:00 PM 0 32 0 6.92 6.94 11.4
4/16/2022 10:15:00 PM 0 32 0 6.92 6.65 11.44
4/16/2022 10:30:00 PM 0 32 0 6.92 7.06 11.46
4/16/2022 10:45:00 PM 0 32 0 6.92 6.7 11.49
4/16/2022 11:00:00 PM 0 32 0 6.93 7.07 11.53
4/16/2022 11:15:00 PM 0 32 0 6.93 6.56 11.53
4/16/2022 11:30:00 PM 0 32 0 6.93 7.18 11.57
4/16/2022 11:45:00 PM 0 32 0 6.93 6.6 11.59
4/17/2022 12:00:00 AM 0 32 0 6.92 6.83 11.6
4/17/2022 12:15:00 AM 0 32 0 6.93 6.34 11.64
4/17/2022 12:30:00 AM 0 32 0 6.93 6.69 11.65
4/17/2022 12:45:00 AM 0 32 0 6.92 7.66 11.68
4/17/2022 1:00:00 AM 0 32 0 6.92 6.9 11.68
4/17/2022 1:15:00 AM 0 32 0 6.93 7.19 11.68
4/17/2022 1:30:00 AM 0 32 0 6.93 7.1 11.71
4/17/2022 1:45:00 AM 0 32 0 6.92 6.64 11.72
4/17/2022 2:00:00 AM 0 32 0 6.93 6.87 11.72
4/17/2022 2:15:00 AM 0 32 0 6.93 6.47 11.75
4/17/2022 2:30:00 AM 0 32 0 6.94 6.75 11.75
4/17/2022 2:45:00 AM 0 32 0 6.93 6.71 11.78
4/17/2022 3:00:00 AM 0 32 0 6.93 7.3 11.78
4/17/2022 3:15:00 AM 0 32 0 6.93 6.78 11.78
4/17/2022 3:30:00 AM 0 32 0 6.93 6.59 11.81
4/17/2022 3:45:00 AM 0 32 0 6.92 6.89 11.81
4/17/2022 4:00:00 AM 0 32 0 6.92 6.7 11.82
4/17/2022 4:15:00 AM 0 32 0 6.93 6.25 11.84
4/17/2022 4:30:00 AM 0 32 0 6.92 6.7 11.84
4/17/2022 4:45:00 AM 0 32 0 6.9 6.91 11.85
4/17/2022 5:00:00 AM 0 32 0 6.93 7.19 11.86
4/17/2022 5:15:00 AM 0 32 0 6.93 7.74 11.85
4/17/2022 5:30:00 AM 0 32 0 6.92 7.04 11.89
4/17/2022 5:45:00 AM 0 32 0 6.93 6.49 11.9
4/17/2022 6:00:00 AM 0 32 0 6.92 6.5 11.89
4/17/2022 6:15:00 AM 0 32 0 6.92 6.66 11.89
4/17/2022 6:30:00 AM 0 32 0 6.91 6.49 11.93
4/17/2022 6:45:00 AM 0 32 0 6.93 6.6 11.94
4/17/2022 7:00:00 AM 0 32 0 6.93 6.41 11.95
4/17/2022 7:15:00 AM 0 32 0 6.94 6.7 11.98
4/17/2022 7:30:00 AM 0 32 0 6.93 6.4 11.98
4/17/2022 7:45:00 AM 0 32 0 6.95 6.84 12.05
4/17/2022 8:00:00 AM 0 32 0 6.96 6.55 12.07
4/17/2022 8:15:00 AM 0 32 0 6.97 6.92 12.12
4/17/2022 8:30:00 AM 0 32 0 6.98 6.75 12.16
4/17/2022 8:45:00 AM 0 32 0 6.99 6.85 12.24
4/17/2022 9:00:00 AM 0 32 0 7.02 6.52 12.26
4/17/2022 9:15:00 AM 0 32 0 7.02 6.34 12.33
4/17/2022 9:30:00 AM 0 32 0 7.05 6.43 12.35
4/17/2022 9:45:00 AM 0 32 0 7.05 6.54 12.37
4/17/2022 10:00:00 AM 0 32 0 7.06 6.14 12.39
4/17/2022 10:15:00 AM 0 32 0 7.06 6.46 12.41
4/17/2022 10:30:00 AM 0 32 0 7.06 6.84 12.39
4/17/2022 10:45:00 AM 0 32 0 7.07 6.18 12.38
4/17/2022 11:00:00 AM 0 32 0 7.08 6.17 12.39
4/17/2022 11:15:00 AM 0 32 0 7.08 6.5 12.39
4/17/2022 11:30:00 AM 0 32 0 7.08 6.72 12.34
4/17/2022 11:45:00 AM 0 32 0 7.09 6.07 12.34
4/17/2022 12:00:00 PM 0 32 0 7.09 6.29 12.31
4/17/2022 12:15:00 PM 0 32 0 7.07 6.25 12.24
4/17/2022 12:30:00 PM 0 32 0 7.09 6.45 12.22
4/17/2022 12:45:00 PM 0 32 0 7.09 6.07 12.18
4/17/2022 1:00:00 PM 0 32 0 7.09 6.32 12.14
4/17/2022 1:15:00 PM 0 32 0 7.09 6.18 12.11
4/17/2022 1:30:00 PM 0 32 0 7.1 6.76 12.03
4/17/2022 1:45:00 PM 0 32 0 7.1 6.4 12
4/17/2022 2:00:00 PM 0 32 0 7.09 6.56 11.94
4/17/2022 2:15:00 PM 0 32 0 7.09 6.96 11.9
4/17/2022 2:30:00 PM 0 32 0 7.1 6.17 11.9
4/17/2022 2:45:00 PM 0 32 0 7.11 6.14 11.84
4/17/2022 3:00:00 PM 0 32 0 7.11 6.37 11.81
4/17/2022 3:15:00 PM 0 32 0 7.11 6.38 11.79
4/17/2022 3:30:00 PM 0 32 0 7.11 6.37 11.78
4/17/2022 3:45:00 PM 0 32 0 7.12 6.33 11.71
4/17/2022 4:00:00 PM 0 32 0 7.11 6.35 11.65
4/17/2022 4:15:00 PM 0 32 0 7.12 7.36 11.64
4/17/2022 4:30:00 PM 0 32 0 7.11 6.31 11.59
4/17/2022 4:45:00 PM 0 32 0 7.1 6.81 11.59
4/17/2022 5:00:00 PM 0 32 0 7.1 6.25 11.55
4/17/2022 5:15:00 PM 0 32 0 7.09 6.2 11.52
4/17/2022 5:30:00 PM 0 32 0 7.08 6.38 11.51
4/17/2022 5:45:00 PM 0 32 0 7.09 6.14 11.48
4/17/2022 6:00:00 PM 0 32 0 7.07 6.26 11.49
4/17/2022 6:15:00 PM 0 32 0 7.08 6.44 11.5
4/17/2022 6:30:00 PM 0 32 0 7.06 6.25 11.5
4/17/2022 6:45:00 PM 0 32 0 7.04 6.6 11.48
4/17/2022 7:00:00 PM 0 32 0 7.04 6.28 11.48
4/17/2022 7:15:00 PM 0 32 0 7.02 6.74 11.49
4/17/2022 7:30:00 PM 0 32 0 7.02 6 11.49
4/17/2022 7:45:00 PM 0 32 0 6.99 6.46 11.49
4/17/2022 8:00:00 PM 0 32 0 6.99 6.77 11.51
4/17/2022 8:15:00 PM 0 32 0 6.97 6.59 11.5
4/17/2022 8:30:00 PM 0 32 0 6.97 6.72 11.51
4/17/2022 8:45:00 PM 0 32 0 6.95 6.6 11.57
4/17/2022 9:00:00 PM 0 32 0 6.95 6.79 11.59
4/17/2022 9:15:00 PM 0 32 0 6.93 6.69 11.62
4/17/2022 9:30:00 PM 0 32 0 6.95 6.65 11.67
4/17/2022 9:45:00 PM 0 32 0 6.94 7.28 11.7
4/17/2022 10:00:00 PM 0 32 0 6.94 7.01 11.74
4/17/2022 10:15:00 PM 0 32 0 6.94 6.65 11.77
4/17/2022 10:30:00 PM 0 32 0 6.93 7.71 11.83
4/17/2022 10:45:00 PM 0 32 0 6.93 7.74 11.87
4/17/2022 11:00:00 PM 0 32 0 6.93 7.13 11.89
4/17/2022 11:15:00 PM 0 32 0 6.93 6.75 11.92
4/17/2022 11:30:00 PM 0 32 0 6.92 6.88 11.97
4/17/2022 11:45:00 PM 0 32 0 6.92 7.02 11.99
4/18/2022 12:00:00 AM 0 32 0 6.93 6.84 12.03
4/18/2022 12:15:00 AM 0 32 0 6.92 7.17 12.05
4/18/2022 12:30:00 AM 0 32 0 6.92 6.61 12.06
4/18/2022 12:45:00 AM 0 32 0 6.92 6.63 12.09
4/18/2022 1:00:00 AM 0 32 0 6.92 6.71 12.12
4/18/2022 1:15:00 AM 0 32 0 6.92 6.89 12.16
4/18/2022 1:30:00 AM 0 32 0 6.9 6.21 12.19
4/18/2022 1:45:00 AM 0 32 0 6.92 6.32 12.2
4/18/2022 2:00:00 AM 0 32 0 6.92 6.89 12.23
4/18/2022 2:15:00 AM 0 32 0 6.92 7.09 12.26
4/18/2022 2:30:00 AM 0 32 0 6.92 6.6 12.26
4/18/2022 2:45:00 AM 0 32 0 6.92 6.58 12.3
4/18/2022 3:00:00 AM 0 32 0 6.92 6.55 12.32
4/18/2022 3:15:00 AM 0 32 0 6.91 6.74 12.33
4/18/2022 3:30:00 AM 0 32 0 6.91 6.37 12.36
4/18/2022 3:45:00 AM 0 32 0 6.9 6.72 12.36
4/18/2022 4:00:00 AM 0 32 0 6.91 6.25 12.39
4/18/2022 4:15:00 AM 0 32 0 6.91 6.96 12.42
4/18/2022 4:30:00 AM 0 32 0 6.91 6.42 12.42
4/18/2022 4:45:00 AM 0 32 0 6.92 6.86 12.46
4/18/2022 5:00:00 AM 0 32 0 6.91 6.67 12.45
4/18/2022 5:15:00 AM 0 32 0 6.91 6.37 12.49
4/18/2022 5:30:00 AM 0 32 0 6.91 6.58 12.49
4/18/2022 5:45:00 AM 0 32 0 6.91 6.24 12.52
4/18/2022 6:00:00 AM 0 32 0 6.9 7.03 12.52
4/18/2022 6:15:00 AM 0 32 0 6.91 6.04 12.55
4/18/2022 6:30:00 AM 0 32 0 6.91 6.27 12.55
4/18/2022 6:45:00 AM 0 32 0 6.91 6 12.57
4/18/2022 7:00:00 AM 0 32 0 6.92 6.07 12.63
4/18/2022 7:15:00 AM 0 32 0 6.93 6.24 12.65
4/18/2022 7:30:00 AM 0 32 0 6.94 6.13 12.72
4/18/2022 7:45:00 AM 0 32 0 6.95 7.3 12.77
4/18/2022 8:00:00 AM 0 32 0 6.97 6.24 12.78
4/18/2022 8:15:00 AM 0 32 0 6.99 6.28 12.83
4/18/2022 8:30:00 AM 0 32 0 7 6.28 12.83
4/18/2022 8:45:00 AM 0 32 0 7.01 6.25 12.84
4/18/2022 9:00:00 AM 0 32 0 7.03 6.59 12.85
4/18/2022 9:15:00 AM 0 32 0 7.04 6.12 12.86
4/18/2022 9:30:00 AM 0 32 0 7.04 6.24 12.8
4/18/2022 9:45:00 AM 0 32 0 7.05 6.05 12.79
4/18/2022 10:00:00 AM 0 32 0 7.04 6.21 12.76
4/18/2022 10:15:00 AM 0 32 0 7.07 6.99 12.74
4/18/2022 10:30:00 AM 0 32 0 7.08 5.99 12.71
4/18/2022 10:45:00 AM 0 32 0 7.08 5.99 12.66
4/18/2022 11:00:00 AM 0 32 0 7.08 5.97 12.63
4/18/2022 11:15:00 AM 0 32 0 7.09 6.05 12.6
4/18/2022 11:30:00 AM 0 32 0 7.08 5.96 12.55
4/18/2022 11:45:00 AM 0 32 0 7.09 6.24 12.49
4/18/2022 12:00:00 PM 0 32 0 7.09 6.37 12.47
4/18/2022 12:15:00 PM 0 32 0 7.08 6.06 12.47
4/18/2022 12:30:00 PM 0 32 0 7.08 6.02 12.42
4/18/2022 12:45:00 PM 0 32 0 7.09 5.93 12.42
4/18/2022 1:00:00 PM 0 32 0 7.09 5.98 12.38
4/18/2022 1:15:00 PM 0 32 0 7.08 6.37 12.37
4/18/2022 1:30:00 PM 0 32 0 7.08 6.15 12.34
4/18/2022 1:45:00 PM 0 32 0 7.09 5.9 12.36
4/18/2022 2:00:00 PM 0 32 0 7.09 6.16 12.33
4/18/2022 2:15:00 PM 0 32 0 7.09 5.88 12.28
4/18/2022 2:30:00 PM 0 32 0 7.08 5.95 12.23
4/18/2022 2:45:00 PM 0 32 0 7.09 6.13 12.24
4/18/2022 3:00:00 PM 0 32 0 7.08 5.87 12.23
4/18/2022 3:15:00 PM 0 32 0 7.08 6.52 12.2
4/18/2022 3:30:00 PM 0 32 0 7.07 6.16 12.17
4/18/2022 3:45:00 PM 0 32 0 7.07 6.01 12.17
4/18/2022 4:00:00 PM 0 32 0 7.05 5.9 12.14
4/18/2022 4:15:00 PM 0 32 0 7.05 5.79 12.17
4/18/2022 4:30:00 PM 0 32 0 7.05 5.87 12.15
4/18/2022 4:45:00 PM 0 32 0 7.03 6.34 12.17
4/18/2022 5:00:00 PM 0 32 0 7.02 6.34 12.18
4/18/2022 5:15:00 PM 0 32 0 7.02 6.84 12.18
4/18/2022 5:30:00 PM 0 32 0 7 6.3 12.22
4/18/2022 5:45:00 PM 0 32 0 7 6.34 12.26
4/18/2022 6:00:00 PM 0 32 0 7 6.81 12.31
4/18/2022 6:15:00 PM 0 32 0 7 6.23 12.32
4/18/2022 6:30:00 PM 0 32 0 6.99 6.4 12.33
4/18/2022 6:45:00 PM 0 32 0 6.98 6.63 12.34
4/18/2022 7:00:00 PM 0 32 0 6.98 6.06 12.36
4/18/2022 7:15:00 PM 0 32 0 6.97 6.06 12.37
4/18/2022 7:30:00 PM 0 32 0 6.96 5.76 12.38
4/18/2022 7:45:00 PM 0 32 0 6.96 6.24 12.41
4/18/2022 8:00:00 PM 0 32 0 6.95 5.92 12.41
4/18/2022 8:15:00 PM 0 32 0 6.94 7.11 12.41
4/18/2022 8:30:00 PM 0 32 0 6.94 6.56 12.42
4/18/2022 8:45:00 PM 0 32 0 6.93 6.68 12.41
4/18/2022 9:00:00 PM 0 32 0 6.92 6.37 12.43
4/18/2022 9:15:00 PM 0 32 0 6.93 6.54 12.43
4/18/2022 9:30:00 PM 0 32 0 6.92 6.15 12.42
4/18/2022 9:45:00 PM 0 32 0 6.92 6.74 12.43
4/18/2022 10:00:00 PM 0 32 0 6.92 6.55 12.42
4/18/2022 10:15:00 PM 0 32 0 6.92 6.4 12.43
4/18/2022 10:30:00 PM 0 32 0 6.92 6.43 12.42
4/18/2022 10:45:00 PM 0 32 0 6.92 6.15 12.39
4/18/2022 11:00:00 PM 0 32 0 6.92 6.6 12.38
4/18/2022 11:15:00 PM 0 32 0 6.91 7.18 12.38
4/18/2022 11:30:00 PM 0 32 0 6.92 6.34 12.38
4/18/2022 11:45:00 PM 0 32 0 6.91 6.41 12.38
4/19/2022 12:00:00 AM 0 32 0 6.91 6.32 12.38
4/19/2022 12:15:00 AM 0 32 0 6.92 6.61 12.36
4/19/2022 12:30:00 AM 0 32 0 6.91 6.95 12.37
4/19/2022 12:45:00 AM 0 32 0 6.91 7.09 12.33
4/19/2022 1:00:00 AM 0 32 0 6.91 6.48 12.33
4/19/2022 1:15:00 AM 0 32 0 6.92 6.38 12.32
4/19/2022 1:30:00 AM 0 32 0 6.91 7.97 12.31
4/19/2022 1:45:00 AM 0 32 0 6.91 6.58 12.31
4/19/2022 2:00:00 AM 0 32 0 6.91 6.37 12.28
4/19/2022 2:15:00 AM 0 32 0 6.91 6.27 12.29
4/19/2022 2:30:00 AM 0 32 0 6.92 6.42 12.29
4/19/2022 2:45:00 AM 0 32 0 6.91 6.1 12.29
4/19/2022 3:00:00 AM 0 32 0 6.91 6.58 12.25
4/19/2022 3:15:00 AM 0 32 0 6.92 6.36 12.24
4/19/2022 3:30:00 AM 0 32 0 6.91 6.05 12.24
4/19/2022 3:45:00 AM 0 32 0 6.91 6.11 12.24
4/19/2022 4:00:00 AM 0 32 0 6.9 6.09 12.24
4/19/2022 4:15:00 AM 0 32 0 6.91 6.36 12.23
4/19/2022 4:30:00 AM 0 32 0 6.92 6.23 12.22
4/19/2022 4:45:00 AM 0 32 0 6.91 6.43 12.19
4/19/2022 5:00:00 AM 0 32 0 6.92 6.56 12.19
4/19/2022 5:15:00 AM 0 32 0 6.91 6.27 12.18
4/19/2022 5:30:00 AM 0 32 0 6.92 7.04 12.18
4/19/2022 5:45:00 AM 0 32 0 6.92 6.43 12.19
4/19/2022 6:00:00 AM 0 32 0 6.93 7.12 12.19
4/19/2022 6:15:00 AM 0 32 0 6.92 6.68 12.18
4/19/2022 6:30:00 AM 0 32 0 6.92 6.45 12.15
4/19/2022 6:45:00 AM 0 32 0 6.93 6.31 12.16
4/19/2022 7:00:00 AM 0 32 0 6.93 6.55 12.17
4/19/2022 7:15:00 AM 0 32 0 6.94 6.29 12.19
4/19/2022 7:30:00 AM 0 32 0 6.94 6.65 12.21
4/19/2022 7:45:00 AM 0 32 0 6.95 7.06 12.26
4/19/2022 8:00:00 AM 0 32 0 6.96 6.35 12.26
4/19/2022 8:15:00 AM 0 32 0 6.99 6.54 12.31
4/19/2022 8:30:00 AM 0 32 0 6.99 6.32 12.34
4/19/2022 8:45:00 AM 0 32 0 7.01 6.19 12.38
4/19/2022 9:00:00 AM 0 32 0 6.99 6.4 12.37
4/19/2022 9:15:00 AM 0 32 0 7.04 6.67 12.43
4/19/2022 9:30:00 AM 0 32 0 7.04 5.88 12.42
4/19/2022 9:45:00 AM 0 32 0 7.05 6.19 12.43
4/19/2022 10:00:00 AM 0 32 0 7.06 6.51 12.44
4/19/2022 10:15:00 AM 0 32 0 7.05 6.39 12.42
4/19/2022 10:30:00 AM 0 32 0 7.07 6.42 12.42
4/19/2022 10:45:00 AM 0 32 0 7.06 6.05 12.44
4/19/2022 11:00:00 AM 0 32 0 7.07 6.07 12.42
4/19/2022 11:15:00 AM 0 32 0 7.08 6.17 12.43
4/19/2022 11:30:00 AM 0 32 0 7.08 6.31 12.43
4/19/2022 11:45:00 AM 0 32 0 7.09 6.12 12.43
4/19/2022 12:00:00 PM 0 32 0 7.09 6.34 12.39
4/19/2022 12:15:00 PM 0 32 0 7.09 6.51 12.36
4/19/2022 12:30:00 PM 0 32 0 7.1 6.36 12.36
4/19/2022 12:45:00 PM 0 32 0 7.11 6.02 12.33
4/19/2022 1:00:00 PM 0 32 0 7.1 6.23 12.28
4/19/2022 1:15:00 PM 5.71 42.278 0.049 7.46 3.09 11.79
4/19/2022 1:30:00 PM 5.82 42.476 0.048 7.26 2.16 11.75
4/19/2022 1:45:00 PM 5.9 42.62 0.048 7.21 2.22 11.71
4/19/2022 2:00:00 PM 6.05 42.89 0.049 7.18 2.27 11.69
4/19/2022 2:15:00 PM 6.13 43.034 0.049 7.15 2.19 11.67
4/19/2022 2:30:00 PM 6.21 43.178 0.046 7.13 2.22 11.65
4/19/2022 2:45:00 PM 6.24 43.232 0.047 7.1 2.3 11.62
4/19/2022 3:00:00 PM 6.29 43.322 0.047 7.08 2.19 11.61
4/19/2022 3:15:00 PM 6.29 43.322 0.047 7.06 2 11.59
4/19/2022 3:30:00 PM 6.31 43.358 0.048 7.05 2.3 11.58
4/19/2022 3:45:00 PM 6.42 43.556 0.05 7.03 1.97 11.57
4/19/2022 4:00:00 PM 6.43 43.574 0.048 7.01 2.01 11.55
4/19/2022 4:15:00 PM 6.43 43.574 0.048 6.99 2.08 11.55
4/19/2022 4:30:00 PM 6.41 43.538 0.049 6.99 2.15 11.53
4/19/2022 4:45:00 PM 6.37 43.466 0.049 6.97 2.37 11.52
4/19/2022 5:00:00 PM 6.31 43.358 0.05 6.96 2.61 11.52
4/19/2022 5:15:00 PM 6.26 43.268 0.048 6.94 2.17 11.52
4/19/2022 5:30:00 PM 6.21 43.178 0.049 6.93 2.77 11.53
4/19/2022 5:45:00 PM 6.16 43.088 0.05 6.92 4.84 11.51
4/19/2022 6:00:00 PM 6.12 43.016 0.05 6.91 5.22 11.52
4/19/2022 6:15:00 PM 6.05 42.89 0.05 6.9 4.36 11.52
4/19/2022 6:30:00 PM 5.97 42.746 0.049 6.88 3.25 11.51
4/19/2022 6:45:00 PM 5.89 42.602 0.05 6.87 3.08 11.5
4/19/2022 7:00:00 PM 5.81 42.458 0.048 6.86 2.58 11.49
4/19/2022 7:15:00 PM 5.74 42.332 0.051 6.85 2.37 11.48
4/19/2022 7:30:00 PM 5.65 42.17 0.05 6.83 2.28 11.46
4/19/2022 7:45:00 PM 5.54 41.972 0.051 6.81 3.08 11.46
4/19/2022 8:00:00 PM 5.46 41.828 0.052 6.79 2.48 11.45
4/19/2022 8:15:00 PM 5.39 41.702 0.051 6.78 2.23 11.47
4/19/2022 8:30:00 PM 5.34 41.612 0.051 6.77 2.52 11.47
4/19/2022 8:45:00 PM 5.29 41.522 0.049 6.75 2.36 11.48
4/19/2022 9:00:00 PM 5.24 41.432 0.05 6.73 2.38 11.5
4/19/2022 9:15:00 PM 5.18 41.324 0.052 6.73 2.47 11.52
4/19/2022 9:30:00 PM 5.14 41.252 0.054 6.72 2.28 11.53
4/19/2022 9:45:00 PM 5.09 41.162 0.051 6.73 2.12 11.55
4/19/2022 10:00:00 PM 5.04 41.072 0.049 6.71 2.34 11.57
4/19/2022 10:15:00 PM 4.99 40.982 0.053 6.7 2.23 11.59
4/19/2022 10:30:00 PM 4.94 40.892 0.053 6.7 2.21 11.61
4/19/2022 10:45:00 PM 4.9 40.82 0.052 6.68 2.11 11.63
4/19/2022 11:00:00 PM 4.86 40.748 0.054 6.69 2.6 11.64
4/19/2022 11:15:00 PM 4.82 40.676 0.055 6.66 2.16 11.66
4/19/2022 11:30:00 PM 4.78 40.604 0.056 6.69 2.07 11.67
4/19/2022 11:45:00 PM 4.74 40.532 0.053 6.68 2.23 11.69
4/20/2022 12:00:00 AM 4.71 40.478 0.053 6.69 2.1 11.71
4/20/2022 12:15:00 AM 4.69 40.442 0.055 6.68 2.32 11.71
4/20/2022 12:30:00 AM 4.67 40.406 0.053 6.68 2.4 11.73
4/20/2022 12:45:00 AM 4.64 40.352 0.053 6.69 2.26 11.73
4/20/2022 1:00:00 AM 4.61 40.298 0.053 6.7 2.05 11.75
4/20/2022 1:15:00 AM 4.58 40.244 0.053 6.7 2 11.76
4/20/2022 1:30:00 AM 4.55 40.19 0.053 6.69 1.98 11.78
4/20/2022 1:45:00 AM 4.53 40.154 0.052 6.69 1.93 11.79
4/20/2022 2:00:00 AM 4.53 40.154 0.051 6.69 1.99 11.79
4/20/2022 2:15:00 AM 4.5 40.1 0.053 6.68 2.17 11.8
4/20/2022 2:30:00 AM 4.5 40.1 0.054 6.68 1.94 11.81
4/20/2022 2:45:00 AM 4.49 40.082 0.053 6.66 2.03 11.81
4/20/2022 3:00:00 AM 4.49 40.082 0.053 6.69 2.15 11.82
4/20/2022 3:15:00 AM 4.5 40.1 0.053 6.69 1.9 11.81
4/20/2022 3:30:00 AM 4.49 40.082 0.053 6.7 2.16 11.82
4/20/2022 3:45:00 AM 4.48 40.064 0.052 6.71 2.12 11.82
4/20/2022 4:00:00 AM 4.46 40.028 0.054 6.69 2.02 11.83
4/20/2022 4:15:00 AM 4.45 40.01 0.054 6.69 1.86 11.84
4/20/2022 4:30:00 AM 4.43 39.974 0.055 6.69 2.04 11.85
4/20/2022 4:45:00 AM 4.4 39.92 0.054 6.69 1.89 11.85
4/20/2022 5:00:00 AM 4.39 39.902 0.053 6.67 1.82 11.86
4/20/2022 5:15:00 AM 4.36 39.848 0.055 6.69 2.03 11.87
4/20/2022 5:30:00 AM 4.34 39.812 0.054 6.68 2.09 11.88
4/20/2022 5:45:00 AM 4.33 39.794 0.054 6.69 1.72 11.88
4/20/2022 6:00:00 AM 4.33 39.794 0.053 6.7 2.1 11.89
4/20/2022 6:15:00 AM 4.32 39.776 0.053 6.69 2.02 11.9
4/20/2022 6:30:00 AM 4.33 39.794 0.054 6.7 2.1 11.9
4/20/2022 6:45:00 AM 4.33 39.794 0.054 6.66 2.02 11.93
4/20/2022 7:00:00 AM 4.33 39.794 0.053 6.69 1.91 11.96
4/20/2022 7:15:00 AM 4.34 39.812 0.055 6.71 2.05 12
4/20/2022 7:30:00 AM 4.37 39.866 0.054 6.71 1.89 12.05
4/20/2022 7:45:00 AM 4.38 39.884 0.053 6.71 1.88 12.08
4/20/2022 8:00:00 AM 4.39 39.902 0.053 6.71 1.95 12.12
4/20/2022 8:15:00 AM 4.42 39.956 0.052 6.75 1.95 12.16
4/20/2022 8:30:00 AM 4.48 40.064 0.053 6.76 2.03 12.18
4/20/2022 8:45:00 AM 4.59 40.262 0.052 6.79 2.1 12.2
4/20/2022 9:00:00 AM 4.67 40.406 0.053 6.82 1.95 12.21
4/20/2022 9:15:00 AM 4.74 40.532 0.052 6.83 2.21 12.2
4/20/2022 9:30:00 AM 4.9 40.82 0.053 6.83 2.12 12.19
4/20/2022 9:45:00 AM 5.04 41.072 0.052 6.84 1.78 12.17
4/20/2022 10:00:00 AM 5.23 41.414 0.052 6.86 1.82 12.14
4/20/2022 10:15:00 AM 5.42 41.756 0.051 6.86 2.02 12.11
4/20/2022 10:30:00 AM 5.6 42.08 0.051 6.86 1.98 12.09
4/20/2022 10:45:00 AM 5.8 42.44 0.052 6.85 1.9 12.04
4/20/2022 11:00:00 AM 6.01 42.818 0.052 6.89 1.85 11.98
4/20/2022 11:15:00 AM 6.22 43.196 0.051 6.88 2.16 11.93
4/20/2022 11:30:00 AM 6.44 43.592 0.052 6.87 1.82 11.88
4/20/2022 11:45:00 AM 6.67 44.006 0.052 6.87 1.98 11.85
4/20/2022 12:00:00 PM 6.92 44.456 0.051 6.91 1.83 11.78
4/20/2022 12:15:00 PM 7.17 44.906 0.051 6.92 2.05 11.72
4/20/2022 12:30:00 PM 7.42 45.356 0.052 6.91 1.84 11.64
4/20/2022 12:45:00 PM 7.68 45.824 0.051 6.92 2.09 11.58
4/20/2022 1:00:00 PM 7.93 46.274 0.051 6.92 2.05 11.5
4/20/2022 1:15:00 PM 8.19 46.742 0.051 6.92 1.95 11.45
4/20/2022 1:30:00 PM 8.44 47.192 0.051 6.92 1.95 11.36
4/20/2022 1:45:00 PM 8.67 47.606 0.051 6.91 1.91 11.31
4/20/2022 2:00:00 PM 8.89 48.002 0.051 6.93 2.11 11.24
4/20/2022 2:15:00 PM 9.12 48.416 0.051 6.93 1.96 11.18
4/20/2022 2:30:00 PM 9.33 48.794 0.051 6.93 2.26 11.12
4/20/2022 2:45:00 PM 9.52 49.136 0.051 6.93 2.31 11.05
4/20/2022 3:00:00 PM 9.67 49.406 0.052 6.92 1.99 11
4/20/2022 3:15:00 PM 9.83 49.694 0.051 6.94 2.06 10.95
4/20/2022 3:30:00 PM 9.96 49.928 0.051 6.94 2.48 10.9
4/20/2022 3:45:00 PM 10.04 50.072 0.051 6.93 2.33 10.86
4/20/2022 4:00:00 PM 10.1 50.18 0.051 6.89 3.15 10.83
4/20/2022 4:15:00 PM 10.17 50.306 0.052 6.95 2.32 10.81
4/20/2022 4:30:00 PM 10.23 50.414 0.051 6.94 2.45 10.78
4/20/2022 4:45:00 PM 10.24 50.432 0.051 6.94 2.28 10.75
4/20/2022 5:00:00 PM 10.23 50.414 0.052 6.93 2.26 10.74
4/20/2022 5:15:00 PM 10.19 50.342 0.052 6.93 2.5 10.72
4/20/2022 5:30:00 PM 10.13 50.234 0.051 6.92 2.33 10.7
4/20/2022 5:45:00 PM 10.04 50.072 0.052 6.92 2.37 10.7
4/20/2022 6:00:00 PM 9.92 49.856 0.052 6.91 2.4 10.69
4/20/2022 6:15:00 PM 9.79 49.622 0.052 6.89 2.47 10.68
4/20/2022 6:30:00 PM 9.65 49.37 0.052 6.88 2.25 10.69
4/20/2022 6:45:00 PM 9.51 49.118 0.053 6.88 2.61 10.69
4/20/2022 7:00:00 PM 9.37 48.866 0.052 6.85 2.41 10.69
4/20/2022 7:15:00 PM 9.22 48.596 0.053 6.84 2.15 10.69
4/20/2022 7:30:00 PM 9.07 48.326 0.053 6.83 2.33 10.7
4/20/2022 7:45:00 PM 8.9 48.02 0.053 6.82 2.13 10.7
4/20/2022 8:00:00 PM 8.72 47.696 0.053 6.81 2.48 10.72
4/20/2022 8:15:00 PM 8.54 47.372 0.053 6.79 2.68 10.73
4/20/2022 8:30:00 PM 8.37 47.066 0.054 6.75 2.66 10.76
4/20/2022 8:45:00 PM 8.2 46.76 0.053 6.76 2.32 10.76
4/20/2022 9:00:00 PM 8.04 46.472 0.055 6.75 2.74 10.82
4/20/2022 9:15:00 PM 7.88 46.184 0.055 6.72 2.86 10.86
4/20/2022 9:30:00 PM 7.72 45.896 0.054 6.75 2.44 10.9
4/20/2022 9:45:00 PM 7.56 45.608 0.055 6.75 2.58 10.94
4/20/2022 10:00:00 PM 7.41 45.338 0.055 6.73 2.67 10.99
4/20/2022 10:15:00 PM 7.26 45.068 0.055 6.73 2.12 11.03
4/20/2022 10:30:00 PM 7.11 44.798 0.055 6.73 2.6 11.08
4/20/2022 10:45:00 PM 6.97 44.546 0.056 6.72 2.55 11.11
4/20/2022 11:00:00 PM 6.84 44.312 0.057 6.71 2.43 11.15
4/20/2022 11:15:00 PM 6.74 44.132 0.057 6.72 2.64 11.19
4/20/2022 11:30:00 PM 6.65 43.97 0.056 6.72 2.34 11.22
4/20/2022 11:45:00 PM 6.54 43.772 0.057 6.69 2.34 11.25
4/21/2022 12:00:00 AM 6.44 43.592 0.057 6.7 2.37 11.28
4/21/2022 12:15:00 AM 6.34 43.412 0.057 6.7 2.46 11.3
4/21/2022 12:30:00 AM 6.25 43.25 0.056 6.7 2.38 11.33
4/21/2022 12:45:00 AM 6.17 43.106 0.057 6.7 2.38 11.36
4/21/2022 1:00:00 AM 6.09 42.962 0.057 6.68 2.24 11.37
4/21/2022 1:15:00 AM 6.02 42.836 0.056 6.69 2.47 11.4
4/21/2022 1:30:00 AM 5.95 42.71 0.056 6.69 2.43 11.44
4/21/2022 1:45:00 AM 5.89 42.602 0.056 6.69 2.39 11.44
4/21/2022 2:00:00 AM 5.82 42.476 0.056 6.69 2.38 11.48
4/21/2022 2:15:00 AM 5.75 42.35 0.055 6.69 2.29 11.5
4/21/2022 2:30:00 AM 5.69 42.242 0.056 6.69 2.56 11.53
4/21/2022 2:45:00 AM 5.63 42.134 0.055 6.69 2.4 11.53
4/21/2022 3:00:00 AM 5.57 42.026 0.055 6.68 2.52 11.53
4/21/2022 3:15:00 AM 5.53 41.954 0.055 6.68 2.19 11.56
4/21/2022 3:30:00 AM 5.5 41.9 0.055 6.66 2.33 11.57
4/21/2022 3:45:00 AM 5.46 41.828 0.055 6.69 2.12 11.6
4/21/2022 4:00:00 AM 5.44 41.792 0.055 6.68 2.31 11.58
4/21/2022 4:15:00 AM 5.41 41.738 0.054 6.68 2.82 11.61
4/21/2022 4:30:00 AM 5.4 41.72 0.054 6.69 2.06 11.61
4/21/2022 4:45:00 AM 5.39 41.702 0.054 6.68 2.06 11.61
4/21/2022 5:00:00 AM 5.38 41.684 0.054 6.69 2.14 11.61
4/21/2022 5:15:00 AM 5.38 41.684 0.054 6.68 2.09 11.62
4/21/2022 5:30:00 AM 5.38 41.684 0.054 6.69 2.34 11.61
4/21/2022 5:45:00 AM 5.39 41.702 0.054 6.7 2.19 11.6
4/21/2022 6:00:00 AM 5.4 41.72 0.054 6.7 2.09 11.61
4/21/2022 6:15:00 AM 5.41 41.738 0.053 6.69 2.4 11.6
4/21/2022 6:30:00 AM 5.41 41.738 0.053 6.69 2.13 11.6
4/21/2022 6:45:00 AM 5.41 41.738 0.053 6.71 2.05 11.61
4/21/2022 7:00:00 AM 5.41 41.738 0.053 6.71 2.18 11.63
4/21/2022 7:15:00 AM 5.45 41.81 0.052 6.73 2.13 11.66
4/21/2022 7:30:00 AM 5.52 41.936 0.053 6.75 1.96 11.72
4/21/2022 7:45:00 AM 5.58 42.044 0.053 6.76 1.99 11.74
4/21/2022 8:00:00 AM 5.65 42.17 0.052 6.77 2.01 11.73
4/21/2022 8:15:00 AM 5.72 42.296 0.052 6.78 1.86 11.77
4/21/2022 8:30:00 AM 5.82 42.476 0.052 6.8 1.87 11.78
4/21/2022 8:45:00 AM 5.91 42.638 0.051 6.79 2.11 11.75
4/21/2022 9:00:00 AM 6.04 42.872 0.052 6.83 1.89 11.8
4/21/2022 9:15:00 AM 6.14 43.052 0.052 6.84 2.38 11.76
4/21/2022 9:30:00 AM 6.29 43.322 0.051 6.85 1.98 11.8
4/21/2022 9:45:00 AM 6.41 43.538 0.051 6.87 1.85 11.77
4/21/2022 10:00:00 AM 6.52 43.736 0.051 6.88 1.74 11.76
4/21/2022 10:15:00 AM 6.56 43.808 0.05 6.89 1.76 11.72
4/21/2022 10:30:00 AM 6.58 43.844 0.05 6.87 1.99 11.68
4/21/2022 10:45:00 AM 6.64 43.952 0.05 6.88 1.94 11.66
4/21/2022 11:00:00 AM 6.69 44.042 0.05 6.88 1.62 11.61
4/21/2022 11:15:00 AM 6.76 44.168 0.05 6.85 2.09 11.6
4/21/2022 11:30:00 AM 6.85 44.33 0.051 6.88 2.32 11.57
4/21/2022 11:45:00 AM 6.93 44.474 0.05 6.89 1.75 11.57
4/21/2022 12:00:00 PM 6.97 44.546 0.05 6.89 1.82 11.54
4/21/2022 12:15:00 PM 7 44.6 0.05 6.89 1.98 11.52
4/21/2022 12:30:00 PM 7.03 44.654 0.05 6.86 2.04 11.47
4/21/2022 12:45:00 PM 7.06 44.708 0.05 6.87 1.78 11.44
4/21/2022 1:00:00 PM 7.09 44.762 0.049 6.85 2.1 11.41
4/21/2022 1:15:00 PM 7.1 44.78 0.05 6.87 2.13 11.38
4/21/2022 1:30:00 PM 7.12 44.816 0.049 6.86 2.16 11.36
4/21/2022 1:45:00 PM 7.15 44.87 0.049 6.84 2.13 11.35
4/21/2022 2:00:00 PM 7.18 44.924 0.05 6.84 1.97 11.33
4/21/2022 2:15:00 PM 7.21 44.978 0.049 6.85 2.07 11.34
4/21/2022 2:30:00 PM 7.25 45.05 0.049 6.85 2.15 11.34
4/21/2022 2:45:00 PM 7.28 45.104 0.049 6.84 2.1 11.34
4/21/2022 3:00:00 PM 7.31 45.158 0.05 6.83 2.17 11.31
4/21/2022 3:15:00 PM 7.32 45.176 0.049 6.85 2.1 11.29
4/21/2022 3:30:00 PM 7.33 45.194 0.05 6.85 1.93 11.28
4/21/2022 3:45:00 PM 7.35 45.23 0.05 6.85 1.95 11.28
4/21/2022 4:00:00 PM 7.37 45.266 0.049 6.84 1.92 11.28
4/21/2022 4:15:00 PM 7.38 45.284 0.05 6.85 2.1 11.25
4/21/2022 4:30:00 PM 7.39 45.302 0.05 6.84 2.2 11.25
4/21/2022 4:45:00 PM 7.39 45.302 0.05 6.83 2.18 11.23
4/21/2022 5:00:00 PM 7.4 45.32 0.051 6.83 1.87 11.23
4/21/2022 5:15:00 PM 7.4 45.32 0.051 6.81 2.32 11.19
4/21/2022 5:30:00 PM 7.4 45.32 0.051 6.82 1.82 11.19
4/21/2022 5:45:00 PM 7.41 45.338 0.05 6.81 2.3 11.18
4/21/2022 6:00:00 PM 7.42 45.356 0.051 6.82 2.33 11.16
4/21/2022 6:15:00 PM 7.44 45.392 0.05 6.8 2.14 11.16
4/21/2022 6:30:00 PM 7.45 45.41 0.05 6.81 2.07 11.17
4/21/2022 6:45:00 PM 7.47 45.446 0.051 6.8 2.19 11.16
4/21/2022 7:00:00 PM 7.48 45.464 0.05 6.81 2.18 11.14
4/21/2022 7:15:00 PM 7.49 45.482 0.051 6.8 2.26 11.12
4/21/2022 7:30:00 PM 7.49 45.482 0.051 6.76 2.22 11.11
4/21/2022 7:45:00 PM 7.49 45.482 0.051 6.78 2.27 11.08
4/21/2022 8:00:00 PM 7.48 45.464 0.051 6.76 2.19 11.07
4/21/2022 8:15:00 PM 7.45 45.41 0.051 6.74 2.08 11.04
4/21/2022 8:30:00 PM 7.43 45.374 0.051 6.74 2.21 11.02
4/21/2022 8:45:00 PM 7.4 45.32 0.051 6.73 2.38 11.01
4/21/2022 9:00:00 PM 7.39 45.302 0.051 6.71 3.18 11.02
4/21/2022 9:15:00 PM 7.38 45.284 0.051 6.72 3.67 11.02
4/21/2022 9:30:00 PM 7.37 45.266 0.051 6.7 2.77 11.01
4/21/2022 9:45:00 PM 7.34 45.212 0.051 6.68 2.8 11.03
4/21/2022 10:00:00 PM 7.32 45.176 0.051 6.7 2.35 11.02
4/21/2022 10:15:00 PM 7.32 45.176 0.051 6.7 2.35 11.03
4/21/2022 10:30:00 PM 7.31 45.158 0.051 6.7 2.41 11.03
4/21/2022 10:45:00 PM 7.29 45.122 0.051 6.69 2.16 11.04
4/21/2022 11:00:00 PM 7.26 45.068 0.051 6.69 2.17 11.05
4/21/2022 11:15:00 PM 7.22 44.996 0.051 6.67 2.51 11.05
4/21/2022 11:30:00 PM 7.2 44.96 0.051 6.69 2.5 11.06
4/21/2022 11:45:00 PM 7.19 44.942 0.051 6.67 2.58 11.06
4/22/2022 12:00:00 AM 7.17 44.906 0.051 6.68 2.44 11.07
4/22/2022 12:15:00 AM 7.14 44.852 0.052 6.68 2.38 11.09
4/22/2022 12:30:00 AM 7.11 44.798 0.051 6.69 2.25 11.1
4/22/2022 12:45:00 AM 7.08 44.744 0.051 6.66 2.26 11.1
4/22/2022 1:00:00 AM 7.05 44.69 0.052 6.67 2.35 11.1
4/22/2022 1:15:00 AM 7.02 44.636 0.051 6.67 2.67 11.12
4/22/2022 1:30:00 AM 6.98 44.564 0.052 6.67 2.1 11.13
4/22/2022 1:45:00 AM 6.94 44.492 0.051 6.68 2.44 11.14
4/22/2022 2:00:00 AM 6.9 44.42 0.052 6.67 2.3 11.15
4/22/2022 2:15:00 AM 6.87 44.366 0.051 6.68 2.39 11.16
4/22/2022 2:30:00 AM 6.84 44.312 0.051 6.68 2.38 11.16
4/22/2022 2:45:00 AM 6.8 44.24 0.052 6.66 2.47 11.18
4/22/2022 3:00:00 AM 6.76 44.168 0.051 6.66 2.1 11.2
4/22/2022 3:15:00 AM 6.72 44.096 0.051 6.66 2.03 11.2
4/22/2022 3:30:00 AM 6.67 44.006 0.051 6.66 2.62 11.23
4/22/2022 3:45:00 AM 6.63 43.934 0.05 6.64 2.45 11.23
4/22/2022 4:00:00 AM 6.59 43.862 0.05 6.67 2.39 11.25
4/22/2022 4:15:00 AM 6.55 43.79 0.051 6.67 2.22 11.26
4/22/2022 4:30:00 AM 6.5 43.7 0.05 6.67 2.21 11.28
4/22/2022 4:45:00 AM 6.44 43.592 0.051 6.68 2.23 11.31
4/22/2022 5:00:00 AM 6.38 43.484 0.05 6.67 2.15 11.33
4/22/2022 5:15:00 AM 6.32 43.376 0.05 6.68 2.05 11.35
4/22/2022 5:30:00 AM 6.26 43.268 0.051 6.67 2.07 11.37
4/22/2022 5:45:00 AM 6.21 43.178 0.051 6.69 2.43 11.36
4/22/2022 6:00:00 AM 6.15 43.07 0.05 6.68 2.15 11.41
4/22/2022 6:15:00 AM 6.09 42.962 0.051 6.69 2.17 11.43
4/22/2022 6:30:00 AM 6.04 42.872 0.05 6.68 2.31 11.46
4/22/2022 6:45:00 AM 5.99 42.782 0.05 6.68 2.51 11.5
4/22/2022 7:00:00 AM 5.95 42.71 0.05 6.67 2.09 11.53
4/22/2022 7:15:00 AM 5.91 42.638 0.05 6.69 2.68 11.55
4/22/2022 7:30:00 AM 5.89 42.602 0.05 6.67 2.06 11.59
4/22/2022 7:45:00 AM 5.9 42.62 0.05 6.72 2.11 11.64
4/22/2022 8:00:00 AM 5.92 42.656 0.049 6.73 1.89 11.69
4/22/2022 8:15:00 AM 5.98 42.764 0.05 6.74 2.04 11.75
4/22/2022 8:30:00 AM 6.06 42.908 0.049 6.77 1.81 11.75
4/22/2022 8:45:00 AM 6.15 43.07 0.049 6.78 1.82 11.78
4/22/2022 9:00:00 AM 6.26 43.268 0.049 6.79 1.95 11.78
4/22/2022 9:15:00 AM 6.39 43.502 0.049 6.79 2.05 11.8
4/22/2022 9:30:00 AM 6.53 43.754 0.049 6.82 2.24 11.8
4/22/2022 9:45:00 AM 6.68 44.024 0.049 6.82 1.92 11.77
4/22/2022 10:00:00 AM 6.84 44.312 0.049 6.84 2 11.74
4/22/2022 10:15:00 AM 7.02 44.636 0.049 6.83 1.78 11.71
4/22/2022 10:30:00 AM 7.2 44.96 0.048 6.85 1.84 11.67
4/22/2022 10:45:00 AM 7.41 45.338 0.047 6.86 1.83 11.64
4/22/2022 11:00:00 AM 7.62 45.716 0.048 6.88 1.91 11.58
4/22/2022 11:15:00 AM 7.85 46.13 0.047 6.86 3.18 11.54
4/22/2022 11:30:00 AM 8.08 46.544 0.048 6.86 1.79 11.5
4/22/2022 11:45:00 AM 8.31 46.958 0.047 6.9 1.97 11.46
4/22/2022 12:00:00 PM 8.54 47.372 0.047 6.91 1.8 11.39
4/22/2022 12:15:00 PM 8.81 47.858 0.048 6.91 2.05 11.32
4/22/2022 12:30:00 PM 9.07 48.326 0.047 6.91 1.74 11.26
4/22/2022 12:45:00 PM 9.33 48.794 0.047 6.92 1.93 11.2
4/22/2022 1:00:00 PM 9.58 49.244 0.047 6.93 2.33 11.12
4/22/2022 1:15:00 PM 9.85 49.73 0.047 6.93 1.88 11.04
4/22/2022 1:30:00 PM 10.1 50.18 0.047 6.92 2.16 10.97
4/22/2022 1:45:00 PM 10.35 50.63 0.047 6.92 2.57 10.91
4/22/2022 2:00:00 PM 10.58 51.044 0.047 6.95 2.12 10.84
4/22/2022 2:15:00 PM 10.81 51.458 0.047 6.94 2.15 10.77
4/22/2022 2:30:00 PM 11.03 51.854 0.048 6.96 2.11 10.71
4/22/2022 2:45:00 PM 11.2 52.16 0.047 6.93 2.35 10.66
4/22/2022 3:00:00 PM 11.37 52.466 0.047 6.93 2.24 10.61
4/22/2022 3:15:00 PM 11.52 52.736 0.047 6.96 2.18 10.56
4/22/2022 3:30:00 PM 11.64 52.952 0.047 6.96 2.27 10.52
4/22/2022 3:45:00 PM 11.73 53.114 0.047 6.97 2.47 10.48
4/22/2022 4:00:00 PM 11.76 53.168 0.047 6.93 2.47 10.45
4/22/2022 4:15:00 PM 11.75 53.15 0.046 6.98 2.09 10.44
4/22/2022 4:30:00 PM 11.71 53.078 0.047 6.98 2.38 10.43
4/22/2022 4:45:00 PM 11.65 52.97 0.047 6.98 2.5 10.42
4/22/2022 5:00:00 PM 11.58 52.844 0.047 6.95 2.34 10.41
4/22/2022 5:15:00 PM 11.49 52.682 0.047 6.97 2.39 10.41
4/22/2022 5:30:00 PM 11.4 52.52 0.047 6.96 2.49 10.4
4/22/2022 5:45:00 PM 11.31 52.358 0.047 6.96 2.45 10.41
4/22/2022 6:00:00 PM 11.21 52.178 0.047 6.92 2.35 10.42
4/22/2022 6:15:00 PM 11.1 51.98 0.047 6.93 2.43 10.42
4/22/2022 6:30:00 PM 10.98 51.764 0.047 6.91 2.43 10.41
4/22/2022 6:45:00 PM 10.87 51.566 0.047 6.89 2.61 10.41
4/22/2022 7:00:00 PM 10.74 51.332 0.046 6.9 2.64 10.41
4/22/2022 7:15:00 PM 10.6 51.08 0.047 6.88 2.71 10.41
4/22/2022 7:30:00 PM 10.46 50.828 0.046 6.86 2.93 10.39
4/22/2022 7:45:00 PM 10.3 50.54 0.047 6.84 2.58 10.39
4/22/2022 8:00:00 PM 10.13 50.234 0.047 6.79 2.65 10.39
4/22/2022 8:15:00 PM 9.96 49.928 0.047 6.8 2.92 10.4
4/22/2022 8:30:00 PM 9.79 49.622 0.047 6.79 2.73 10.41
4/22/2022 8:45:00 PM 9.62 49.316 0.047 6.77 2.64 10.44
4/22/2022 9:00:00 PM 9.46 49.028 0.048 6.76 2.73 10.47
4/22/2022 9:15:00 PM 9.3 48.74 0.048 6.75 2.77 10.51
4/22/2022 9:30:00 PM 9.15 48.47 0.049 6.74 3.09 10.54
4/22/2022 9:45:00 PM 8.99 48.182 0.048 6.74 3.1 10.58
4/22/2022 10:00:00 PM 8.85 47.93 0.048 6.72 3.31 10.62
4/22/2022 10:15:00 PM 8.71 47.678 0.048 6.72 3.27 10.66
4/22/2022 10:30:00 PM 8.58 47.444 0.048 6.71 3.46 10.69
4/22/2022 10:45:00 PM 8.47 47.246 0.047 6.71 2.96 10.71
4/22/2022 11:00:00 PM 8.37 47.066 0.047 6.71 3.25 10.76
4/22/2022 11:15:00 PM 8.27 46.886 0.047 6.72 2.88 10.79
4/22/2022 11:30:00 PM 8.18 46.724 0.047 6.66 3.04 10.82
4/22/2022 11:45:00 PM 8.09 46.562 0.046 6.69 2.65 10.84
4/23/2022 12:00:00 AM 8.01 46.418 0.046 6.64 3.02 10.87
4/23/2022 12:15:00 AM 7.94 46.292 0.047 6.7 2.78 10.88
4/23/2022 12:30:00 AM 7.87 46.166 0.046 6.69 2.73 10.91
4/23/2022 12:45:00 AM 7.81 46.058 0.046 6.69 2.89 10.92
4/23/2022 1:00:00 AM 7.75 45.95 0.047 6.66 2.57 10.94
4/23/2022 1:15:00 AM 7.69 45.842 0.047 6.69 2.6 10.96
4/23/2022 1:30:00 AM 7.65 45.77 0.046 6.68 2.52 10.97
4/23/2022 1:45:00 AM 7.6 45.68 0.047 6.67 2.94 10.98
4/23/2022 2:00:00 AM 7.56 45.608 0.046 6.67 2.76 10.99
4/23/2022 2:15:00 AM 7.52 45.536 0.046 6.68 2.43 11
4/23/2022 2:30:00 AM 7.49 45.482 0.046 6.68 2.49 11
4/23/2022 2:45:00 AM 7.46 45.428 0.046 6.68 2.69 11.01
4/23/2022 3:00:00 AM 7.43 45.374 0.046 6.68 2.41 11.02
4/23/2022 3:15:00 AM 7.4 45.32 0.047 6.68 2.63 11.04
4/23/2022 3:30:00 AM 7.38 45.284 0.047 6.67 2.75 11.03
4/23/2022 3:45:00 AM 7.36 45.248 0.046 6.65 3.11 11.04
4/23/2022 4:00:00 AM 7.34 45.212 0.046 6.68 2.46 11.06
4/23/2022 4:15:00 AM 7.33 45.194 0.046 6.65 2.63 11.05
4/23/2022 4:30:00 AM 7.32 45.176 0.046 6.68 2.24 11.06
4/23/2022 4:45:00 AM 7.3 45.14 0.046 6.64 2.73 11.06
4/23/2022 5:00:00 AM 7.29 45.122 0.046 6.68 2.51 11.07
4/23/2022 5:15:00 AM 7.28 45.104 0.046 6.68 2.89 11.06
4/23/2022 5:30:00 AM 7.26 45.068 0.046 6.68 2.71 11.07
4/23/2022 5:45:00 AM 7.25 45.05 0.046 6.68 2.98 11.07
4/23/2022 6:00:00 AM 7.24 45.032 0.046 6.69 2.43 11.07
4/23/2022 6:15:00 AM 7.23 45.014 0.046 6.68 2.32 11.08
4/23/2022 6:30:00 AM 7.22 44.996 0.046 6.68 2.76 11.09
4/23/2022 6:45:00 AM 7.21 44.978 0.046 6.68 2.86 11.08
4/23/2022 7:00:00 AM 7.2 44.96 0.045 6.69 2.42 11.1
4/23/2022 7:15:00 AM 7.2 44.96 0.046 6.69 2.65 11.12
4/23/2022 7:30:00 AM 7.2 44.96 0.045 6.69 2.45 11.15
4/23/2022 7:45:00 AM 7.22 44.996 0.045 6.71 2.28 11.2
4/23/2022 8:00:00 AM 7.23 45.014 0.045 6.72 2.26 11.24
4/23/2022 8:15:00 AM 7.25 45.05 0.045 6.74 2.38 11.28
4/23/2022 8:30:00 AM 7.28 45.104 0.045 6.76 2.08 11.31
4/23/2022 8:45:00 AM 7.31 45.158 0.045 6.76 2.09 11.35
4/23/2022 9:00:00 AM 7.36 45.248 0.045 6.76 3.62 11.37
4/23/2022 9:15:00 AM 7.43 45.374 0.045 6.8 2.31 11.39
4/23/2022 9:30:00 AM 7.54 45.572 0.045 6.79 2.49 11.4
4/23/2022 9:45:00 AM 7.64 45.752 0.045 6.85 2.51 11.41
4/23/2022 10:00:00 AM 7.73 45.914 0.044 6.84 2.39 11.41
4/23/2022 10:15:00 AM 7.85 46.13 0.044 6.87 2.22 11.4
4/23/2022 10:30:00 AM 8.07 46.526 0.044 6.85 2.32 11.39
4/23/2022 10:45:00 AM 8.34 47.012 0.044 6.88 2.26 11.35
4/23/2022 11:00:00 AM 8.44 47.192 0.044 6.91 2.41 11.31
4/23/2022 11:15:00 AM 8.59 47.462 0.043 6.91 2.35 11.28
4/23/2022 11:30:00 AM 8.75 47.75 0.044 6.93 2.17 11.24
4/23/2022 11:45:00 AM 8.83 47.894 0.044 6.93 2.2 11.21
4/23/2022 12:00:00 PM 8.99 48.182 0.044 6.94 2.42 11.17
4/23/2022 12:15:00 PM 9.1 48.38 0.044 6.94 2.19 11.14
4/23/2022 12:30:00 PM 9.27 48.686 0.044 6.92 2.35 11.09
4/23/2022 12:45:00 PM 9.41 48.938 0.044 6.92 2.18 11.04
4/23/2022 1:00:00 PM 9.4 48.92 0.044 6.94 2.04 11
4/23/2022 1:15:00 PM 9.4 48.92 0.044 6.93 2.23 10.96
4/23/2022 1:30:00 PM 9.4 48.92 0.044 6.88 2.09 10.91
4/23/2022 1:45:00 PM 9.41 48.938 0.044 6.92 2.48 10.87
4/23/2022 2:00:00 PM 9.45 49.01 0.044 6.9 2.26 10.86
4/23/2022 2:15:00 PM 9.52 49.136 0.044 6.92 2.67 10.87
4/23/2022 2:30:00 PM 9.66 49.388 0.044 6.9 2.42 10.88
4/23/2022 2:45:00 PM 9.84 49.712 0.044 6.94 2.36 10.87
4/23/2022 3:00:00 PM 10.05 50.09 0.044 6.92 2.47 10.85
4/23/2022 3:15:00 PM 10.33 50.594 0.044 6.96 2.54 10.82
4/23/2022 3:30:00 PM 10.44 50.792 0.044 6.96 2.33 10.77
4/23/2022 3:45:00 PM 10.52 50.936 0.043 6.95 2.12 10.74
4/23/2022 4:00:00 PM 10.62 51.116 0.044 6.94 2.34 10.7
4/23/2022 4:15:00 PM 10.75 51.35 0.044 6.96 2.45 10.67
4/23/2022 4:30:00 PM 10.85 51.53 0.044 6.96 2.28 10.63
4/23/2022 4:45:00 PM 10.9 51.62 0.044 6.96 2.38 10.6
4/23/2022 5:00:00 PM 10.91 51.638 0.044 6.98 2.92 10.56
4/23/2022 5:15:00 PM 10.86 51.548 0.044 6.93 2.82 10.55
4/23/2022 5:30:00 PM 10.78 51.404 0.044 6.95 2.22 10.53
4/23/2022 5:45:00 PM 10.69 51.242 0.044 6.95 3.02 10.53
4/23/2022 6:00:00 PM 10.64 51.152 0.044 6.94 2.73 10.51
4/23/2022 6:15:00 PM 10.59 51.062 0.044 6.92 2.5 10.5
4/23/2022 6:30:00 PM 10.53 50.954 0.044 6.91 2.29 10.46
4/23/2022 6:45:00 PM 10.47 50.846 0.044 6.88 2.31 10.43
4/23/2022 7:00:00 PM 10.42 50.756 0.044 6.89 2.39 10.41
4/23/2022 7:15:00 PM 10.37 50.666 0.043 6.87 2.72 10.39
4/23/2022 7:30:00 PM 10.31 50.558 0.044 6.84 2.46 10.37
4/23/2022 7:45:00 PM 10.22 50.396 0.045 6.83 2.68 10.35
4/23/2022 8:00:00 PM 10.12 50.216 0.045 6.8 2.2 10.33
4/23/2022 8:15:00 PM 10.02 50.036 0.044 6.79 2.42 10.32
4/23/2022 8:30:00 PM 9.92 49.856 0.044 6.78 2.24 10.31
4/23/2022 8:45:00 PM 9.82 49.676 0.044 6.76 2.39 10.33
4/23/2022 9:00:00 PM 9.71 49.478 0.044 6.71 3.09 10.34
4/23/2022 9:15:00 PM 9.6 49.28 0.045 6.73 2.39 10.36
4/23/2022 9:30:00 PM 9.49 49.082 0.045 6.68 2.51 10.39
4/23/2022 9:45:00 PM 9.38 48.884 0.045 6.72 2.57 10.42
4/23/2022 10:00:00 PM 9.26 48.668 0.044 6.69 2.7 10.44
4/23/2022 10:15:00 PM 9.15 48.47 0.045 6.71 3.01 10.47
4/23/2022 10:30:00 PM 9.05 48.29 0.045 6.68 2.96 10.5
4/23/2022 10:45:00 PM 8.95 48.11 0.045 6.7 2.62 10.51
4/23/2022 11:00:00 PM 8.85 47.93 0.045 6.7 2.62 10.55
4/23/2022 11:15:00 PM 8.75 47.75 0.045 6.69 3.09 10.58
4/23/2022 11:30:00 PM 8.66 47.588 0.045 6.7 2.98 10.61
4/23/2022 11:45:00 PM 8.57 47.426 0.045 6.68 2.79 10.62
4/24/2022 12:00:00 AM 8.48 47.264 0.045 6.7 2.66 10.64
4/24/2022 12:15:00 AM 8.4 47.12 0.044 6.69 2.64 10.67
4/24/2022 12:30:00 AM 8.32 46.976 0.045 6.69 2.45 10.69
4/24/2022 12:45:00 AM 8.25 46.85 0.045 6.68 2.57 10.71
4/24/2022 1:00:00 AM 8.19 46.742 0.044 6.66 2.99 10.73
4/24/2022 1:15:00 AM 8.13 46.634 0.044 6.67 2.35 10.74
4/24/2022 1:30:00 AM 8.07 46.526 0.045 6.66 3.1 10.76
4/24/2022 1:45:00 AM 8.02 46.436 0.044 6.65 2.57 10.78
4/24/2022 2:00:00 AM 7.97 46.346 0.045 6.66 2.77 10.79
4/24/2022 2:15:00 AM 7.92 46.256 0.044 6.66 2.48 10.8
4/24/2022 2:30:00 AM 7.87 46.166 0.044 6.66 2.64 10.8
4/24/2022 2:45:00 AM 7.83 46.094 0.044 6.65 2.47 10.82
4/24/2022 3:00:00 AM 7.79 46.022 0.044 6.65 2.76 10.83
4/24/2022 3:15:00 AM 7.74 45.932 0.045 6.65 2.7 10.84
4/24/2022 3:30:00 AM 7.69 45.842 0.045 6.64 2.52 10.85
4/24/2022 3:45:00 AM 7.65 45.77 0.044 6.64 2.62 10.86
4/24/2022 4:00:00 AM 7.62 45.716 0.044 6.66 2.6 10.87
4/24/2022 4:15:00 AM 7.57 45.626 0.044 6.65 2.5 10.89
4/24/2022 4:30:00 AM 7.54 45.572 0.044 6.64 2.56 10.9
4/24/2022 4:45:00 AM 7.51 45.518 0.044 6.64 2.53 10.9
4/24/2022 5:00:00 AM 7.49 45.482 0.044 6.64 2.55 10.91
4/24/2022 5:15:00 AM 7.47 45.446 0.044 6.64 2.31 10.91
4/24/2022 5:30:00 AM 7.44 45.392 0.044 6.66 2.48 10.94
4/24/2022 5:45:00 AM 7.41 45.338 0.044 6.62 2.57 10.94
4/24/2022 6:00:00 AM 7.38 45.284 0.045 6.66 2.74 10.94
4/24/2022 6:15:00 AM 7.35 45.23 0.044 6.65 2.65 10.95
4/24/2022 6:30:00 AM 7.32 45.176 0.044 6.65 2.5 10.97
4/24/2022 6:45:00 AM 7.29 45.122 0.044 6.65 2.5 11
4/24/2022 7:00:00 AM 7.27 45.086 0.044 6.64 2.34 11.02
4/24/2022 7:15:00 AM 7.25 45.05 0.044 6.67 2.6 11.07
4/24/2022 7:30:00 AM 7.25 45.05 0.044 6.68 2.1 11.11
4/24/2022 7:45:00 AM 7.27 45.086 0.044 6.7 2.28 11.16
4/24/2022 8:00:00 AM 7.32 45.176 0.043 6.68 2.33 11.21
4/24/2022 8:15:00 AM 7.38 45.284 0.044 6.74 2.17 11.25
4/24/2022 8:30:00 AM 7.47 45.446 0.044 6.72 2.34 11.28
4/24/2022 8:45:00 AM 7.56 45.608 0.044 6.78 2.1 11.28
4/24/2022 9:00:00 AM 7.68 45.824 0.044 6.79 2.22 11.29
4/24/2022 9:15:00 AM 7.82 46.076 0.043 6.81 2.17 11.29
4/24/2022 9:30:00 AM 7.99 46.382 0.043 6.83 2.31 11.28
4/24/2022 9:45:00 AM 8.18 46.724 0.043 6.84 2.24 11.25
4/24/2022 10:00:00 AM 8.38 47.084 0.043 6.84 2.28 11.24
4/24/2022 10:15:00 AM 8.6 47.48 0.043 6.83 2.17 11.21
4/24/2022 10:30:00 AM 8.83 47.894 0.043 6.87 2.2 11.16
4/24/2022 10:45:00 AM 9.08 48.344 0.043 6.88 2.46 11.1
4/24/2022 11:00:00 AM 9.36 48.848 0.043 6.9 2.28 11.05
4/24/2022 11:15:00 AM 9.66 49.388 0.043 6.91 2.65 10.98
4/24/2022 11:30:00 AM 9.97 49.946 0.043 6.92 2.51 10.91
4/24/2022 11:45:00 AM 10.27 50.486 0.043 6.93 2.27 10.84
4/24/2022 12:00:00 PM 10.6 51.08 0.043 6.94 2.23 10.77
4/24/2022 12:15:00 PM 10.92 51.656 0.043 6.94 2.63 10.69
4/24/2022 12:30:00 PM 11.25 52.25 0.042 6.93 2.37 10.61
4/24/2022 12:45:00 PM 11.55 52.79 0.043 6.97 2.31 10.53
4/24/2022 1:00:00 PM 11.87 53.366 0.043 6.96 2.22 10.46
4/24/2022 1:15:00 PM 12.17 53.906 0.042 6.98 2.15 10.38
4/24/2022 1:30:00 PM 12.35 54.23 0.043 6.94 2.32 10.29
4/24/2022 1:45:00 PM 12.6 54.68 0.043 6.99 2.25 10.24
4/24/2022 2:00:00 PM 12.85 55.13 0.042 6.98 2.5 10.17
4/24/2022 2:15:00 PM 13.15 55.67 0.042 6.98 2.42 10.12
4/24/2022 2:30:00 PM 13.36 56.048 0.042 7 2.89 10.06
4/24/2022 2:45:00 PM 13.5 56.3 0.042 6.99 2.42 10
4/24/2022 3:00:00 PM 13.61 56.498 0.042 7 2.46 9.92
4/24/2022 3:15:00 PM 13.73 56.714 0.043 6.99 2.77 9.88
4/24/2022 3:30:00 PM 13.85 56.93 0.043 6.99 2.57 9.84
4/24/2022 3:45:00 PM 14.04 57.272 0.042 6.96 2.73 9.81
4/24/2022 4:00:00 PM 14.14 57.452 0.043 7 2.54 9.79
4/24/2022 4:15:00 PM 14.26 57.668 0.042 7 2.48 9.77
4/24/2022 4:30:00 PM 14.23 57.614 0.043 6.99 2.57 9.73
4/24/2022 4:45:00 PM 14.19 57.542 0.042 6.98 2.66 9.7
4/24/2022 5:00:00 PM 14.23 57.614 0.042 6.98 2.67 9.7
4/24/2022 5:15:00 PM 14.28 57.704 0.043 6.97 2.64 9.68
4/24/2022 5:30:00 PM 14.26 57.668 0.042 6.97 2.84 9.66
4/24/2022 5:45:00 PM 14.19 57.542 0.043 6.96 2.3 9.66
4/24/2022 6:00:00 PM 14.11 57.398 0.043 6.95 2.64 9.65
4/24/2022 6:15:00 PM 13.97 57.146 0.043 6.94 2.58 9.62
4/24/2022 6:30:00 PM 13.84 56.912 0.043 6.91 3.21 9.61
4/24/2022 6:45:00 PM 13.69 56.642 0.042 6.91 6.51 9.61
4/24/2022 7:00:00 PM 13.54 56.372 0.043 6.89 2.63 9.59
4/24/2022 7:15:00 PM 13.38 56.084 0.043 6.87 2.41 9.58
4/24/2022 7:30:00 PM 13.22 55.796 0.043 6.83 2.64 9.57
4/24/2022 7:45:00 PM 13.05 55.49 0.043 6.82 2.41 9.57
4/24/2022 8:00:00 PM 12.88 55.184 0.043 6.79 2.67 9.58
4/24/2022 8:15:00 PM 12.7 54.86 0.043 6.77 2.98 9.59
4/24/2022 8:30:00 PM 12.53 54.554 0.043 6.76 3.05 9.61
4/24/2022 8:45:00 PM 12.36 54.248 0.043 6.74 2.9 9.64
4/24/2022 9:00:00 PM 12.19 53.942 0.044 6.72 2.95 9.67
4/24/2022 9:15:00 PM 12.03 53.654 0.044 6.68 3.17 9.7
4/24/2022 9:30:00 PM 11.87 53.366 0.044 6.71 3.24 9.74
4/24/2022 9:45:00 PM 11.72 53.096 0.044 6.7 3.22 9.78
4/24/2022 10:00:00 PM 11.56 52.808 0.044 6.69 2.79 9.81
4/24/2022 10:15:00 PM 11.42 52.556 0.044 6.68 3.18 9.85
4/24/2022 10:30:00 PM 11.27 52.286 0.043 6.68 3.05 9.88
4/24/2022 10:45:00 PM 11.14 52.052 0.044 6.67 3.12 9.92
4/24/2022 11:00:00 PM 11.01 51.818 0.044 6.67 3.23 9.96
4/24/2022 11:15:00 PM 10.87 51.566 0.044 6.67 3.05 9.98
4/24/2022 11:30:00 PM 10.75 51.35 0.044 6.67 3.32 10.02
4/24/2022 11:45:00 PM 10.63 51.134 0.044 6.65 3.12 10.04
4/25/2022 12:00:00 AM 10.52 50.936 0.043 6.67 3.15 10.07
4/25/2022 12:15:00 AM 10.42 50.756 0.044 6.67 4.17 10.1
4/25/2022 12:30:00 AM 10.32 50.576 0.044 6.66 2.99 10.12
4/25/2022 12:45:00 AM 10.23 50.414 0.044 6.66 3.24 10.14
4/25/2022 1:00:00 AM 10.14 50.252 0.044 6.65 3.28 10.16
4/25/2022 1:15:00 AM 10.06 50.108 0.044 6.65 3.02 10.19
4/25/2022 1:30:00 AM 9.98 49.964 0.044 6.62 3.45 10.21
4/25/2022 1:45:00 AM 9.9 49.82 0.044 6.65 2.75 10.23
4/25/2022 2:00:00 AM 9.83 49.694 0.044 6.66 3.23 10.25
4/25/2022 2:15:00 AM 9.76 49.568 0.043 6.64 3.24 10.27
4/25/2022 2:30:00 AM 9.7 49.46 0.044 6.63 3.01 10.28
4/25/2022 2:45:00 AM 9.64 49.352 0.044 6.65 3.04 10.3
4/25/2022 3:00:00 AM 9.57 49.226 0.044 6.62 3.03 10.31
4/25/2022 3:15:00 AM 9.51 49.118 0.044 6.64 3.02 10.33
4/25/2022 3:30:00 AM 9.45 49.01 0.044 6.65 3.06 10.35
4/25/2022 3:45:00 AM 9.39 48.902 0.044 6.65 2.86 10.36
4/25/2022 4:00:00 AM 9.34 48.812 0.044 6.65 3.21 10.38
4/25/2022 4:15:00 AM 9.28 48.704 0.043 6.64 3.35 10.4
4/25/2022 4:30:00 AM 9.23 48.614 0.043 6.61 3.05 10.41
4/25/2022 4:45:00 AM 9.18 48.524 0.043 6.64 2.9 10.42
4/25/2022 5:00:00 AM 9.14 48.452 0.044 6.63 3.22 10.43
4/25/2022 5:15:00 AM 9.09 48.362 0.043 6.63 3.1 10.44
4/25/2022 5:30:00 AM 9.04 48.272 0.043 6.63 3.16 10.47
4/25/2022 5:45:00 AM 9 48.2 0.043 6.62 3.07 10.48
4/25/2022 6:00:00 AM 8.96 48.128 0.043 6.63 2.86 10.49
4/25/2022 6:15:00 AM 8.92 48.056 0.043 6.63 2.8 10.5
4/25/2022 6:30:00 AM 8.88 47.984 0.044 6.63 2.94 10.51
4/25/2022 6:45:00 AM 8.85 47.93 0.043 6.62 3.12 10.55
4/25/2022 7:00:00 AM 8.84 47.912 0.043 6.63 3.12 10.6
4/25/2022 7:15:00 AM 8.83 47.894 0.043 6.65 2.85 10.62
4/25/2022 7:30:00 AM 8.83 47.894 0.043 6.66 3.53 10.68
4/25/2022 7:45:00 AM 8.85 47.93 0.043 6.68 2.58 10.73
4/25/2022 8:00:00 AM 8.88 47.984 0.043 6.67 2.75 10.78
4/25/2022 8:15:00 AM 8.95 48.11 0.043 6.73 2.45 10.84
4/25/2022 8:30:00 AM 9.04 48.272 0.043 6.73 2.48 10.88
4/25/2022 8:45:00 AM 9.14 48.452 0.043 6.8 2.73 10.89
4/25/2022 9:00:00 AM 9.24 48.632 0.043 6.82 2.46 10.91
4/25/2022 9:15:00 AM 9.39 48.902 0.043 6.85 2.81 10.9
4/25/2022 9:30:00 AM 9.55 49.19 0.043 6.87 2.88 10.88
4/25/2022 9:45:00 AM 9.73 49.514 0.042 6.89 2.56 10.85
4/25/2022 10:00:00 AM 9.92 49.856 0.042 6.89 2.51 10.82
4/25/2022 10:15:00 AM 10.13 50.234 0.042 6.91 2.3 10.79
4/25/2022 10:30:00 AM 10.33 50.594 0.043 6.91 2.6 10.75
4/25/2022 10:45:00 AM 10.56 51.008 0.043 6.91 2.71 10.7
4/25/2022 11:00:00 AM 10.81 51.458 0.042 6.93 2.37 10.66
4/25/2022 11:15:00 AM 11.06 51.908 0.042 6.94 2.5 10.61
4/25/2022 11:30:00 AM 11.31 52.358 0.042 6.95 2.49 10.55
4/25/2022 11:45:00 AM 11.57 52.826 0.042 6.93 2.33 10.5
4/25/2022 12:00:00 PM 11.85 53.33 0.042 6.95 2.45 10.44
4/25/2022 12:15:00 PM 12.15 53.87 0.042 6.95 2.54 10.38
4/25/2022 12:30:00 PM 12.43 54.374 0.042 6.95 2.69 10.3
4/25/2022 12:45:00 PM 12.72 54.896 0.042 6.96 2.77 10.25
4/25/2022 1:00:00 PM 13 55.4 0.042 6.97 2.3 10.17
4/25/2022 1:15:00 PM 13.3 55.94 0.042 6.97 2.55 10.11
4/25/2022 1:30:00 PM 13.6 56.48 0.042 6.99 2.59 10.03
4/25/2022 1:45:00 PM 13.87 56.966 0.042 7 2.73 9.97
4/25/2022 2:00:00 PM 14.15 57.47 0.042 6.98 3.17 9.93
4/25/2022 2:15:00 PM 14.42 57.956 0.042 7.01 2.97 9.86
4/25/2022 2:30:00 PM 14.66 58.388 0.041 7.01 2.71 9.81
4/25/2022 2:45:00 PM 14.72 58.496 0.041 7.01 3.04 9.73
4/25/2022 3:00:00 PM 14.8 58.64 0.042 6.98 2.8 9.69
4/25/2022 3:15:00 PM 15 59 0.042 7.01 3.07 9.67
4/25/2022 3:30:00 PM 15.15 59.27 0.041 6.98 2.85 9.61
4/25/2022 3:45:00 PM 15.29 59.522 0.042 7.01 3.03 9.59
4/25/2022 4:00:00 PM 15.37 59.666 0.042 7 2.46 9.57
4/25/2022 4:15:00 PM 15.46 59.828 0.042 7.01 3.34 9.54
4/25/2022 4:30:00 PM 15.51 59.918 0.042 6.98 2.82 9.51
4/25/2022 4:45:00 PM 15.51 59.918 0.042 7.02 3.4 9.48
4/25/2022 5:00:00 PM 15.47 59.846 0.042 6.99 2.83 9.46
4/25/2022 5:15:00 PM 15.36 59.648 0.042 7 2.93 9.44
4/25/2022 5:30:00 PM 15.19 59.342 0.042 6.98 3.07 9.42
4/25/2022 5:45:00 PM 15.03 59.054 0.042 6.95 3.74 9.42
4/25/2022 6:00:00 PM 14.89 58.802 0.042 6.96 2.96 9.43
4/25/2022 6:15:00 PM 14.8 58.64 0.042 6.95 2.78 9.46
4/25/2022 6:30:00 PM 14.65 58.37 0.042 6.96 3.06 9.47
4/25/2022 6:45:00 PM 14.45 58.01 0.042 6.94 2.65 9.46
4/25/2022 7:00:00 PM 14.25 57.65 0.042 6.92 2.91 9.44
4/25/2022 7:15:00 PM 14.07 57.326 0.042 6.9 3.15 9.43
4/25/2022 7:30:00 PM 13.89 57.002 0.043 6.87 3.01 9.43
4/25/2022 7:45:00 PM 13.71 56.678 0.043 6.81 3.33 9.41
4/25/2022 8:00:00 PM 13.53 56.354 0.043 6.85 2.97 9.43
4/25/2022 8:15:00 PM 13.34 56.012 0.043 6.83 2.75 9.44
4/25/2022 8:30:00 PM 13.16 55.688 0.043 6.81 3.12 9.46
4/25/2022 8:45:00 PM 13 55.4 0.043 6.8 3.13 9.48
4/25/2022 9:00:00 PM 12.85 55.13 0.043 6.8 3.82 9.51
4/25/2022 9:15:00 PM 12.71 54.878 0.043 6.77 3.12 9.54
4/25/2022 9:30:00 PM 12.57 54.626 0.043 6.78 3.68 9.57
4/25/2022 9:45:00 PM 12.44 54.392 0.044 6.76 3.35 9.6
4/25/2022 10:00:00 PM 12.31 54.158 0.044 6.77 2.97 9.64
4/25/2022 10:15:00 PM 12.18 53.924 0.043 6.75 3.42 9.67
4/25/2022 10:30:00 PM 12.06 53.708 0.043 6.76 3.4 9.7
4/25/2022 10:45:00 PM 11.94 53.492 0.044 6.76 3.89 9.73
4/25/2022 11:00:00 PM 11.82 53.276 0.043 6.76 3.82 9.76
4/25/2022 11:15:00 PM 11.72 53.096 0.044 6.71 3.19 9.78
4/25/2022 11:30:00 PM 11.62 52.916 0.044 6.75 3.87 9.81
4/25/2022 11:45:00 PM 11.52 52.736 0.044 6.75 3.9 9.83
4/26/2022 12:00:00 AM 11.44 52.592 0.044 6.75 4.15 9.85
4/26/2022 12:15:00 AM 11.36 52.448 0.043 6.73 4.51 9.88
4/26/2022 12:30:00 AM 11.27 52.286 0.044 6.75 3.51 9.9
4/26/2022 12:45:00 AM 11.2 52.16 0.044 6.72 3.58 9.91
4/26/2022 1:00:00 AM 11.12 52.016 0.043 6.74 3.51 9.93
4/26/2022 1:15:00 AM 11.05 51.89 0.044 6.71 3.96 9.94
4/26/2022 1:30:00 AM 10.98 51.764 0.044 6.74 3.78 9.96
4/26/2022 1:45:00 AM 10.91 51.638 0.044 6.72 3.64 9.98
4/26/2022 2:00:00 AM 10.85 51.53 0.044 6.72 3.39 10
4/26/2022 2:15:00 AM 10.78 51.404 0.043 6.69 3.42 10.01
4/26/2022 2:30:00 AM 10.73 51.314 0.043 6.71 4.35 10.03
4/26/2022 2:45:00 AM 10.67 51.206 0.043 6.69 3.74 10.04
4/26/2022 3:00:00 AM 10.62 51.116 0.044 6.71 3.72 10.05
4/26/2022 3:15:00 AM 10.57 51.026 0.044 6.68 3.28 10.06
4/26/2022 3:30:00 AM 10.52 50.936 0.044 6.69 4 10.07
4/26/2022 3:45:00 AM 10.47 50.846 0.044 6.69 3.18 10.08
4/26/2022 4:00:00 AM 10.43 50.774 0.043 6.68 3.31 10.09
4/26/2022 4:15:00 AM 10.38 50.684 0.043 6.67 3.92 10.11
4/26/2022 4:30:00 AM 10.34 50.612 0.044 6.66 3.59 10.12
4/26/2022 4:45:00 AM 10.3 50.54 0.043 6.67 3.37 10.12
4/26/2022 5:00:00 AM 10.26 50.468 0.043 6.66 3.12 10.15
4/26/2022 5:15:00 AM 10.22 50.396 0.044 6.66 3.64 10.15
4/26/2022 5:30:00 AM 10.19 50.342 0.043 6.65 3.74 10.16
4/26/2022 5:45:00 AM 10.16 50.288 0.044 6.67 3.66 10.18
4/26/2022 6:00:00 AM 10.13 50.234 0.043 6.66 3.3 10.18
4/26/2022 6:15:00 AM 10.1 50.18 0.043 6.67 3.8 10.19
4/26/2022 6:30:00 AM 10.06 50.108 0.044 6.67 4.06 10.19
4/26/2022 6:45:00 AM 10.03 50.054 0.043 6.65 3.65 10.21
4/26/2022 7:00:00 AM 10 50 0.044 6.69 3.36 10.24
4/26/2022 7:15:00 AM 9.98 49.964 0.043 6.68 3.54 10.28
4/26/2022 7:30:00 AM 9.96 49.928 0.043 6.7 3.75 10.31
4/26/2022 7:45:00 AM 9.94 49.892 0.043 6.7 3.53 10.36
4/26/2022 8:00:00 AM 9.93 49.874 0.043 6.73 2.98 10.4
4/26/2022 8:15:00 AM 9.92 49.856 0.043 6.69 3.05 10.45
4/26/2022 8:30:00 AM 9.93 49.874 0.042 6.78 2.83 10.49
4/26/2022 8:45:00 AM 9.95 49.91 0.043 6.75 3.02 10.54
4/26/2022 9:00:00 AM 9.96 49.928 0.042 6.79 3.78 10.56
4/26/2022 9:15:00 AM 9.95 49.91 0.043 6.81 2.88 10.55
4/26/2022 9:30:00 AM 9.97 49.946 0.043 6.77 2.92 10.58
4/26/2022 9:45:00 AM 10.02 50.036 0.042 6.84 2.94 10.61
4/26/2022 10:00:00 AM 10.05 50.09 0.042 6.81 2.71 10.62
4/26/2022 10:15:00 AM 10.08 50.144 0.043 6.86 3.01 10.63
4/26/2022 10:30:00 AM 10.13 50.234 0.043 6.83 2.51 10.64
4/26/2022 10:45:00 AM 10.23 50.414 0.043 6.9 3.29 10.66
4/26/2022 11:00:00 AM 10.25 50.45 0.042 6.91 3 10.64
4/26/2022 11:15:00 AM 10.28 50.504 0.042 6.92 2.78 10.64
4/26/2022 11:30:00 AM 10.32 50.576 0.042 6.93 2.57 10.61
4/26/2022 11:45:00 AM 10.35 50.63 0.043 6.92 2.65 10.61
4/26/2022 12:00:00 PM 10.38 50.684 0.042 6.92 2.75 10.6
4/26/2022 12:15:00 PM 10.44 50.792 0.042 6.9 2.75 10.6
4/26/2022 12:30:00 PM 10.52 50.936 0.042 6.94 2.79 10.6
4/26/2022 12:45:00 PM 10.57 51.026 0.042 6.93 2.49 10.59
4/26/2022 1:00:00 PM 10.62 51.116 0.041 6.92 2.9 10.57
4/26/2022 1:15:00 PM 10.63 51.134 0.041 6.92 2.6 10.55
4/26/2022 1:30:00 PM 10.6 51.08 0.043 6.92 3.4 10.51
4/26/2022 1:45:00 PM 10.61 51.098 0.042 6.94 2.74 10.5
4/26/2022 2:00:00 PM 10.62 51.116 0.042 6.92 2.73 10.49
4/26/2022 2:15:00 PM 10.62 51.116 0.043 6.9 2.66 10.48
4/26/2022 2:30:00 PM 10.62 51.116 0.042 6.93 3.16 10.48
4/26/2022 2:45:00 PM 10.6 51.08 0.043 6.91 2.75 10.47
4/26/2022 3:00:00 PM 10.58 51.044 0.043 6.91 2.92 10.47
4/26/2022 3:15:00 PM 10.57 51.026 0.043 6.86 2.45 10.45
4/26/2022 3:30:00 PM 10.58 51.044 0.042 6.91 2.8 10.47
4/26/2022 3:45:00 PM 10.58 51.044 0.041 6.91 2.83 10.47
4/26/2022 4:00:00 PM 10.56 51.008 0.043 6.91 2.88 10.47
4/26/2022 4:15:00 PM 10.53 50.954 0.042 6.9 2.64 10.47
4/26/2022 4:30:00 PM 10.5 50.9 0.042 6.92 2.5 10.47
4/26/2022 4:45:00 PM 10.49 50.882 0.042 6.91 2.61 10.48
4/26/2022 5:00:00 PM 10.5 50.9 0.042 6.93 2.77 10.5
4/26/2022 5:15:00 PM 10.52 50.936 0.042 6.91 2.97 10.5
4/26/2022 5:30:00 PM 10.5 50.9 0.042 6.95 2.53 10.51
4/26/2022 5:45:00 PM 10.46 50.828 0.042 6.95 2.58 10.51
4/26/2022 6:00:00 PM 10.41 50.738 0.042 6.94 2.65 10.5
4/26/2022 6:15:00 PM 10.36 50.648 0.043 6.93 3.03 10.49
4/26/2022 6:30:00 PM 10.29 50.522 0.042 6.92 3.04 10.46
4/26/2022 6:45:00 PM 10.21 50.378 0.042 6.91 3.08 10.44
4/26/2022 7:00:00 PM 10.12 50.216 0.043 6.89 2.71 10.42
4/26/2022 7:15:00 PM 10.04 50.072 0.043 6.86 3.08 10.4
4/26/2022 7:30:00 PM 9.95 49.91 0.042 6.82 2.79 10.38
4/26/2022 7:45:00 PM 9.86 49.748 0.043 6.85 3.12 10.35
4/26/2022 8:00:00 PM 9.76 49.568 0.043 6.81 3.15 10.34
4/26/2022 8:15:00 PM 9.68 49.424 0.043 6.8 2.85 10.34
4/26/2022 8:30:00 PM 9.6 49.28 0.043 6.78 3.09 10.34
4/26/2022 8:45:00 PM 9.51 49.118 0.043 6.78 2.97 10.35
4/26/2022 9:00:00 PM 9.42 48.956 0.043 6.78 3.14 10.36
4/26/2022 9:15:00 PM 9.33 48.794 0.043 6.77 2.9 10.37
4/26/2022 9:30:00 PM 9.23 48.614 0.043 6.76 3.8 10.4
4/26/2022 9:45:00 PM 9.14 48.452 0.043 6.75 3.11 10.43
4/26/2022 10:00:00 PM 9.06 48.308 0.044 6.75 3.62 10.45
4/26/2022 10:15:00 PM 8.97 48.146 0.044 6.7 3.25 10.48
4/26/2022 10:30:00 PM 8.88 47.984 0.043 6.76 3.28 10.5
4/26/2022 10:45:00 PM 8.79 47.822 0.043 6.7 3.47 10.52
4/26/2022 11:00:00 PM 8.71 47.678 0.043 6.7 3.03 10.54
4/26/2022 11:15:00 PM 8.61 47.498 0.044 6.74 3.41 10.57
4/26/2022 11:30:00 PM 8.51 47.318 0.043 6.73 2.77 10.59
4/26/2022 11:45:00 PM 8.42 47.156 0.043 6.72 2.95 10.62
4/27/2022 12:00:00 AM 8.34 47.012 0.043 6.73 2.92 10.64
4/27/2022 12:15:00 AM 8.27 46.886 0.043 6.73 3.15 10.66
4/27/2022 12:30:00 AM 8.19 46.742 0.043 6.7 3.38 10.69
4/27/2022 12:45:00 AM 8.1 46.58 0.043 6.72 3.31 10.71
4/27/2022 1:00:00 AM 8.02 46.436 0.043 6.68 2.76 10.73
4/27/2022 1:15:00 AM 7.96 46.328 0.043 6.73 3.21 10.75
4/27/2022 1:30:00 AM 7.89 46.202 0.043 6.72 2.68 10.77
4/27/2022 1:45:00 AM 7.83 46.094 0.043 6.72 2.72 10.78
4/27/2022 2:00:00 AM 7.78 46.004 0.044 6.72 2.71 10.8
4/27/2022 2:15:00 AM 7.72 45.896 0.044 6.74 2.96 10.81
4/27/2022 2:30:00 AM 7.67 45.806 0.044 6.69 3.07 10.82
4/27/2022 2:45:00 AM 7.63 45.734 0.044 6.71 2.69 10.83
4/27/2022 3:00:00 AM 7.57 45.626 0.043 6.72 3.01 10.85
4/27/2022 3:15:00 AM 7.52 45.536 0.043 6.73 3.13 10.86
4/27/2022 3:30:00 AM 7.45 45.41 0.043 6.71 3.02 10.87
4/27/2022 3:45:00 AM 7.4 45.32 0.044 6.73 3.11 10.89
4/27/2022 4:00:00 AM 7.37 45.266 0.043 6.69 2.58 10.9
4/27/2022 4:15:00 AM 7.33 45.194 0.044 6.72 2.83 10.92
4/27/2022 4:30:00 AM 7.27 45.086 0.043 6.67 2.89 10.93
4/27/2022 4:45:00 AM 7.22 44.996 0.043 6.73 2.74 10.94
4/27/2022 5:00:00 AM 7.18 44.924 0.043 6.7 3.31 10.96
4/27/2022 5:15:00 AM 7.15 44.87 0.043 6.73 2.82 10.97
4/27/2022 5:30:00 AM 7.12 44.816 0.044 6.72 2.84 10.98
4/27/2022 5:45:00 AM 7.07 44.726 0.043 6.73 2.85 10.99
4/27/2022 6:00:00 AM 7.02 44.636 0.044 6.73 2.66 11
4/27/2022 6:15:00 AM 6.98 44.564 0.044 6.73 2.71 11.02
4/27/2022 6:30:00 AM 6.88 44.384 0.043 6.72 2.75 11.03
4/27/2022 6:45:00 AM 6.82 44.276 0.043 6.72 2.83 11.06
4/27/2022 7:00:00 AM 6.71 44.078 0.043 6.72 2.64 11.1
4/27/2022 7:15:00 AM 6.67 44.006 0.043 6.76 2.73 11.16
4/27/2022 7:30:00 AM 6.64 43.952 0.043 6.73 2.74 11.22
4/27/2022 7:45:00 AM 6.61 43.898 0.043 6.73 2.69 11.25
4/27/2022 8:00:00 AM 6.59 43.862 0.042 6.79 2.74 11.3
4/27/2022 8:15:00 AM 6.57 43.826 0.042 6.75 2.29 11.33
4/27/2022 8:30:00 AM 6.56 43.808 0.042 6.79 2.21 11.36
4/27/2022 8:45:00 AM 6.57 43.826 0.042 6.79 2.6 11.42
4/27/2022 9:00:00 AM 6.61 43.898 0.043 6.83 2.3 11.46
4/27/2022 9:15:00 AM 6.62 43.916 0.043 6.84 2.49 11.51
4/27/2022 9:30:00 AM 6.64 43.952 0.043 6.86 2.45 11.52
4/27/2022 9:45:00 AM 6.7 44.06 0.042 6.87 2.27 11.55
4/27/2022 10:00:00 AM 6.89 44.402 0.043 6.89 2.35 11.54
4/27/2022 10:15:00 AM 6.99 44.582 0.043 6.91 2.49 11.54
4/27/2022 10:30:00 AM 6.99 44.582 0.042 6.92 2.35 11.53
4/27/2022 10:45:00 AM 6.88 44.384 0.043 6.86 2.16 11.51
4/27/2022 11:00:00 AM 6.82 44.276 0.042 6.92 1.95 11.51
4/27/2022 11:15:00 AM 7.06 44.708 0.042 6.91 2.24 11.52
4/27/2022 11:30:00 AM 7.14 44.852 0.042 6.94 2.44 11.49
4/27/2022 11:45:00 AM 7.11 44.798 0.042 6.93 2.05 11.46
4/27/2022 12:00:00 PM 7.19 44.942 0.042 6.95 2.18 11.47
4/27/2022 12:15:00 PM 7.21 44.978 0.042 6.88 2.12 11.44
4/27/2022 12:30:00 PM 7.23 45.014 0.042 6.95 2.16 11.43
4/27/2022 12:45:00 PM 7.26 45.068 0.042 6.95 2.14 11.43
4/27/2022 1:00:00 PM 7.3 45.14 0.042 6.94 2.66 11.43
4/27/2022 1:15:00 PM 7.29 45.122 0.042 6.95 2.42 11.41
4/27/2022 1:30:00 PM 7.38 45.284 0.042 6.93 2.08 11.41
4/27/2022 1:45:00 PM 7.43 45.374 0.042 6.91 2.2 11.38
4/27/2022 2:00:00 PM 7.49 45.482 0.042 6.96 2.43 11.38
4/27/2022 2:15:00 PM 7.49 45.482 0.042 6.95 2.02 11.37
4/27/2022 2:30:00 PM 7.51 45.518 0.042 6.93 2.48 11.35
4/27/2022 2:45:00 PM 7.49 45.482 0.042 6.94 2.23 11.32
4/27/2022 3:00:00 PM 7.43 45.374 0.042 6.94 2.12 11.3
4/27/2022 3:15:00 PM 7.4 45.32 0.042 6.93 2.27 11.3
4/27/2022 3:30:00 PM 7.37 45.266 0.042 6.93 2.56 11.3
4/27/2022 3:45:00 PM 7.33 45.194 0.042 6.89 2.41 11.31
4/27/2022 4:00:00 PM 7.3 45.14 0.042 6.92 2.13 11.31
4/27/2022 4:15:00 PM 7.23 45.014 0.042 6.92 2.5 11.31
4/27/2022 4:30:00 PM 7.24 45.032 0.042 6.89 2.4 11.32
4/27/2022 4:45:00 PM 7.18 44.924 0.042 6.9 2.53 11.31
4/27/2022 5:00:00 PM 7.1 44.78 0.043 6.9 2.3 11.32
4/27/2022 5:15:00 PM 7.03 44.654 0.043 6.89 2.37 11.33
4/27/2022 5:30:00 PM 6.97 44.546 0.042 6.89 2.24 11.34
4/27/2022 5:45:00 PM 6.9 44.42 0.043 6.88 2.44 11.35
4/27/2022 6:00:00 PM 6.82 44.276 0.043 6.88 2.5 11.34
4/27/2022 6:15:00 PM 6.73 44.114 0.043 6.86 2.21 11.33
4/27/2022 6:30:00 PM 6.65 43.97 0.043 6.82 2.23 11.32
4/27/2022 6:45:00 PM 6.58 43.844 0.042 6.85 2.36 11.32
4/27/2022 7:00:00 PM 6.5 43.7 0.043 6.83 2.27 11.32
4/27/2022 7:15:00 PM 6.42 43.556 0.043 6.82 2.11 11.31
4/27/2022 7:30:00 PM 6.35 43.43 0.043 6.8 2.19 11.31
4/27/2022 7:45:00 PM 6.28 43.304 0.043 6.78 2.38 11.31
4/27/2022 8:00:00 PM 6.2 43.16 0.043 6.77 2.24 11.32
4/27/2022 8:15:00 PM 6.14 43.052 0.043 6.75 2.7 11.32
4/27/2022 8:30:00 PM 6.06 42.908 0.043 6.76 2.55 11.34
4/27/2022 8:45:00 PM 5.99 42.782 0.043 6.76 2.47 11.36
4/27/2022 9:00:00 PM 5.93 42.674 0.043 6.73 2.57 11.37
4/27/2022 9:15:00 PM 5.88 42.584 0.043 6.75 2.47 11.38
4/27/2022 9:30:00 PM 5.82 42.476 0.043 6.71 2.75 11.4
4/27/2022 9:45:00 PM 5.76 42.368 0.043 6.76 2.57 11.41
4/27/2022 10:00:00 PM 5.71 42.278 0.043 6.75 2.37 11.43
4/27/2022 10:15:00 PM 5.68 42.224 0.043 6.72 2.21 11.45
4/27/2022 10:30:00 PM 5.63 42.134 0.043 6.75 2.36 11.46
4/27/2022 10:45:00 PM 5.59 42.062 0.043 6.74 2.68 11.47
4/27/2022 11:00:00 PM 5.55 41.99 0.043 6.7 2.24 11.48
4/27/2022 11:15:00 PM 5.51 41.918 0.043 6.74 2.4 11.5
4/27/2022 11:30:00 PM 5.48 41.864 0.043 6.73 2.14 11.52
4/27/2022 11:45:00 PM 5.44 41.792 0.043 6.73 2.47 11.53
4/28/2022 12:00:00 AM 5.41 41.738 0.043 6.73 2.18 11.54
4/28/2022 12:15:00 AM 5.37 41.666 0.043 6.74 2.21 11.55
4/28/2022 12:30:00 AM 5.34 41.612 0.043 6.75 2.31 11.56
4/28/2022 12:45:00 AM 5.32 41.576 0.043 6.71 2.25 11.57
4/28/2022 1:00:00 AM 5.3 41.54 0.043 6.74 2.13 11.58
4/28/2022 1:15:00 AM 5.26 41.468 0.043 6.7 2.26 11.59
4/28/2022 1:30:00 AM 5.24 41.432 0.043 6.73 2.43 11.59
4/28/2022 1:45:00 AM 5.21 41.378 0.043 6.73 2.36 11.61
4/28/2022 2:00:00 AM 5.19 41.342 0.043 6.74 1.97 11.61
4/28/2022 2:15:00 AM 5.16 41.288 0.043 6.69 2.19 11.62
4/28/2022 2:30:00 AM 5.13 41.234 0.043 6.73 2.25 11.63
4/28/2022 2:45:00 AM 5.11 41.198 0.043 6.73 2.39 11.64
4/28/2022 3:00:00 AM 5.09 41.162 0.043 6.73 2.33 11.64
4/28/2022 3:15:00 AM 5.07 41.126 0.043 6.71 2.24 11.65
4/28/2022 3:30:00 AM 5.05 41.09 0.043 6.74 2.66 11.66
4/28/2022 3:45:00 AM 5.04 41.072 0.043 6.7 2.08 11.66
4/28/2022 4:00:00 AM 5.02 41.036 0.043 6.72 2.36 11.67
4/28/2022 4:15:00 AM 5 41 0.043 6.69 2.65 11.67
4/28/2022 4:30:00 AM 4.99 40.982 0.043 6.74 2.63 11.68
4/28/2022 4:45:00 AM 4.98 40.964 0.043 6.72 2.19 11.68
4/28/2022 5:00:00 AM 4.96 40.928 0.043 6.73 2.39 11.69
4/28/2022 5:15:00 AM 4.94 40.892 0.043 6.69 2.46 11.69
4/28/2022 5:30:00 AM 4.92 40.856 0.044 6.74 2.48 11.7
4/28/2022 5:45:00 AM 4.9 40.82 0.043 6.73 2.16 11.71
4/28/2022 6:00:00 AM 4.88 40.784 0.043 6.72 2.2 11.71
4/28/2022 6:15:00 AM 4.86 40.748 0.043 6.69 2.18 11.73
4/28/2022 6:30:00 AM 4.84 40.712 0.043 6.72 2.36 11.74
4/28/2022 6:45:00 AM 4.83 40.694 0.043 6.72 2.06 11.77
4/28/2022 7:00:00 AM 4.83 40.694 0.043 6.73 2.14 11.81
4/28/2022 7:15:00 AM 4.84 40.712 0.043 6.73 2.06 11.85
4/28/2022 7:30:00 AM 4.84 40.712 0.043 6.77 2.22 11.9
4/28/2022 7:45:00 AM 4.85 40.73 0.043 6.8 2.24 11.93
4/28/2022 8:00:00 AM 4.86 40.748 0.043 6.8 2.23 11.97
4/28/2022 8:15:00 AM 4.91 40.838 0.043 6.82 2.82 12
4/28/2022 8:30:00 AM 4.96 40.928 0.043 6.81 2.12 12.02
4/28/2022 8:45:00 AM 5.02 41.036 0.043 6.85 2.41 12.04
4/28/2022 9:00:00 AM 5.11 41.198 0.043 6.8 1.94 12.06
4/28/2022 9:15:00 AM 5.22 41.396 0.042 6.87 1.92 12.06
4/28/2022 9:30:00 AM 5.37 41.666 0.043 6.87 2.28 12.05
4/28/2022 9:45:00 AM 5.51 41.918 0.042 6.89 2.38 12.04
4/28/2022 10:00:00 AM 5.67 42.206 0.043 6.89 1.91 12.01
4/28/2022 10:15:00 AM 5.84 42.512 0.042 6.92 2.07 11.99
4/28/2022 10:30:00 AM 6.02 42.836 0.042 6.9 1.95 11.95
4/28/2022 10:45:00 AM 6.2 43.16 0.042 6.91 2.07 11.91
4/28/2022 11:00:00 AM 6.41 43.538 0.042 6.93 2.45 11.87
4/28/2022 11:15:00 AM 6.63 43.934 0.042 6.94 2.08 11.82
4/28/2022 11:30:00 AM 6.86 44.348 0.043 6.92 1.96 11.77
4/28/2022 11:45:00 AM 7.1 44.78 0.042 6.93 2.03 11.7
4/28/2022 12:00:00 PM 7.34 45.212 0.042 6.95 2.17 11.65
4/28/2022 12:15:00 PM 7.58 45.644 0.042 6.93 2.27 11.59
4/28/2022 12:30:00 PM 7.84 46.112 0.042 6.94 2.3 11.53
4/28/2022 12:45:00 PM 8.08 46.544 0.042 6.95 2.28 11.46
4/28/2022 1:00:00 PM 8.31 46.958 0.041 6.89 2.13 11.39
4/28/2022 1:15:00 PM 8.56 47.408 0.041 6.96 2.2 11.33
4/28/2022 1:30:00 PM 8.81 47.858 0.042 6.94 2.02 11.25
4/28/2022 1:45:00 PM 9.04 48.272 0.042 6.95 2.21 11.19
4/28/2022 2:00:00 PM 9.27 48.686 0.042 6.91 2.23 11.11
4/28/2022 2:15:00 PM 9.48 49.064 0.042 6.95 2.21 11.05
4/28/2022 2:30:00 PM 9.69 49.442 0.041 6.93 2.24 10.99
4/28/2022 2:45:00 PM 9.87 49.766 0.041 6.94 2.36 10.93
4/28/2022 3:00:00 PM 10.03 50.054 0.042 6.89 2.23 10.87
4/28/2022 3:15:00 PM 10.17 50.306 0.041 6.98 2.7 10.83
4/28/2022 3:30:00 PM 10.29 50.522 0.041 6.96 2.46 10.78
4/28/2022 3:45:00 PM 10.39 50.702 0.042 6.98 2.43 10.74
4/28/2022 4:00:00 PM 10.47 50.846 0.042 6.94 2.3 10.7
4/28/2022 4:15:00 PM 10.51 50.918 0.042 6.99 2.54 10.67
4/28/2022 4:30:00 PM 10.54 50.972 0.042 6.94 2.35 10.65
4/28/2022 4:45:00 PM 10.53 50.954 0.042 6.92 2.72 10.63
4/28/2022 5:00:00 PM 10.5 50.9 0.042 6.91 2.53 10.62
4/28/2022 5:15:00 PM 10.44 50.792 0.042 6.98 2.8 10.6
4/28/2022 5:30:00 PM 10.34 50.612 0.042 6.98 2.96 10.6
4/28/2022 5:45:00 PM 10.22 50.396 0.042 6.97 2.54 10.6
4/28/2022 6:00:00 PM 10.08 50.144 0.042 6.94 2.53 10.61
4/28/2022 6:15:00 PM 9.92 49.856 0.042 6.95 2.67 10.61
4/28/2022 6:30:00 PM 9.74 49.532 0.042 6.93 2.68 10.61
4/28/2022 6:45:00 PM 9.57 49.226 0.042 6.92 2.46 10.61
4/28/2022 7:00:00 PM 9.39 48.902 0.042 6.87 2.67 10.61
4/28/2022 7:15:00 PM 9.23 48.614 0.042 6.88 2.42 10.62
4/28/2022 7:30:00 PM 9.08 48.344 0.043 6.86 2.65 10.62
4/28/2022 7:45:00 PM 8.93 48.074 0.043 6.84 2.86 10.63
4/28/2022 8:00:00 PM 8.75 47.75 0.043 6.84 2.61 10.64
4/28/2022 8:15:00 PM 8.59 47.462 0.043 6.83 2.55 10.65
4/28/2022 8:30:00 PM 8.43 47.174 0.042 6.76 2.39 10.66
4/28/2022 8:45:00 PM 8.28 46.904 0.043 6.8 2.51 10.69
4/28/2022 9:00:00 PM 8.12 46.616 0.043 6.79 2.7 10.71
4/28/2022 9:15:00 PM 7.96 46.328 0.043 6.79 2.93 10.75
4/28/2022 9:30:00 PM 7.8 46.04 0.043 6.75 2.68 10.79
4/28/2022 9:45:00 PM 7.64 45.752 0.043 6.77 2.83 10.84
4/28/2022 10:00:00 PM 7.48 45.464 0.043 6.76 2.7 10.88
4/28/2022 10:15:00 PM 7.31 45.158 0.043 6.74 2.46 10.93
4/28/2022 10:30:00 PM 7.16 44.888 0.043 6.75 2.77 10.97
4/28/2022 10:45:00 PM 7 44.6 0.043 6.71 2.48 11.01
4/28/2022 11:00:00 PM 6.85 44.33 0.044 6.76 2.9 11.07
4/28/2022 11:15:00 PM 6.7 44.06 0.044 6.7 2.55 11.11
4/28/2022 11:30:00 PM 6.56 43.808 0.043 6.73 2.49 11.16
4/28/2022 11:45:00 PM 6.43 43.574 0.044 6.71 2.62 11.2
4/29/2022 12:00:00 AM 6.3 43.34 0.044 6.7 2.73 11.23
4/29/2022 12:15:00 AM 6.18 43.124 0.044 6.73 2.83 11.27
4/29/2022 12:30:00 AM 6.06 42.908 0.044 6.72 2.45 11.3
4/29/2022 12:45:00 AM 5.95 42.71 0.044 6.72 2.64 11.34
4/29/2022 1:00:00 AM 5.85 42.53 0.043 6.72 2.36 11.38
4/29/2022 1:15:00 AM 5.75 42.35 0.044 6.68 2.35 11.41
4/29/2022 1:30:00 AM 5.65 42.17 0.044 6.72 2.45 11.44
4/29/2022 1:45:00 AM 5.56 42.008 0.044 6.7 2.18 11.47
4/29/2022 2:00:00 AM 5.47 41.846 0.044 6.72 2.4 11.51
4/29/2022 2:15:00 AM 5.37 41.666 0.044 6.67 2.3 11.53
4/29/2022 2:30:00 AM 5.28 41.504 0.044 6.71 2.41 11.56
4/29/2022 2:45:00 AM 5.2 41.36 0.044 6.7 2.55 11.59
4/29/2022 3:00:00 AM 5.12 41.216 0.044 6.71 2.17 11.62
4/29/2022 3:15:00 AM 5.04 41.072 0.043 6.68 2.16 11.64
4/29/2022 3:30:00 AM 4.97 40.946 0.044 6.7 2.37 11.66
4/29/2022 3:45:00 AM 4.9 40.82 0.044 6.69 2.05 11.68
4/29/2022 4:00:00 AM 4.83 40.694 0.044 6.7 2.92 11.71
4/29/2022 4:15:00 AM 4.76 40.568 0.043 6.65 2.35 11.73
4/29/2022 4:30:00 AM 4.69 40.442 0.043 6.69 2.41 11.75
4/29/2022 4:45:00 AM 4.63 40.334 0.044 6.69 2 11.77
4/29/2022 5:00:00 AM 4.56 40.208 0.044 6.67 2.26 11.79
4/29/2022 5:15:00 AM 4.5 40.1 0.044 6.64 2.05 11.81
4/29/2022 5:30:00 AM 4.45 40.01 0.044 6.7 2.44 11.83
4/29/2022 5:45:00 AM 4.39 39.902 0.043 6.66 2.17 11.85
4/29/2022 6:00:00 AM 4.34 39.812 0.044 6.7 2.15 11.86
4/29/2022 6:15:00 AM 4.29 39.722 0.044 6.66 2.13 11.89
4/29/2022 6:30:00 AM 4.25 39.65 0.044 6.71 2.31 11.91
4/29/2022 6:45:00 AM 4.21 39.578 0.043 6.68 1.99 11.95
4/29/2022 7:00:00 AM 4.18 39.524 0.044 6.69 2.5 12
4/29/2022 7:15:00 AM 4.16 39.488 0.043 6.66 2.47 12.05
4/29/2022 7:30:00 AM 4.17 39.506 0.044 6.7 2.23 12.09
4/29/2022 7:45:00 AM 4.21 39.578 0.044 6.76 1.98 12.14
4/29/2022 8:00:00 AM 4.28 39.704 0.043 6.79 2.04 12.17
4/29/2022 8:15:00 AM 4.37 39.866 0.044 6.8 1.93 12.2
4/29/2022 8:30:00 AM 4.49 40.082 0.044 6.79 2.03 12.2
4/29/2022 8:45:00 AM 4.62 40.316 0.044 6.81 1.94 12.2
4/29/2022 9:00:00 AM 4.76 40.568 0.043 6.8 2.01 12.2
4/29/2022 9:15:00 AM 4.93 40.874 0.043 6.83 2.05 12.19
4/29/2022 9:30:00 AM 5.12 41.216 0.044 6.86 2.3 12.17
4/29/2022 9:45:00 AM 5.3 41.54 0.043 6.87 1.93 12.14
4/29/2022 10:00:00 AM 5.5 41.9 0.042 6.89 1.83 12.12
4/29/2022 10:15:00 AM 5.7 42.26 0.042 6.9 1.93 12.07
4/29/2022 10:30:00 AM 5.92 42.656 0.042 6.9 2.11 12.03
4/29/2022 10:45:00 AM 6.06 42.908 0.042 6.92 1.83 11.99
4/29/2022 11:00:00 AM 6.25 43.25 0.043 6.93 1.99 11.94
4/29/2022 11:15:00 AM 6.51 43.718 0.043 6.93 2.15 11.88
4/29/2022 11:30:00 AM 6.82 44.276 0.043 6.9 1.79 11.81
4/29/2022 11:45:00 AM 7.12 44.816 0.042 6.92 1.82 11.75
4/29/2022 12:00:00 PM 7.42 45.356 0.042 6.92 2.15 11.67
4/29/2022 12:15:00 PM 7.69 45.842 0.042 6.97 1.94 11.6
4/29/2022 12:30:00 PM 7.97 46.346 0.042 6.95 2.21 11.53
4/29/2022 12:45:00 PM 8.25 46.85 0.042 6.94 1.97 11.45
4/29/2022 1:00:00 PM 8.53 47.354 0.042 6.97 2.06 11.37
4/29/2022 1:15:00 PM 8.84 47.912 0.042 6.96 2.05 11.28
4/29/2022 1:30:00 PM 9.12 48.416 0.042 6.96 2.37 11.21
4/29/2022 1:45:00 PM 9.4 48.92 0.042 6.94 2.27 11.12
4/29/2022 2:00:00 PM 9.66 49.388 0.042 6.99 2.77 11.05
4/29/2022 2:15:00 PM 9.91 49.838 0.042 6.93 2.32 10.97
4/29/2022 2:30:00 PM 10.15 50.27 0.041 6.95 2.37 10.9
4/29/2022 2:45:00 PM 10.38 50.684 0.042 6.92 2.05 10.83
4/29/2022 3:00:00 PM 10.58 51.044 0.042 7 2.43 10.76
4/29/2022 3:15:00 PM 10.74 51.332 0.042 6.99 2.33 10.71
4/29/2022 3:30:00 PM 10.89 51.602 0.042 7 2.41 10.66
4/29/2022 3:45:00 PM 11.02 51.836 0.042 6.96 2.23 10.62
4/29/2022 4:00:00 PM 11.11 51.998 0.042 7.01 2.55 10.57
4/29/2022 4:15:00 PM 11.17 52.106 0.042 7 2.37 10.54
4/29/2022 4:30:00 PM 11.23 52.214 0.042 7.02 2.58 10.5
4/29/2022 4:45:00 PM 11.24 52.232 0.042 7 2.75 10.48
4/29/2022 5:00:00 PM 11.22 52.196 0.042 6.99 2.86 10.46
4/29/2022 5:15:00 PM 11.17 52.106 0.042 7 2.58 10.44
4/29/2022 5:30:00 PM 11.1 51.98 0.042 7 2.65 10.43
4/29/2022 5:45:00 PM 11 51.8 0.042 6.99 2.65 10.42
4/29/2022 6:00:00 PM 10.88 51.584 0.042 6.99 2.63 10.42
4/29/2022 6:15:00 PM 10.74 51.332 0.043 6.97 2.35 10.41
4/29/2022 6:30:00 PM 10.59 51.062 0.043 6.95 2.84 10.4
4/29/2022 6:45:00 PM 10.46 50.828 0.042 6.94 2.54 10.39
4/29/2022 7:00:00 PM 10.31 50.558 0.043 6.93 2.77 10.39
4/29/2022 7:15:00 PM 10.15 50.27 0.043 6.89 2.41 10.39
4/29/2022 7:30:00 PM 9.99 49.982 0.043 6.87 2.63 10.39
4/29/2022 7:45:00 PM 9.85 49.73 0.043 6.78 2.54 10.39
4/29/2022 8:00:00 PM 9.7 49.46 0.043 6.84 2.94 10.39
4/29/2022 8:15:00 PM 9.55 49.19 0.044 6.79 2.46 10.39
4/29/2022 8:30:00 PM 9.39 48.902 0.043 6.81 2.36 10.4
4/29/2022 8:45:00 PM 9.23 48.614 0.043 6.8 2.65 10.42
4/29/2022 9:00:00 PM 9.07 48.326 0.044 6.79 2.51 10.46
4/29/2022 9:15:00 PM 8.91 48.038 0.044 6.79 2.81 10.49
4/29/2022 9:30:00 PM 8.75 47.75 0.043 6.76 2.62 10.53
4/29/2022 9:45:00 PM 8.58 47.444 0.044 6.79 2.78 10.57
4/29/2022 10:00:00 PM 8.41 47.138 0.044 6.78 2.49 10.62
4/29/2022 10:15:00 PM 8.24 46.832 0.044 6.79 3.12 10.67
4/29/2022 10:30:00 PM 8.06 46.508 0.044 6.78 2.75 10.72
4/29/2022 10:45:00 PM 7.9 46.22 0.044 6.77 2.62 10.76
4/29/2022 11:00:00 PM 7.73 45.914 0.044 6.77 2.6 10.81
4/29/2022 11:15:00 PM 7.57 45.626 0.044 6.76 2.69 10.85
4/29/2022 11:30:00 PM 7.42 45.356 0.044 6.74 2.37 10.89
4/29/2022 11:45:00 PM 7.28 45.104 0.044 6.76 2.56 10.94
4/30/2022 12:00:00 AM 7.14 44.852 0.044 6.76 2.25 10.98
4/30/2022 12:15:00 AM 7.01 44.618 0.044 6.76 2.49 11.02
4/30/2022 12:30:00 AM 6.88 44.384 0.044 6.73 2.44 11.05
4/30/2022 12:45:00 AM 6.76 44.168 0.044 6.72 2.88 11.09
4/30/2022 1:00:00 AM 6.64 43.952 0.044 6.75 2.44 11.13
4/30/2022 1:15:00 AM 6.52 43.736 0.044 6.75 2.39 11.16
4/30/2022 1:30:00 AM 6.41 43.538 0.044 6.71 2.46 11.19
4/30/2022 1:45:00 AM 6.31 43.358 0.044 6.75 2.52 11.23
4/30/2022 2:00:00 AM 6.2 43.16 0.044 6.73 3.61 11.26
4/30/2022 2:15:00 AM 6.1 42.98 0.044 6.73 2.3 11.29
4/30/2022 2:30:00 AM 6 42.8 0.044 6.73 2.36 11.32
4/30/2022 2:45:00 AM 5.91 42.638 0.044 6.72 2.25 11.35
4/30/2022 3:00:00 AM 5.81 42.458 0.044 6.69 2.33 11.39
4/30/2022 3:15:00 AM 5.72 42.296 0.044 6.72 2.3 11.41
4/30/2022 3:30:00 AM 5.63 42.134 0.044 6.72 2.28 11.44
4/30/2022 3:45:00 AM 5.55 41.99 0.044 6.72 2.16 11.47
4/30/2022 4:00:00 AM 5.47 41.846 0.044 6.71 2.45 11.5
4/30/2022 4:15:00 AM 5.39 41.702 0.044 6.71 2.3 11.52
4/30/2022 4:30:00 AM 5.3 41.54 0.044 6.7 2.3 11.55
4/30/2022 4:45:00 AM 5.23 41.414 0.044 6.71 2.29 11.57
4/30/2022 5:00:00 AM 5.15 41.27 0.044 6.71 2.79 11.6
4/30/2022 5:15:00 AM 5.08 41.144 0.044 6.68 2.69 11.62
4/30/2022 5:30:00 AM 5.01 41.018 0.044 6.71 2.38 11.64
4/30/2022 5:45:00 AM 4.94 40.892 0.044 6.71 2.28 11.67
4/30/2022 6:00:00 AM 4.87 40.766 0.044 6.65 2.26 11.69
4/30/2022 6:15:00 AM 4.81 40.658 0.044 6.7 2.29 11.72
4/30/2022 6:30:00 AM 4.75 40.55 0.044 6.71 2.21 11.75
4/30/2022 6:45:00 AM 4.69 40.442 0.044 6.72 2.27 11.8
4/30/2022 7:00:00 AM 4.65 40.37 0.044 6.72 1.98 11.84
4/30/2022 7:15:00 AM 4.62 40.316 0.044 6.7 2.21 11.89
4/30/2022 7:30:00 AM 4.62 40.316 0.044 6.74 2.01 11.94
4/30/2022 7:45:00 AM 4.64 40.352 0.044 6.76 2.11 11.99
4/30/2022 8:00:00 AM 4.7 40.46 0.044 6.75 2.54 12.03
4/30/2022 8:15:00 AM 4.78 40.604 0.044 6.81 2.13 12.05
4/30/2022 8:30:00 AM 4.88 40.784 0.043 6.82 1.84 12.07
4/30/2022 8:45:00 AM 5.01 41.018 0.043 6.81 2.26 12.08
4/30/2022 9:00:00 AM 5.16 41.288 0.043 6.85 1.93 12.08
4/30/2022 9:15:00 AM 5.35 41.63 0.043 6.86 1.96 12.07
4/30/2022 9:30:00 AM 5.56 42.008 0.043 6.84 2.03 12.04
4/30/2022 9:45:00 AM 5.79 42.422 0.043 6.85 2.12 12.01
4/30/2022 10:00:00 AM 6.02 42.836 0.043 6.81 1.82 11.97
4/30/2022 10:15:00 AM 6.28 43.304 0.043 6.87 1.85 11.91
4/30/2022 10:30:00 AM 6.54 43.772 0.042 6.83 1.83 11.86
4/30/2022 10:45:00 AM 6.81 44.258 0.042 6.9 2.05 11.8
4/30/2022 11:00:00 AM 7.07 44.726 0.043 6.91 2.09 11.74
4/30/2022 11:15:00 AM 7.33 45.194 0.043 6.93 2.51 11.67
4/30/2022 11:30:00 AM 7.61 45.698 0.043 6.94 2.19 11.61
4/30/2022 11:45:00 AM 7.9 46.22 0.042 6.91 2.16 11.54
4/30/2022 12:00:00 PM 8.17 46.706 0.042 6.94 2.44 11.47
4/30/2022 12:15:00 PM 8.47 47.246 0.041 6.97 2.62 11.4
4/30/2022 12:30:00 PM 8.77 47.786 0.043 6.96 2.7 11.31
4/30/2022 12:45:00 PM 9.07 48.326 0.041 6.94 4.24 11.23
4/30/2022 1:00:00 PM 9.37 48.866 0.042 6.95 3.1 11.15
4/30/2022 1:15:00 PM 9.64 49.352 0.041 6.96 2.18 11.07
4/30/2022 1:30:00 PM 9.94 49.892 0.042 6.96 2.32 10.99
4/30/2022 1:45:00 PM 10.23 50.414 0.043 6.99 2.36 10.91
4/30/2022 2:00:00 PM 10.5 50.9 0.042 7.02 2.14 10.83
4/30/2022 2:15:00 PM 10.76 51.368 0.042 7.02 2.55 10.76
4/30/2022 2:30:00 PM 10.99 51.782 0.043 7.01 2.31 10.69
4/30/2022 2:45:00 PM 11.19 52.142 0.042 7.02 2.68 10.63
4/30/2022 3:00:00 PM 11.33 52.394 0.041 7.03 2.2 10.58
4/30/2022 3:15:00 PM 11.5 52.7 0.042 7.03 2.3 10.52
4/30/2022 3:30:00 PM 11.68 53.024 0.042 7.02 2.32 10.47
4/30/2022 3:45:00 PM 11.86 53.348 0.043 6.99 2.37 10.41
4/30/2022 4:00:00 PM 11.96 53.528 0.042 7.02 2.3 10.37
4/30/2022 4:15:00 PM 11.99 53.582 0.043 7.02 2.53 10.33
4/30/2022 4:30:00 PM 12.01 53.618 0.042 7 2.61 10.31
4/30/2022 4:45:00 PM 12.07 53.726 0.042 7.02 2.32 10.28
4/30/2022 5:00:00 PM 12.1 53.78 0.042 7 3.01 10.25
4/30/2022 5:15:00 PM 12.08 53.744 0.042 6.99 2.59 10.22
4/30/2022 5:30:00 PM 12.03 53.654 0.043 7.01 2.73 10.2
4/30/2022 5:45:00 PM 11.93 53.474 0.042 6.95 2.56 10.19
4/30/2022 6:00:00 PM 11.81 53.258 0.043 7 2.43 10.18
4/30/2022 6:15:00 PM 11.69 53.042 0.043 6.93 2.61 10.17
4/30/2022 6:30:00 PM 11.54 52.772 0.043 6.97 2.62 10.16
4/30/2022 6:45:00 PM 11.42 52.556 0.043 6.96 2.51 10.15
4/30/2022 7:00:00 PM 11.29 52.322 0.042 6.91 2.92 10.13
4/30/2022 7:15:00 PM 11.17 52.106 0.043 6.91 2.58 10.13
4/30/2022 7:30:00 PM 11.05 51.89 0.043 6.88 2.8 10.12
4/30/2022 7:45:00 PM 10.91 51.638 0.043 6.87 2.59 10.12
4/30/2022 8:00:00 PM 10.77 51.386 0.044 6.83 2.64 10.11
4/30/2022 8:15:00 PM 10.62 51.116 0.044 6.83 2.61 10.1
4/30/2022 8:30:00 PM 10.46 50.828 0.044 6.81 2.66 10.11
4/30/2022 8:45:00 PM 10.29 50.522 0.044 6.78 2.6 10.13
4/30/2022 9:00:00 PM 10.14 50.252 0.044 6.8 2.86 10.15
4/30/2022 9:15:00 PM 9.99 49.982 0.044 6.77 2.63 10.19
4/30/2022 9:30:00 PM 9.83 49.694 0.044 6.78 2.63 10.22
4/30/2022 9:45:00 PM 9.67 49.406 0.043 6.78 2.72 10.26
4/30/2022 10:00:00 PM 9.51 49.118 0.043 6.77 2.65 10.3
4/30/2022 10:15:00 PM 9.35 48.83 0.044 6.77 2.64 10.34
4/30/2022 10:30:00 PM 9.18 48.524 0.044 6.77 3.31 10.39
4/30/2022 10:45:00 PM 9.02 48.236 0.044 6.76 2.96 10.43
4/30/2022 11:00:00 PM 8.86 47.948 0.044 6.76 2.97 10.48
4/30/2022 11:15:00 PM 8.71 47.678 0.044 6.76 2.51 10.52
4/30/2022 11:30:00 PM 8.55 47.39 0.044 6.76 2.53 10.56
4/30/2022 11:45:00 PM 8.4 47.12 0.044 6.75 2.86 10.6
5/1/2022 12:00:00 AM 8.24 46.832 0.044 6.74 2.79 10.64
5/1/2022 12:15:00 AM 8.09 46.562 0.044 6.72 3.13 10.68
5/1/2022 12:30:00 AM 7.95 46.31 0.044 6.74 2.67 10.72
5/1/2022 12:45:00 AM 7.81 46.058 0.044 6.71 2.67 10.76
5/1/2022 1:00:00 AM 7.68 45.824 0.044 6.74 3.03 10.79
5/1/2022 1:15:00 AM 7.56 45.608 0.044 6.75 2.51 10.83
5/1/2022 1:30:00 AM 7.43 45.374 0.044 6.74 2.57 10.87
5/1/2022 1:45:00 AM 7.31 45.158 0.044 6.74 2.63 10.9
5/1/2022 2:00:00 AM 7.19 44.942 0.044 6.75 2.72 10.94
5/1/2022 2:15:00 AM 7.08 44.744 0.044 6.74 2.72 10.97
5/1/2022 2:30:00 AM 6.97 44.546 0.044 6.74 2.53 11
5/1/2022 2:45:00 AM 6.87 44.366 0.044 6.74 2.73 11.03
5/1/2022 3:00:00 AM 6.76 44.168 0.045 6.71 2.61 11.06
5/1/2022 3:15:00 AM 6.67 44.006 0.044 6.71 2.55 11.09
5/1/2022 3:30:00 AM 6.57 43.826 0.045 6.67 2.51 11.12
5/1/2022 3:45:00 AM 6.47 43.646 0.045 6.74 2.67 11.15
5/1/2022 4:00:00 AM 6.38 43.484 0.044 6.72 2.51 11.17
5/1/2022 4:15:00 AM 6.29 43.322 0.044 6.73 2.46 11.2
5/1/2022 4:30:00 AM 6.21 43.178 0.044 6.71 2.42 11.24
5/1/2022 4:45:00 AM 6.12 43.016 0.044 6.69 2.62 11.26
5/1/2022 5:00:00 AM 6.04 42.872 0.044 6.68 2.35 11.28
5/1/2022 5:15:00 AM 5.97 42.746 0.044 6.7 2.48 11.3
5/1/2022 5:30:00 AM 5.89 42.602 0.044 6.67 2.24 11.33
5/1/2022 5:45:00 AM 5.82 42.476 0.044 6.7 2.67 11.36
5/1/2022 6:00:00 AM 5.75 42.35 0.044 6.68 2.39 11.38
5/1/2022 6:15:00 AM 5.69 42.242 0.044 6.7 2.85 11.4
5/1/2022 6:30:00 AM 5.64 42.152 0.044 6.68 2.15 11.44
5/1/2022 6:45:00 AM 5.61 42.098 0.045 6.7 2.52 11.49
5/1/2022 7:00:00 AM 5.59 42.062 0.044 6.72 2.36 11.54
5/1/2022 7:15:00 AM 5.59 42.062 0.044 6.74 2.28 11.59
5/1/2022 7:30:00 AM 5.59 42.062 0.044 6.76 2.37 11.63
5/1/2022 7:45:00 AM 5.6 42.08 0.043 6.76 2.14 11.67
5/1/2022 8:00:00 AM 5.62 42.116 0.043 6.77 2.42 11.71
5/1/2022 8:15:00 AM 5.66 42.188 0.043 6.82 2.24 11.74
5/1/2022 8:30:00 AM 5.75 42.35 0.045 6.78 2.31 11.77
5/1/2022 8:45:00 AM 5.88 42.584 0.043 6.85 2.12 11.79
5/1/2022 9:00:00 AM 6.05 42.89 0.043 6.86 2.12 11.8
5/1/2022 9:15:00 AM 6.21 43.178 0.044 6.9 2.33 11.78
5/1/2022 9:30:00 AM 6.41 43.538 0.043 6.87 1.96 11.77
5/1/2022 9:45:00 AM 6.61 43.898 0.043 6.89 2.33 11.73
5/1/2022 10:00:00 AM 6.67 44.006 0.044 6.91 2.15 11.69
5/1/2022 10:15:00 AM 6.76 44.168 0.043 6.95 2.18 11.66
5/1/2022 10:30:00 AM 6.85 44.33 0.043 6.92 2.15 11.63
5/1/2022 10:45:00 AM 6.91 44.438 0.043 6.95 2.44 11.57
5/1/2022 11:00:00 AM 6.97 44.546 0.043 6.95 2.1 11.54
5/1/2022 11:15:00 AM 7.09 44.762 0.043 6.95 1.93 11.52
5/1/2022 11:30:00 AM 7.21 44.978 0.043 6.95 2.4 11.5
5/1/2022 11:45:00 AM 7.26 45.068 0.043 6.96 2.54 11.43
5/1/2022 12:00:00 PM 7.31 45.158 0.042 6.93 2.18 11.39
5/1/2022 12:15:00 PM 7.38 45.284 0.042 6.94 2.1 11.38
5/1/2022 12:30:00 PM 7.48 45.464 0.043 6.95 2.24 11.37
5/1/2022 12:45:00 PM 7.55 45.59 0.042 6.93 2.22 11.34
5/1/2022 1:00:00 PM 7.58 45.644 0.043 6.92 2.43 11.28
5/1/2022 1:15:00 PM 7.61 45.698 0.043 6.92 2.35 11.24
5/1/2022 1:30:00 PM 7.65 45.77 0.043 6.9 2.06 11.21
5/1/2022 1:45:00 PM 7.7 45.86 0.043 6.91 2.45 11.2
5/1/2022 2:00:00 PM 7.75 45.95 0.043 6.89 2.25 11.19
5/1/2022 2:15:00 PM 7.8 46.04 0.042 6.89 2.43 11.16
5/1/2022 2:30:00 PM 7.85 46.13 0.042 6.88 2.33 11.15
5/1/2022 2:45:00 PM 7.89 46.202 0.043 6.92 2.38 11.13
5/1/2022 3:00:00 PM 7.96 46.328 0.043 6.9 2.9 11.13
5/1/2022 3:15:00 PM 8.02 46.436 0.042 6.89 2.28 11.12
5/1/2022 3:30:00 PM 8.07 46.526 0.043 6.92 2.53 11.1
5/1/2022 3:45:00 PM 8.11 46.598 0.042 6.9 2.5 11.08
5/1/2022 4:00:00 PM 8.16 46.688 0.043 6.92 2.27 11.07
5/1/2022 4:15:00 PM 8.19 46.742 0.043 6.91 2.16 11.04
5/1/2022 4:30:00 PM 8.22 46.796 0.043 6.86 2.35 11.02
5/1/2022 4:45:00 PM 8.24 46.832 0.043 6.89 2.7 11.01
5/1/2022 5:00:00 PM 8.26 46.868 0.043 6.93 2.33 10.99
5/1/2022 5:15:00 PM 8.27 46.886 0.043 6.9 2.44 10.97
5/1/2022 5:30:00 PM 8.28 46.904 0.042 6.85 2.33 10.95
5/1/2022 5:45:00 PM 8.28 46.904 0.043 6.89 2.5 10.92
5/1/2022 6:00:00 PM 8.29 46.922 0.043 6.88 2.2 10.9
5/1/2022 6:15:00 PM 8.28 46.904 0.043 6.88 2.47 10.87
5/1/2022 6:30:00 PM 8.28 46.904 0.043 6.83 2.52 10.85
5/1/2022 6:45:00 PM 8.28 46.904 0.043 6.86 2.33 10.83
5/1/2022 7:00:00 PM 8.28 46.904 0.043 6.82 2.18 10.82
5/1/2022 7:15:00 PM 8.28 46.904 0.043 6.85 2.64 10.81
5/1/2022 7:30:00 PM 8.28 46.904 0.043 6.81 2.41 10.8
5/1/2022 7:45:00 PM 8.28 46.904 0.043 6.83 2.44 10.78
5/1/2022 8:00:00 PM 8.27 46.886 0.043 6.83 2.35 10.75
5/1/2022 8:15:00 PM 8.26 46.868 0.043 6.82 2.33 10.72
5/1/2022 8:30:00 PM 8.25 46.85 0.043 6.79 2.55 10.7
5/1/2022 8:45:00 PM 8.24 46.832 0.044 6.78 2.59 10.69
5/1/2022 9:00:00 PM 8.23 46.814 0.044 6.79 2.58 10.67
5/1/2022 9:15:00 PM 8.23 46.814 0.044 6.78 2.66 10.67
5/1/2022 9:30:00 PM 8.22 46.796 0.044 6.78 2.49 10.67
5/1/2022 9:45:00 PM 8.21 46.778 0.044 6.75 2.52 10.67
5/1/2022 10:00:00 PM 8.21 46.778 0.044 6.73 2.59 10.67
5/1/2022 10:15:00 PM 8.2 46.76 0.044 6.73 2.71 10.67
5/1/2022 10:30:00 PM 8.2 46.76 0.044 6.74 2.46 10.67
5/1/2022 10:45:00 PM 8.19 46.742 0.044 6.77 3.29 10.67
5/1/2022 11:00:00 PM 8.19 46.742 0.044 6.75 2.83 10.67
5/1/2022 11:15:00 PM 8.19 46.742 0.044 6.77 2.74 10.67
5/1/2022 11:30:00 PM 8.19 46.742 0.044 6.74 2.45 10.67
5/1/2022 11:45:00 PM 8.2 46.76 0.044 6.77 2.6 10.67
5/2/2022 12:00:00 AM 8.2 46.76 0.044 6.76 2.83 10.67
5/2/2022 12:15:00 AM 8.19 46.742 0.045 6.76 2.63 10.67
5/2/2022 12:30:00 AM 8.18 46.724 0.045 6.73 2.44 10.67
5/2/2022 12:45:00 AM 8.18 46.724 0.045 6.72 2.53 10.68
5/2/2022 1:00:00 AM 8.18 46.724 0.045 6.75 2.81 10.68
5/2/2022 1:15:00 AM 8.18 46.724 0.044 6.75 2.52 10.67
5/2/2022 1:30:00 AM 8.18 46.724 0.045 6.74 2.62 10.67
5/2/2022 1:45:00 AM 8.17 46.706 0.045 6.75 2.77 10.66
5/2/2022 2:00:00 AM 8.16 46.688 0.045 6.73 2.72 10.66
5/2/2022 2:15:00 AM 8.16 46.688 0.045 6.68 2.57 10.66
5/2/2022 2:30:00 AM 8.16 46.688 0.045 6.72 2.72 10.66
5/2/2022 2:45:00 AM 8.17 46.706 0.045 6.72 2.89 10.66
5/2/2022 3:00:00 AM 8.17 46.706 0.045 6.68 2.59 10.66
5/2/2022 3:15:00 AM 8.16 46.688 0.045 6.71 2.38 10.66
5/2/2022 3:30:00 AM 8.16 46.688 0.045 6.71 2.39 10.66
5/2/2022 3:45:00 AM 8.16 46.688 0.045 6.68 2.63 10.66
5/2/2022 4:00:00 AM 8.15 46.67 0.045 6.71 2.81 10.66
5/2/2022 4:15:00 AM 8.15 46.67 0.045 6.7 2.37 10.66
5/2/2022 4:30:00 AM 8.15 46.67 0.045 6.69 2.59 10.67
5/2/2022 4:45:00 AM 8.14 46.652 0.045 6.69 2.34 10.67
5/2/2022 5:00:00 AM 8.14 46.652 0.045 6.64 2.38 10.66
5/2/2022 5:15:00 AM 8.14 46.652 0.045 6.7 2.76 10.67
5/2/2022 5:30:00 AM 8.14 46.652 0.045 6.69 2.41 10.67
5/2/2022 5:45:00 AM 8.14 46.652 0.045 6.64 2.65 10.67
5/2/2022 6:00:00 AM 8.13 46.634 0.045 6.68 2.92 10.67
5/2/2022 6:15:00 AM 8.13 46.634 0.045 6.66 2.62 10.68
5/2/2022 6:30:00 AM 8.13 46.634 0.045 6.68 2.77 10.69
5/2/2022 6:45:00 AM 8.13 46.634 0.045 6.64 2.56 10.72
5/2/2022 7:00:00 AM 8.14 46.652 0.045 6.68 2.57 10.75
5/2/2022 7:15:00 AM 8.17 46.706 0.045 6.72 2.36 10.81
5/2/2022 7:30:00 AM 8.22 46.796 0.045 6.74 2.68 10.86
5/2/2022 7:45:00 AM 8.26 46.868 0.045 6.76 2.14 10.88
5/2/2022 8:00:00 AM 8.27 46.886 0.045 6.77 2.31 10.88
5/2/2022 8:15:00 AM 8.29 46.922 0.045 6.75 2.35 10.88
5/2/2022 8:30:00 AM 8.29 46.922 0.045 6.76 2.34 10.85
5/2/2022 8:45:00 AM 8.39 47.102 0.045 6.78 2.25 10.93
5/2/2022 9:00:00 AM 8.6 47.48 0.045 6.83 2.31 10.97
5/2/2022 9:15:00 AM 8.76 47.768 0.045 6.85 2.13 11.01
5/2/2022 9:30:00 AM 8.88 47.984 0.044 6.86 2.1 11.01
5/2/2022 9:45:00 AM 8.98 48.164 0.044 6.92 2.31 11.02
5/2/2022 10:00:00 AM 9.05 48.29 0.044 6.93 2.06 11
5/2/2022 10:15:00 AM 9.15 48.47 0.044 6.96 2.32 11
5/2/2022 10:30:00 AM 9.14 48.452 0.044 6.96 2.12 10.92
5/2/2022 10:45:00 AM 9.13 48.434 0.044 6.93 2.36 10.86
5/2/2022 11:00:00 AM 9.12 48.416 0.044 6.93 2.37 10.79
5/2/2022 11:15:00 AM 9.11 48.398 0.044 6.91 2.47 10.76
5/2/2022 11:30:00 AM 9.11 48.398 0.044 6.89 2.34 10.76
5/2/2022 11:45:00 AM 9.1 48.38 0.044 6.88 2.22 10.74
5/2/2022 12:00:00 PM 9.08 48.344 0.044 6.91 2.3 10.73
5/2/2022 12:15:00 PM 9.09 48.362 0.044 6.91 2.34 10.77
5/2/2022 12:30:00 PM 9.3 48.74 0.044 6.87 2.31 10.84
5/2/2022 12:45:00 PM 9.55 49.19 0.044 6.95 2.3 10.86
5/2/2022 1:00:00 PM 9.9 49.82 0.044 6.96 2.4 10.85
5/2/2022 1:15:00 PM 9.93 49.874 0.044 6.95 2.45 10.8
5/2/2022 1:30:00 PM 10.17 50.306 0.044 7 2.44 10.79
5/2/2022 1:45:00 PM 10.55 50.99 0.044 7.01 2.45 10.76
5/2/2022 2:00:00 PM 10.82 51.476 0.044 6.99 2.83 10.69
5/2/2022 2:15:00 PM 10.94 51.692 0.044 7.02 2.47 10.63
5/2/2022 2:30:00 PM 10.96 51.728 0.044 6.99 2.43 10.6
5/2/2022 2:45:00 PM 10.97 51.746 0.043 7.03 2.44 10.57
5/2/2022 3:00:00 PM 11.02 51.836 0.044 7.01 2.63 10.54
5/2/2022 3:15:00 PM 11.03 51.854 0.044 7.02 2.77 10.51
5/2/2022 3:30:00 PM 11.05 51.89 0.043 7.04 2.31 10.5
5/2/2022 3:45:00 PM 11.06 51.908 0.044 7.02 2.63 10.48
5/2/2022 4:00:00 PM 11.09 51.962 0.044 7.03 2.72 10.47
5/2/2022 4:15:00 PM 11.09 51.962 0.043 7.04 2.55 10.46
5/2/2022 4:30:00 PM 11.1 51.98 0.044 7.04 2.7 10.44
5/2/2022 4:45:00 PM 11.08 51.944 0.044 7.02 2.59 10.41
5/2/2022 5:00:00 PM 11.05 51.89 0.044 7 2.71 10.4
5/2/2022 5:15:00 PM 11.01 51.818 0.043 7.01 2.63 10.38
5/2/2022 5:30:00 PM 10.97 51.746 0.044 6.97 2.65 10.38
5/2/2022 5:45:00 PM 10.92 51.656 0.044 6.97 2.6 10.35
5/2/2022 6:00:00 PM 10.88 51.584 0.044 6.96 2.63 10.35
5/2/2022 6:15:00 PM 10.84 51.512 0.044 6.96 2.71 10.32
5/2/2022 6:30:00 PM 10.78 51.404 0.044 6.9 2.76 10.29
5/2/2022 6:45:00 PM 10.74 51.332 0.044 6.94 2.57 10.28
5/2/2022 7:00:00 PM 10.7 51.26 0.044 6.88 2.51 10.25
5/2/2022 7:15:00 PM 10.65 51.17 0.044 6.91 2.59 10.22
5/2/2022 7:30:00 PM 10.59 51.062 0.045 6.87 2.67 10.2
5/2/2022 7:45:00 PM 10.54 50.972 0.044 6.88 2.48 10.18
5/2/2022 8:00:00 PM 10.47 50.846 0.044 6.86 2.63 10.17
5/2/2022 8:15:00 PM 10.41 50.738 0.044 6.84 2.55 10.16
5/2/2022 8:30:00 PM 10.35 50.63 0.045 6.84 2.53 10.15
5/2/2022 8:45:00 PM 10.29 50.522 0.045 6.83 2.6 10.15
5/2/2022 9:00:00 PM 10.22 50.396 0.045 6.8 2.61 10.16
5/2/2022 9:15:00 PM 10.13 50.234 0.045 6.77 2.78 10.17
5/2/2022 9:30:00 PM 10.02 50.036 0.044 6.78 2.76 10.19
5/2/2022 9:45:00 PM 9.91 49.838 0.045 6.77 2.88 10.21
5/2/2022 10:00:00 PM 9.8 49.64 0.045 6.76 3.41 10.23
5/2/2022 10:15:00 PM 9.7 49.46 0.045 6.78 2.72 10.26
5/2/2022 10:30:00 PM 9.59 49.262 0.045 6.77 2.88 10.28
5/2/2022 10:45:00 PM 9.48 49.064 0.045 6.78 2.78 10.31
5/2/2022 11:00:00 PM 9.38 48.884 0.045 6.78 3 10.34
5/2/2022 11:15:00 PM 9.26 48.668 0.045 6.77 2.92 10.38
5/2/2022 11:30:00 PM 9.15 48.47 0.045 6.76 2.91 10.41
5/2/2022 11:45:00 PM 9.04 48.272 0.045 6.77 2.82 10.43
5/3/2022 12:00:00 AM 8.94 48.092 0.045 6.78 2.86 10.46
5/3/2022 12:15:00 AM 8.83 47.894 0.045 6.76 2.7 10.48
5/3/2022 12:30:00 AM 8.73 47.714 0.045 6.77 3.35 10.51
5/3/2022 12:45:00 AM 8.63 47.534 0.045 6.75 2.6 10.54
5/3/2022 1:00:00 AM 8.53 47.354 0.045 6.77 2.69 10.57
5/3/2022 1:15:00 AM 8.43 47.174 0.045 6.75 2.63 10.6
5/3/2022 1:30:00 AM 8.33 46.994 0.046 6.77 2.79 10.62
5/3/2022 1:45:00 AM 8.24 46.832 0.045 6.75 2.8 10.65
5/3/2022 2:00:00 AM 8.14 46.652 0.046 6.76 3.04 10.67
5/3/2022 2:15:00 AM 8.05 46.49 0.046 6.74 2.75 10.69
5/3/2022 2:30:00 AM 7.97 46.346 0.045 6.75 2.88 10.72
5/3/2022 2:45:00 AM 7.88 46.184 0.045 6.76 2.98 10.75
5/3/2022 3:00:00 AM 7.79 46.022 0.046 6.76 2.61 10.77
5/3/2022 3:15:00 AM 7.7 45.86 0.045 6.76 2.93 10.8
5/3/2022 3:30:00 AM 7.62 45.716 0.045 6.75 2.63 10.82
5/3/2022 3:45:00 AM 7.53 45.554 0.045 6.74 2.84 10.84
5/3/2022 4:00:00 AM 7.46 45.428 0.045 6.75 2.63 10.86
5/3/2022 4:15:00 AM 7.39 45.302 0.045 6.74 2.91 10.88
5/3/2022 4:30:00 AM 7.31 45.158 0.046 6.74 2.58 10.91
5/3/2022 4:45:00 AM 7.25 45.05 0.045 6.75 2.79 10.93
5/3/2022 5:00:00 AM 7.2 44.96 0.045 6.75 2.88 10.95
5/3/2022 5:15:00 AM 7.16 44.888 0.045 6.71 2.75 10.96
5/3/2022 5:30:00 AM 7.11 44.798 0.045 6.73 2.74 10.98
5/3/2022 5:45:00 AM 7.06 44.708 0.045 6.73 2.76 11
5/3/2022 6:00:00 AM 7.02 44.636 0.046 6.74 2.57 11.01
5/3/2022 6:15:00 AM 6.98 44.564 0.046 6.73 2.98 11.03
5/3/2022 6:30:00 AM 6.95 44.51 0.045 6.7 2.47 11.07
5/3/2022 6:45:00 AM 6.94 44.492 0.045 6.71 2.81 11.1
5/3/2022 7:00:00 AM 6.93 44.474 0.045 6.72 2.53 11.16
5/3/2022 7:15:00 AM 6.93 44.474 0.046 6.77 2.86 11.22
5/3/2022 7:30:00 AM 6.94 44.492 0.045 6.79 2.59 11.26
5/3/2022 7:45:00 AM 6.97 44.546 0.045 6.81 2.82 11.31
5/3/2022 8:00:00 AM 6.98 44.564 0.045 6.76 2.89 11.34
5/3/2022 8:15:00 AM 7.03 44.654 0.044 6.81 2.59 11.38
5/3/2022 8:30:00 AM 7.1 44.78 0.044 6.82 2.31 11.41
5/3/2022 8:45:00 AM 7.19 44.942 0.044 6.88 2.48 11.44
5/3/2022 9:00:00 AM 7.31 45.158 0.044 6.89 2.3 11.45
5/3/2022 9:15:00 AM 7.42 45.356 0.043 6.91 2.4 11.45
5/3/2022 9:30:00 AM 7.56 45.608 0.044 6.93 2.14 11.45
5/3/2022 9:45:00 AM 7.68 45.824 0.045 6.92 2.37 11.43
5/3/2022 10:00:00 AM 7.82 46.076 0.045 6.92 2.15 11.41
5/3/2022 10:15:00 AM 8.02 46.436 0.043 6.93 2.21 11.38
5/3/2022 10:30:00 AM 8.21 46.778 0.043 6.91 2.45 11.34
5/3/2022 10:45:00 AM 8.45 47.21 0.044 6.97 2.34 11.3
5/3/2022 11:00:00 AM 8.66 47.588 0.044 6.96 2.14 11.25
5/3/2022 11:15:00 AM 8.78 47.804 0.043 6.98 2.37 11.19
5/3/2022 11:30:00 AM 8.85 47.93 0.044 7 2.38 11.14
5/3/2022 11:45:00 AM 8.91 48.038 0.044 6.97 2.58 11.11
5/3/2022 12:00:00 PM 9.01 48.218 0.043 6.94 2.57 11.08
5/3/2022 12:15:00 PM 9.21 48.578 0.043 6.97 2.51 11.05
5/3/2022 12:30:00 PM 9.43 48.974 0.043 6.98 2.32 11.01
5/3/2022 12:45:00 PM 9.65 49.37 0.043 7.03 2.11 10.96
5/3/2022 1:00:00 PM 9.82 49.676 0.043 7.01 2.14 10.92
5/3/2022 1:15:00 PM 9.95 49.91 0.043 7.04 2.81 10.87
5/3/2022 1:30:00 PM 10.04 50.072 0.043 7.04 3.15 10.84
5/3/2022 1:45:00 PM 10.12 50.216 0.043 7.03 2.36 10.8
5/3/2022 2:00:00 PM 10.21 50.378 0.044 7.02 2.26 10.76
5/3/2022 2:15:00 PM 10.25 50.45 0.043 6.98 2.7 10.71
5/3/2022 2:30:00 PM 10.27 50.486 0.043 6.98 3.14 10.65
5/3/2022 2:45:00 PM 10.32 50.576 0.043 6.99 2.4 10.64
5/3/2022 3:00:00 PM 10.38 50.684 0.043 6.98 2.48 10.61
5/3/2022 3:15:00 PM 10.44 50.792 0.043 6.97 2.57 10.6
5/3/2022 3:30:00 PM 10.48 50.864 0.043 6.99 2.76 10.58
5/3/2022 3:45:00 PM 10.5 50.9 0.043 7 2.57 10.55
5/3/2022 4:00:00 PM 10.51 50.918 0.043 7 2.53 10.52
5/3/2022 4:15:00 PM 10.53 50.954 0.043 7 2.31 10.5
5/3/2022 4:30:00 PM 10.55 50.99 0.043 6.99 3.15 10.49
5/3/2022 4:45:00 PM 10.56 51.008 0.043 6.97 2.85 10.45
5/3/2022 5:00:00 PM 10.63 51.134 0.043 6.97 2.74 10.46
5/3/2022 5:15:00 PM 10.7 51.26 0.043 7 2.66 10.46
5/3/2022 5:30:00 PM 10.73 51.314 0.043 6.98 2.54 10.44
5/3/2022 5:45:00 PM 10.75 51.35 0.044 6.93 2.46 10.42
5/3/2022 6:00:00 PM 10.76 51.368 0.044 6.98 2.3 10.39
5/3/2022 6:15:00 PM 10.79 51.422 0.044 6.98 2.58 10.39
5/3/2022 6:30:00 PM 10.8 51.44 0.044 6.98 2.88 10.36
5/3/2022 6:45:00 PM 10.8 51.44 0.044 6.93 2.77 10.34
5/3/2022 7:00:00 PM 10.81 51.458 0.044 6.96 2.68 10.29
5/3/2022 7:15:00 PM 10.79 51.422 0.044 6.94 2.38 10.24
5/3/2022 7:30:00 PM 10.76 51.368 0.044 6.93 2.6 10.21
5/3/2022 7:45:00 PM 10.72 51.296 0.044 6.87 2.32 10.16
5/3/2022 8:00:00 PM 10.69 51.242 0.044 6.89 2.8 10.11
5/3/2022 8:15:00 PM 10.66 51.188 0.044 6.88 3.25 10.08
5/3/2022 8:30:00 PM 10.62 51.116 0.045 6.83 3.08 10.06
5/3/2022 8:45:00 PM 10.58 51.044 0.045 6.83 2.9 10.04
5/3/2022 9:00:00 PM 10.56 51.008 0.045 6.81 3.11 10.04
5/3/2022 9:15:00 PM 10.53 50.954 0.045 6.81 3.13 10.03
5/3/2022 9:30:00 PM 10.5 50.9 0.045 6.81 3.4 10.03
5/3/2022 9:45:00 PM 10.46 50.828 0.045 6.8 4.58 10.03
5/3/2022 10:00:00 PM 10.42 50.756 0.045 6.78 3.18 10.03
5/3/2022 10:15:00 PM 10.38 50.684 0.045 6.77 3.2 10.04
5/3/2022 10:30:00 PM 10.33 50.594 0.045 6.79 3.02 10.05
5/3/2022 10:45:00 PM 10.3 50.54 0.045 6.79 3.35 10.06
5/3/2022 11:00:00 PM 10.26 50.468 0.046 6.74 2.88 10.07
5/3/2022 11:15:00 PM 10.23 50.414 0.046 6.78 2.96 10.08
5/3/2022 11:30:00 PM 10.2 50.36 0.046 6.75 3.23 10.09
5/3/2022 11:45:00 PM 10.16 50.288 0.045 6.75 3.11 10.1
5/4/2022 12:00:00 AM 10.14 50.252 0.045 6.72 3.26 10.1
5/4/2022 12:15:00 AM 10.11 50.198 0.046 6.75 3.12 10.11
5/4/2022 12:30:00 AM 10.09 50.162 0.045 6.73 2.88 10.11
5/4/2022 12:45:00 AM 10.08 50.144 0.045 6.76 3.46 10.11
5/4/2022 1:00:00 AM 10.05 50.09 0.045 6.75 3.29 10.12
5/4/2022 1:15:00 AM 10.03 50.054 0.046 6.76 2.67 10.13
5/4/2022 1:30:00 AM 10.02 50.036 0.045 6.74 2.68 10.13
5/4/2022 1:45:00 AM 10 50 0.046 6.77 3.08 10.13
5/4/2022 2:00:00 AM 9.98 49.964 0.046 6.72 2.79 10.14
5/4/2022 2:15:00 AM 9.96 49.928 0.046 6.76 2.82 10.14
5/4/2022 2:30:00 AM 9.93 49.874 0.046 6.77 2.81 10.15
5/4/2022 2:45:00 AM 9.91 49.838 0.046 6.78 2.84 10.15
5/4/2022 3:00:00 AM 9.89 49.802 0.046 6.78 3 10.16
5/4/2022 3:15:00 AM 9.88 49.784 0.046 6.77 3 10.16
5/4/2022 3:30:00 AM 9.87 49.766 0.046 6.74 2.82 10.17
5/4/2022 3:45:00 AM 9.86 49.748 0.046 6.77 2.81 10.17
5/4/2022 4:00:00 AM 9.84 49.712 0.046 6.76 2.86 10.17
5/4/2022 4:15:00 AM 9.84 49.712 0.046 6.76 2.83 10.18
5/4/2022 4:30:00 AM 9.82 49.676 0.046 6.74 2.72 10.18
5/4/2022 4:45:00 AM 9.81 49.658 0.047 6.74 2.69 10.19
5/4/2022 5:00:00 AM 9.79 49.622 0.046 6.74 2.73 10.19
5/4/2022 5:15:00 AM 9.77 49.586 0.047 6.76 2.55 10.2
5/4/2022 5:30:00 AM 9.76 49.568 0.047 6.78 3.36 10.2
5/4/2022 5:45:00 AM 9.75 49.55 0.047 6.76 2.93 10.21
5/4/2022 6:00:00 AM 9.74 49.532 0.047 6.77 2.76 10.21
5/4/2022 6:15:00 AM 9.72 49.496 0.047 6.78 2.67 10.21
5/4/2022 6:30:00 AM 9.7 49.46 0.047 6.76 2.65 10.22
5/4/2022 6:45:00 AM 9.69 49.442 0.047 6.77 2.8 10.23
5/4/2022 7:00:00 AM 9.67 49.406 0.046 6.77 3.12 10.24
5/4/2022 7:15:00 AM 9.67 49.406 0.047 6.77 2.68 10.25
5/4/2022 7:30:00 AM 9.67 49.406 0.047 6.79 2.49 10.28
5/4/2022 7:45:00 AM 9.67 49.406 0.047 6.75 2.56 10.31
5/4/2022 8:00:00 AM 9.67 49.406 0.047 6.79 2.48 10.33
5/4/2022 8:15:00 AM 9.68 49.424 0.047 6.79 2.25 10.37
5/4/2022 8:30:00 AM 9.7 49.46 0.047 6.8 2.44 10.41
5/4/2022 8:45:00 AM 9.72 49.496 0.047 6.83 2.68 10.44
5/4/2022 9:00:00 AM 9.73 49.514 0.047 6.83 2.62 10.44
5/4/2022 9:15:00 AM 9.77 49.586 0.047 6.81 3.07 10.49
5/4/2022 9:30:00 AM 9.82 49.676 0.047 6.82 2.28 10.52
5/4/2022 9:45:00 AM 9.84 49.712 0.047 6.85 2.51 10.51
5/4/2022 10:00:00 AM 9.86 49.748 0.047 6.87 2.31 10.54
5/4/2022 10:15:00 AM 9.91 49.838 0.047 6.86 2.48 10.55
5/4/2022 10:30:00 AM 9.98 49.964 0.047 6.89 2.5 10.57
5/4/2022 10:45:00 AM 10.05 50.09 0.047 6.91 2.61 10.58
5/4/2022 11:00:00 AM 10.09 50.162 0.046 6.93 2.54 10.57
5/4/2022 11:15:00 AM 10.19 50.342 0.047 6.93 2.5 10.59
5/4/2022 11:30:00 AM 10.43 50.774 0.047 6.93 2.28 10.6
5/4/2022 11:45:00 AM 10.55 50.99 0.047 6.97 2.27 10.56
5/4/2022 12:00:00 PM 10.6 51.08 0.047 6.93 2.51 10.52
5/4/2022 12:15:00 PM 10.59 51.062 0.046 6.92 2.91 10.51
5/4/2022 12:30:00 PM 10.64 51.152 0.047 6.93 2.44 10.49
5/4/2022 12:45:00 PM 10.69 51.242 0.047 6.96 2.68 10.46
5/4/2022 1:00:00 PM 10.81 51.458 0.047 6.96 2.74 10.47
5/4/2022 1:15:00 PM 10.84 51.512 0.047 6.97 2.33 10.4
5/4/2022 1:30:00 PM 10.91 51.638 0.047 6.97 3.01 10.42
5/4/2022 1:45:00 PM 11.04 51.872 0.047 6.95 3.31 10.43
5/4/2022 2:00:00 PM 11.15 52.07 0.047 6.98 2.51 10.43
5/4/2022 2:15:00 PM 11.18 52.124 0.047 6.99 2.68 10.42
5/4/2022 2:30:00 PM 11.35 52.43 0.047 6.99 2.74 10.43
5/4/2022 2:45:00 PM 11.39 52.502 0.047 6.97 2.54 10.4
5/4/2022 3:00:00 PM 11.51 52.718 0.047 7.02 2.58 10.4
5/4/2022 3:15:00 PM 11.59 52.862 0.047 7.02 2.38 10.36
5/4/2022 3:30:00 PM 11.61 52.898 0.047 7.02 2.67 10.32
5/4/2022 3:45:00 PM 11.58 52.844 0.048 7.01 2.74 10.29
5/4/2022 4:00:00 PM 11.51 52.718 0.047 6.98 2.64 10.25
5/4/2022 4:15:00 PM 11.48 52.664 0.048 7 2.66 10.24
5/4/2022 4:30:00 PM 11.5 52.7 0.048 7 2.48 10.25
5/4/2022 4:45:00 PM 11.49 52.682 0.049 6.99 2.7 10.22
5/4/2022 5:00:00 PM 11.46 52.628 0.049 6.98 2.56 10.22
5/4/2022 5:15:00 PM 11.4 52.52 0.048 6.97 2.64 10.19
5/4/2022 5:30:00 PM 11.36 52.448 0.049 6.97 2.94 10.18
5/4/2022 5:45:00 PM 11.32 52.376 0.049 6.94 2.87 10.18
5/4/2022 6:00:00 PM 11.29 52.322 0.049 6.96 2.49 10.19
5/4/2022 6:15:00 PM 11.25 52.25 0.049 6.94 2.52 10.18
5/4/2022 6:30:00 PM 11.2 52.16 0.05 6.95 2.67 10.17
5/4/2022 6:45:00 PM 11.14 52.052 0.05 6.91 2.37 10.17
5/4/2022 7:00:00 PM 11.09 51.962 0.05 6.93 2.65 10.18
5/4/2022 7:15:00 PM 11.02 51.836 0.05 6.92 2.59 10.16
5/4/2022 7:30:00 PM 10.95 51.71 0.049 6.91 2.51 10.14
5/4/2022 7:45:00 PM 10.87 51.566 0.05 6.87 2.42 10.12
5/4/2022 8:00:00 PM 10.79 51.422 0.05 6.85 2.6 10.1
5/4/2022 8:15:00 PM 10.72 51.296 0.05 6.84 2.37 10.08
5/4/2022 8:30:00 PM 10.65 51.17 0.05 6.83 2.57 10.07
5/4/2022 8:45:00 PM 10.59 51.062 0.05 6.8 2.66 10.07
5/4/2022 9:00:00 PM 10.53 50.954 0.05 6.84 2.78 10.07
5/4/2022 9:15:00 PM 10.47 50.846 0.05 6.81 2.54 10.08
5/4/2022 9:30:00 PM 10.41 50.738 0.051 6.8 2.6 10.09
5/4/2022 9:45:00 PM 10.35 50.63 0.051 6.79 2.67 10.11
5/4/2022 10:00:00 PM 10.3 50.54 0.051 6.79 2.81 10.12
5/4/2022 10:15:00 PM 10.25 50.45 0.052 6.8 2.82 10.14
5/4/2022 10:30:00 PM 10.2 50.36 0.052 6.79 2.66 10.15
5/4/2022 10:45:00 PM 10.15 50.27 0.051 6.82 3.28 10.17
5/4/2022 11:00:00 PM 10.1 50.18 0.051 6.79 3.73 10.18
5/4/2022 11:15:00 PM 10.06 50.108 0.051 6.81 2.93 10.19
5/4/2022 11:30:00 PM 10.01 50.018 0.051 6.8 2.78 10.2
5/4/2022 11:45:00 PM 9.97 49.946 0.051 6.81 3.08 10.21
5/5/2022 12:00:00 AM 9.92 49.856 0.052 6.77 2.76 10.23
5/5/2022 12:15:00 AM 9.87 49.766 0.052 6.78 2.76 10.24
5/5/2022 12:30:00 AM 9.82 49.676 0.052 6.76 2.93 10.26
5/5/2022 12:45:00 AM 9.77 49.586 0.052 6.79 2.84 10.27
5/5/2022 1:00:00 AM 9.71 49.478 0.052 6.78 2.66 10.28
5/5/2022 1:15:00 AM 9.65 49.37 0.051 6.78 2.61 10.3
5/5/2022 1:30:00 AM 9.59 49.262 0.051 6.77 2.8 10.31
5/5/2022 1:45:00 AM 9.52 49.136 0.051 6.77 2.51 10.33
5/5/2022 2:00:00 AM 9.45 49.01 0.052 6.76 2.87 10.34
5/5/2022 2:15:00 AM 9.37 48.866 0.052 6.78 2.63 10.36
5/5/2022 2:30:00 AM 9.29 48.722 0.052 6.76 2.64 10.38
5/5/2022 2:45:00 AM 9.22 48.596 0.051 6.78 2.84 10.39
5/5/2022 3:00:00 AM 9.15 48.47 0.052 6.74 2.81 10.41
5/5/2022 3:15:00 AM 9.07 48.326 0.052 6.78 2.6 10.43
5/5/2022 3:30:00 AM 9 48.2 0.052 6.78 2.59 10.45
5/5/2022 3:45:00 AM 8.93 48.074 0.052 6.76 2.66 10.46
5/5/2022 4:00:00 AM 8.86 47.948 0.052 6.75 2.71 10.49
5/5/2022 4:15:00 AM 8.78 47.804 0.052 6.75 2.53 10.5
5/5/2022 4:30:00 AM 8.71 47.678 0.051 6.78 2.85 10.52
5/5/2022 4:45:00 AM 8.63 47.534 0.051 6.76 2.57 10.55
5/5/2022 5:00:00 AM 8.56 47.408 0.051 6.75 2.94 10.56
5/5/2022 5:15:00 AM 8.49 47.282 0.051 6.76 2.39 10.58
5/5/2022 5:30:00 AM 8.41 47.138 0.052 6.77 3.56 10.6
5/5/2022 5:45:00 AM 8.34 47.012 0.051 6.74 3.51 10.62
5/5/2022 6:00:00 AM 8.26 46.868 0.052 6.77 3.49 10.65
5/5/2022 6:15:00 AM 8.2 46.76 0.051 6.72 2.92 10.67
5/5/2022 6:30:00 AM 8.15 46.67 0.051 6.73 2.61 10.71
5/5/2022 6:45:00 AM 8.12 46.616 0.051 6.76 2.52 10.76
5/5/2022 7:00:00 AM 8.08 46.544 0.051 6.78 2.75 10.82
5/5/2022 7:15:00 AM 8.04 46.472 0.051 6.79 2.53 10.87
5/5/2022 7:30:00 AM 8.03 46.454 0.051 6.8 2.73 10.92
5/5/2022 7:45:00 AM 8.06 46.508 0.051 6.78 2.51 10.97
5/5/2022 8:00:00 AM 8.12 46.616 0.051 6.84 2.42 11.01
5/5/2022 8:15:00 AM 8.22 46.796 0.05 6.82 2.18 11.05
5/5/2022 8:30:00 AM 8.32 46.976 0.05 6.87 2.32 11.07
5/5/2022 8:45:00 AM 8.45 47.21 0.051 6.87 2.41 11.09
5/5/2022 9:00:00 AM 8.6 47.48 0.05 6.9 2.52 11.09
5/5/2022 9:15:00 AM 8.75 47.75 0.05 6.89 2.36 11.08
5/5/2022 9:30:00 AM 8.94 48.092 0.05 6.89 2.44 11.06
5/5/2022 9:45:00 AM 9.11 48.398 0.05 6.94 2.16 11.04
5/5/2022 10:00:00 AM 9.3 48.74 0.05 6.96 2.59 11.01
5/5/2022 10:15:00 AM 9.47 49.046 0.05 6.96 2.28 10.98
5/5/2022 10:30:00 AM 9.68 49.424 0.05 6.99 2.48 10.94
5/5/2022 10:45:00 AM 9.91 49.838 0.05 6.97 2.14 10.9
5/5/2022 11:00:00 AM 10.18 50.324 0.049 6.99 2.24 10.85
5/5/2022 11:15:00 AM 10.43 50.774 0.049 6.99 2.29 10.8
5/5/2022 11:30:00 AM 10.69 51.242 0.049 7.01 2.4 10.74
5/5/2022 11:45:00 AM 10.91 51.638 0.049 6.98 2.22 10.69
5/5/2022 12:00:00 PM 11.14 52.052 0.049 7.02 2.23 10.64
5/5/2022 12:15:00 PM 11.39 52.502 0.049 7 2.35 10.58
5/5/2022 12:30:00 PM 11.63 52.934 0.049 7.05 2.39 10.53
5/5/2022 12:45:00 PM 11.87 53.366 0.049 7.03 2.21 10.47
5/5/2022 1:00:00 PM 12.05 53.69 0.048 7.03 2.3 10.42
5/5/2022 1:15:00 PM 12.17 53.906 0.049 6.99 2.33 10.37
5/5/2022 1:30:00 PM 12.32 54.176 0.048 7.04 2.8 10.33
5/5/2022 1:45:00 PM 12.45 54.41 0.049 7.05 2.45 10.29
5/5/2022 2:00:00 PM 12.64 54.752 0.049 7.07 3.01 10.25
5/5/2022 2:15:00 PM 12.87 55.166 0.049 7.07 2.74 10.19
5/5/2022 2:30:00 PM 13.06 55.508 0.049 7.06 3.1 10.14
5/5/2022 2:45:00 PM 13.26 55.868 0.048 7.05 2.68 10.09
5/5/2022 3:00:00 PM 13.37 56.066 0.048 7.07 2.7 10.05
5/5/2022 3:15:00 PM 13.42 56.156 0.048 7.07 2.89 10.02
5/5/2022 3:30:00 PM 13.51 56.318 0.048 7.06 2.58 9.99
5/5/2022 3:45:00 PM 13.55 56.39 0.048 7.07 2.71 9.96
5/5/2022 4:00:00 PM 13.63 56.534 0.049 7.06 2.64 9.94
5/5/2022 4:15:00 PM 13.71 56.678 0.049 7.06 2.82 9.91
5/5/2022 4:30:00 PM 13.76 56.768 0.048 7.04 2.88 9.89
5/5/2022 4:45:00 PM 13.71 56.678 0.048 7.06 2.74 9.88
5/5/2022 5:00:00 PM 13.66 56.588 0.048 7.03 2.89 9.86
5/5/2022 5:15:00 PM 13.57 56.426 0.048 7.03 2.75 9.84
5/5/2022 5:30:00 PM 13.5 56.3 0.048 7.04 2.75 9.83
5/5/2022 5:45:00 PM 13.38 56.084 0.048 7.03 2.8 9.82
5/5/2022 6:00:00 PM 13.26 55.868 0.048 7.03 2.56 9.8
5/5/2022 6:15:00 PM 13.15 55.67 0.048 7.01 2.64 9.79
5/5/2022 6:30:00 PM 13.03 55.454 0.049 7 2.48 9.78
5/5/2022 6:45:00 PM 12.92 55.256 0.049 6.97 2.41 9.78
5/5/2022 7:00:00 PM 12.81 55.058 0.049 6.98 2.49 9.76
5/5/2022 7:15:00 PM 12.69 54.842 0.049 6.96 2.77 9.74
5/5/2022 7:30:00 PM 12.59 54.662 0.049 6.95 2.31 9.72
5/5/2022 7:45:00 PM 12.47 54.446 0.049 6.93 2.6 9.69
5/5/2022 8:00:00 PM 12.37 54.266 0.049 6.9 2.74 9.68
5/5/2022 8:15:00 PM 12.27 54.086 0.049 6.89 2.93 9.67
5/5/2022 8:30:00 PM 12.17 53.906 0.049 6.85 2.89 9.67
5/5/2022 8:45:00 PM 12.08 53.744 0.05 6.86 2.83 9.67
5/5/2022 9:00:00 PM 11.98 53.564 0.049 6.84 2.74 9.68
5/5/2022 9:15:00 PM 11.89 53.402 0.05 6.84 3.03 9.69
5/5/2022 9:30:00 PM 11.79 53.222 0.05 6.81 2.91 9.71
5/5/2022 9:45:00 PM 11.69 53.042 0.05 6.8 2.95 9.73
5/5/2022 10:00:00 PM 11.59 52.862 0.05 6.82 2.96 9.75
5/5/2022 10:15:00 PM 11.49 52.682 0.05 6.82 2.83 9.77
5/5/2022 10:30:00 PM 11.39 52.502 0.05 6.81 3.01 9.8
5/5/2022 10:45:00 PM 11.29 52.322 0.05 6.81 2.7 9.82
5/5/2022 11:00:00 PM 11.18 52.124 0.05 6.79 2.6 9.85
5/5/2022 11:15:00 PM 11.08 51.944 0.05 6.82 2.98 9.87
5/5/2022 11:30:00 PM 10.98 51.764 0.05 6.8 2.68 9.89
5/5/2022 11:45:00 PM 10.88 51.584 0.05 6.81 2.89 9.92
5/6/2022 12:00:00 AM 10.79 51.422 0.05 6.8 2.78 9.94
5/6/2022 12:15:00 AM 10.7 51.26 0.05 6.8 2.61 9.96
5/6/2022 12:30:00 AM 10.62 51.116 0.05 6.81 2.79 9.99
5/6/2022 12:45:00 AM 10.54 50.972 0.05 6.8 3.03 10.01
5/6/2022 1:00:00 AM 10.45 50.81 0.05 6.79 2.55 10.03
5/6/2022 1:15:00 AM 10.37 50.666 0.05 6.8 2.78 10.06
5/6/2022 1:30:00 AM 10.29 50.522 0.05 6.8 2.9 10.07
5/6/2022 1:45:00 AM 10.22 50.396 0.05 6.78 3.11 10.09
5/6/2022 2:00:00 AM 10.15 50.27 0.05 6.78 2.65 10.11
5/6/2022 2:15:00 AM 10.08 50.144 0.05 6.79 2.91 10.13
5/6/2022 2:30:00 AM 10.02 50.036 0.05 6.79 2.9 10.14
5/6/2022 2:45:00 AM 9.96 49.928 0.05 6.79 2.88 10.16
5/6/2022 3:00:00 AM 9.91 49.838 0.05 6.78 2.77 10.17
5/6/2022 3:15:00 AM 9.85 49.73 0.05 6.78 2.87 10.19
5/6/2022 3:30:00 AM 9.8 49.64 0.05 6.77 2.9 10.2
5/6/2022 3:45:00 AM 9.74 49.532 0.05 6.8 3.03 10.22
5/6/2022 4:00:00 AM 9.69 49.442 0.05 6.76 3.09 10.23
5/6/2022 4:15:00 AM 9.63 49.334 0.05 6.79 2.67 10.24
5/6/2022 4:30:00 AM 9.58 49.244 0.05 6.77 2.66 10.26
5/6/2022 4:45:00 AM 9.54 49.172 0.05 6.79 2.74 10.27
5/6/2022 5:00:00 AM 9.49 49.082 0.05 6.79 3.06 10.28
5/6/2022 5:15:00 AM 9.45 49.01 0.05 6.79 2.93 10.29
5/6/2022 5:30:00 AM 9.41 48.938 0.049 6.8 2.65 10.3
5/6/2022 5:45:00 AM 9.36 48.848 0.049 6.8 2.74 10.32
5/6/2022 6:00:00 AM 9.32 48.776 0.05 6.8 2.62 10.32
5/6/2022 6:15:00 AM 9.28 48.704 0.049 6.8 2.68 10.34
5/6/2022 6:30:00 AM 9.25 48.65 0.05 6.78 2.7 10.35
5/6/2022 6:45:00 AM 9.21 48.578 0.05 6.79 2.91 10.37
5/6/2022 7:00:00 AM 9.18 48.524 0.05 6.79 2.65 10.39
5/6/2022 7:15:00 AM 9.16 48.488 0.049 6.8 3.05 10.42
5/6/2022 7:30:00 AM 9.14 48.452 0.049 6.81 2.67 10.45
5/6/2022 7:45:00 AM 9.13 48.434 0.049 6.82 2.65 10.5
5/6/2022 8:00:00 AM 9.13 48.434 0.049 6.84 2.72 10.53
5/6/2022 8:15:00 AM 9.12 48.416 0.049 6.81 2.49 10.56
5/6/2022 8:30:00 AM 9.11 48.398 0.049 6.85 2.46 10.55
5/6/2022 8:45:00 AM 9.12 48.416 0.049 6.86 2.7 10.6
5/6/2022 9:00:00 AM 9.14 48.452 0.049 6.85 2.69 10.64
5/6/2022 9:15:00 AM 9.16 48.488 0.049 6.86 2.43 10.65
5/6/2022 9:30:00 AM 9.17 48.506 0.049 6.86 2.6 10.66
5/6/2022 9:45:00 AM 9.18 48.524 0.049 6.88 2.31 10.67
5/6/2022 10:00:00 AM 9.19 48.542 0.048 6.87 2.37 10.67
5/6/2022 10:15:00 AM 9.21 48.578 0.049 6.89 2.61 10.67
5/6/2022 10:30:00 AM 9.23 48.614 0.048 6.91 2.5 10.69
5/6/2022 10:45:00 AM 9.25 48.65 0.048 6.89 2.69 10.68
5/6/2022 11:00:00 AM 9.28 48.704 0.048 6.91 2.62 10.69
5/6/2022 11:15:00 AM 9.3 48.74 0.048 6.88 2.91 10.68
5/6/2022 11:30:00 AM 9.32 48.776 0.048 6.9 2.34 10.67
5/6/2022 11:45:00 AM 9.34 48.812 0.048 6.92 2.37 10.67
5/6/2022 12:00:00 PM 9.36 48.848 0.048 6.89 2.66 10.66
5/6/2022 12:15:00 PM 9.4 48.92 0.048 6.89 2.82 10.65
5/6/2022 12:30:00 PM 9.43 48.974 0.048 6.89 2.74 10.65
5/6/2022 12:45:00 PM 9.48 49.064 0.048 6.92 2.78 10.66
5/6/2022 1:00:00 PM 9.5 49.1 0.048 6.9 2.85 10.64
5/6/2022 1:15:00 PM 9.52 49.136 0.048 6.9 2.91 10.62
5/6/2022 1:30:00 PM 9.54 49.172 0.048 6.91 3.15 10.6
5/6/2022 1:45:00 PM 9.55 49.19 0.048 6.87 3.55 10.58
5/6/2022 2:00:00 PM 9.57 49.226 0.048 6.89 3.14 10.56
5/6/2022 2:15:00 PM 9.6 49.28 0.049 6.87 3.91 10.56
5/6/2022 2:30:00 PM 9.61 49.298 0.049 6.9 3.88 10.53
5/6/2022 2:45:00 PM 9.62 49.316 0.05 6.89 4.01 10.51
5/6/2022 3:00:00 PM 9.63 49.334 0.051 6.87 3.83 10.49
5/6/2022 3:15:00 PM 9.65 49.37 0.051 6.85 4.41 10.49
5/6/2022 3:30:00 PM 9.67 49.406 0.052 6.88 4.49 10.49
5/6/2022 3:45:00 PM 9.69 49.442 0.053 6.88 4.5 10.48
5/6/2022 4:00:00 PM 9.71 49.478 0.054 6.89 5.29 10.48
5/6/2022 4:15:00 PM 9.72 49.496 0.056 6.9 5.65 10.46
5/6/2022 4:30:00 PM 9.72 49.496 0.057 6.87 5.25 10.45
5/6/2022 4:45:00 PM 9.73 49.514 0.057 6.86 4.9 10.43
5/6/2022 5:00:00 PM 9.73 49.514 0.057 6.89 5.78 10.41
5/6/2022 5:15:00 PM 9.73 49.514 0.058 6.86 5.62 10.4
5/6/2022 5:30:00 PM 9.74 49.532 0.059 6.85 6.12 10.39
5/6/2022 5:45:00 PM 9.74 49.532 0.059 6.88 6.08 10.38
5/6/2022 6:00:00 PM 9.73 49.514 0.06 6.86 5.63 10.37
5/6/2022 6:15:00 PM 9.72 49.496 0.06 6.87 7.02 10.36
5/6/2022 6:30:00 PM 9.71 49.478 0.06 6.89 5.3 10.35
5/6/2022 6:45:00 PM 9.7 49.46 0.06 6.89 5.87 10.33
5/6/2022 7:00:00 PM 9.68 49.424 0.06 6.85 5.36 10.32
5/6/2022 7:15:00 PM 9.66 49.388 0.061 6.85 5.63 10.3
5/6/2022 7:30:00 PM 9.64 49.352 0.062 6.88 5.4 10.29
5/6/2022 7:45:00 PM 9.62 49.316 0.061 6.86 5.21 10.27
5/6/2022 8:00:00 PM 9.6 49.28 0.063 6.83 5.27 10.26
5/6/2022 8:15:00 PM 9.57 49.226 0.063 6.86 4.79 10.25
5/6/2022 8:30:00 PM 9.54 49.172 0.063 6.84 5.01 10.25
5/6/2022 8:45:00 PM 9.52 49.136 0.063 6.85 5.55 10.24
5/6/2022 9:00:00 PM 9.49 49.082 0.064 6.81 4.65 10.25
5/6/2022 9:15:00 PM 9.46 49.028 0.065 6.84 4.84 10.25
5/6/2022 9:30:00 PM 9.44 48.992 0.066 6.82 4.67 10.26
5/6/2022 9:45:00 PM 9.41 48.938 0.067 6.8 4.36 10.26
5/6/2022 10:00:00 PM 9.38 48.884 0.068 6.82 4.69 10.26
5/6/2022 10:15:00 PM 9.36 48.848 0.068 6.83 4.98 10.28
5/6/2022 10:30:00 PM 9.33 48.794 0.069 6.82 4.97 10.28
5/6/2022 10:45:00 PM 9.3 48.74 0.07 6.81 4.45 10.29
5/6/2022 11:00:00 PM 9.28 48.704 0.071 6.8 4.12 10.29
5/6/2022 11:15:00 PM 9.25 48.65 0.071 6.81 4 10.3
5/6/2022 11:30:00 PM 9.23 48.614 0.072 6.79 4.17 10.3
5/6/2022 11:45:00 PM 9.21 48.578 0.072 6.82 4.08 10.3
5/7/2022 12:00:00 AM 9.18 48.524 0.073 6.83 4.06 10.3
5/7/2022 12:15:00 AM 9.16 48.488 0.073 6.8 3.96 10.32
5/7/2022 12:30:00 AM 9.14 48.452 0.073 6.78 3.82 10.32
5/7/2022 12:45:00 AM 9.11 48.398 0.073 6.81 4.01 10.32
5/7/2022 1:00:00 AM 9.09 48.362 0.073 6.8 4.1 10.33
5/7/2022 1:15:00 AM 9.07 48.326 0.074 6.8 4.25 10.34
5/7/2022 1:30:00 AM 9.04 48.272 0.072 6.82 4.15 10.34
5/7/2022 1:45:00 AM 9.02 48.236 0.073 6.81 3.74 10.34
5/7/2022 2:00:00 AM 9 48.2 0.073 6.83 4.06 10.35
5/7/2022 2:15:00 AM 8.98 48.164 0.073 6.82 3.5 10.35
5/7/2022 2:30:00 AM 8.96 48.128 0.073 6.83 4.1 10.36
5/7/2022 2:45:00 AM 8.94 48.092 0.072 6.81 3.66 10.37
5/7/2022 3:00:00 AM 8.92 48.056 0.072 6.84 3.83 10.37
5/7/2022 3:15:00 AM 8.91 48.038 0.072 6.82 3.8 10.37
5/7/2022 3:30:00 AM 8.89 48.002 0.072 6.82 3.75 10.38
5/7/2022 3:45:00 AM 8.87 47.966 0.071 6.8 3.79 10.38
5/7/2022 4:00:00 AM 8.86 47.948 0.072 6.84 3.61 10.39
5/7/2022 4:15:00 AM 8.84 47.912 0.072 6.82 3.6 10.39
5/7/2022 4:30:00 AM 8.82 47.876 0.071 6.84 3.73 10.4
5/7/2022 4:45:00 AM 8.8 47.84 0.071 6.84 3.67 10.4
5/7/2022 5:00:00 AM 8.78 47.804 0.071 6.84 3.78 10.41
5/7/2022 5:15:00 AM 8.76 47.768 0.07 6.82 3.83 10.41
5/7/2022 5:30:00 AM 8.74 47.732 0.07 6.81 4.08 10.42
5/7/2022 5:45:00 AM 8.73 47.714 0.07 6.8 4.8 10.42
5/7/2022 6:00:00 AM 8.71 47.678 0.07 6.84 3.72 10.43
5/7/2022 6:15:00 AM 8.69 47.642 0.069 6.83 3.39 10.44
5/7/2022 6:30:00 AM 8.67 47.606 0.07 6.84 3.84 10.45
5/7/2022 6:45:00 AM 8.65 47.57 0.07 6.85 5.18 10.47
5/7/2022 7:00:00 AM 8.64 47.552 0.069 6.85 3.28 10.49
5/7/2022 7:15:00 AM 8.61 47.498 0.069 6.85 3.48 10.51
5/7/2022 7:30:00 AM 8.6 47.48 0.068 6.82 3.45 10.54
5/7/2022 7:45:00 AM 8.57 47.426 0.07 6.85 3.52 10.56
5/7/2022 8:00:00 AM 8.55 47.39 0.069 6.82 2.93 10.59
5/7/2022 8:15:00 AM 8.54 47.372 0.069 6.86 3.12 10.62
5/7/2022 8:30:00 AM 8.53 47.354 0.069 6.89 2.98 10.67
5/7/2022 8:45:00 AM 8.53 47.354 0.069 6.91 3.3 10.71
5/7/2022 9:00:00 AM 8.52 47.336 0.068 6.9 2.77 10.75
5/7/2022 9:15:00 AM 8.53 47.354 0.069 6.92 2.64 10.77
5/7/2022 9:30:00 AM 8.53 47.354 0.068 6.9 2.7 10.81
5/7/2022 9:45:00 AM 8.54 47.372 0.068 6.92 3.07 10.83
5/7/2022 10:00:00 AM 8.56 47.408 0.068 6.92 2.72 10.85
5/7/2022 10:15:00 AM 8.58 47.444 0.068 6.95 2.75 10.87
5/7/2022 10:30:00 AM 8.61 47.498 0.068 6.95 2.61 10.88
5/7/2022 10:45:00 AM 8.67 47.606 0.068 6.94 2.6 10.9
5/7/2022 11:00:00 AM 8.74 47.732 0.067 6.99 2.6 10.9
5/7/2022 11:15:00 AM 8.82 47.876 0.067 6.97 2.65 10.91
5/7/2022 11:30:00 AM 8.91 48.038 0.067 7.01 2.47 10.91
5/7/2022 11:45:00 AM 9.02 48.236 0.067 6.99 2.9 10.9
5/7/2022 12:00:00 PM 9.17 48.506 0.067 6.99 2.52 10.89
5/7/2022 12:15:00 PM 9.31 48.758 0.066 7.03 2.74 10.86
5/7/2022 12:30:00 PM 9.4 48.92 0.066 7 2.65 10.84
5/7/2022 12:45:00 PM 9.49 49.082 0.066 7 2.63 10.82
5/7/2022 1:00:00 PM 9.57 49.226 0.065 7.03 2.67 10.8
5/7/2022 1:15:00 PM 9.68 49.424 0.065 7.04 2.64 10.77
5/7/2022 1:30:00 PM 9.78 49.604 0.065 7.05 3.3 10.75
5/7/2022 1:45:00 PM 9.9 49.82 0.064 7.06 2.88 10.72
5/7/2022 2:00:00 PM 10.01 50.018 0.064 7.05 2.71 10.7
5/7/2022 2:15:00 PM 10.14 50.252 0.064 7.02 2.79 10.67
5/7/2022 2:30:00 PM 10.21 50.378